<?xml version="1.0" encoding="UTF-8" standalone="no" ?>
<gpx xmlns="http://www.topografix.com/GPX/1/1" xmlns:xsi="http://www.w3.org/2001/XMLSchema-instance" xsi:schemaLocation="http://www.topografix.com/GPX/1/1 http://www.topografix.com/GPX/1/1/gpx.xsd" version="1.1" creator="VisuGPX - https://www.visugpx.com">
  <metadata>
    <name>De Gazeran à Le Perray-en-Yvelines (78</name>
    <desc><![CDATA[Randonnée de 19km en ligne à partir de la gare de Gazeran]]></desc>
  </metadata>
  <trk>
    <name><![CDATA[De Gazeran à Le Perray-en-Yvelines_R]]></name>
    <trkseg>
      <trkpt lat="48.62599" lon="1.77156">
        <ele>164</ele>
        <time>2017-11-19T08:06:25Z</time>
      </trkpt>
      <trkpt lat="48.62626" lon="1.77209">
        <ele>165</ele>
        <time>2017-11-19T08:06:28Z</time>
      </trkpt>
      <trkpt lat="48.6273" lon="1.7725">
        <ele>165</ele>
        <time>2017-11-19T08:06:34Z</time>
      </trkpt>
      <trkpt lat="48.62828" lon="1.77255">
        <ele>165</ele>
      </trkpt>
      <trkpt lat="48.62932" lon="1.77261">
        <ele>165</ele>
        <time>2017-11-19T08:06:50Z</time>
      </trkpt>
      <trkpt lat="48.63017" lon="1.77255">
        <ele>164</ele>
        <time>2017-11-19T08:06:57Z</time>
      </trkpt>
      <trkpt lat="48.63107" lon="1.77246">
        <ele>162</ele>
        <time>2017-11-19T08:07:11Z</time>
      </trkpt>
      <trkpt lat="48.63137" lon="1.77246">
        <ele>161</ele>
        <time>2017-11-19T08:07:17Z</time>
      </trkpt>
      <trkpt lat="48.63161" lon="1.77255">
        <ele>159</ele>
        <time>2017-11-19T08:07:24Z</time>
      </trkpt>
      <trkpt lat="48.63187" lon="1.77262">
        <ele>157</ele>
        <time>2017-11-19T08:07:33Z</time>
      </trkpt>
      <trkpt lat="48.63206" lon="1.77266">
        <ele>156</ele>
        <time>2017-11-19T08:07:41Z</time>
      </trkpt>
      <trkpt lat="48.63218" lon="1.77267">
        <ele>156</ele>
        <time>2017-11-19T08:07:54Z</time>
      </trkpt>
      <trkpt lat="48.63227" lon="1.77269">
        <ele>155</ele>
        <time>2017-11-19T08:08:00Z</time>
      </trkpt>
      <trkpt lat="48.63238" lon="1.77269">
        <ele>155</ele>
        <time>2017-11-19T08:08:09Z</time>
      </trkpt>
      <trkpt lat="48.63247" lon="1.77273">
        <ele>154</ele>
        <time>2017-11-19T08:08:18Z</time>
      </trkpt>
      <trkpt lat="48.63256" lon="1.77276">
        <ele>153</ele>
        <time>2017-11-19T08:08:27Z</time>
      </trkpt>
      <trkpt lat="48.63265" lon="1.7728">
        <ele>153</ele>
        <time>2017-11-19T08:08:37Z</time>
      </trkpt>
      <trkpt lat="48.63275" lon="1.77285">
        <ele>152</ele>
        <time>2017-11-19T08:08:49Z</time>
      </trkpt>
      <trkpt lat="48.63283" lon="1.7729">
        <ele>152</ele>
        <time>2017-11-19T08:09:01Z</time>
      </trkpt>
      <trkpt lat="48.63293" lon="1.7729">
        <ele>152</ele>
        <time>2017-11-19T08:09:10Z</time>
      </trkpt>
      <trkpt lat="48.63303" lon="1.77289">
        <ele>152</ele>
        <time>2017-11-19T08:09:19Z</time>
      </trkpt>
      <trkpt lat="48.63312" lon="1.7729">
        <ele>152</ele>
        <time>2017-11-19T08:09:26Z</time>
      </trkpt>
      <trkpt lat="48.63322" lon="1.77287">
        <ele>152</ele>
        <time>2017-11-19T08:09:34Z</time>
      </trkpt>
      <trkpt lat="48.63331" lon="1.77284">
        <ele>152</ele>
        <time>2017-11-19T08:09:42Z</time>
      </trkpt>
      <trkpt lat="48.6334" lon="1.77282">
        <ele>152</ele>
        <time>2017-11-19T08:09:50Z</time>
      </trkpt>
      <trkpt lat="48.63351" lon="1.77282">
        <ele>152</ele>
        <time>2017-11-19T08:09:58Z</time>
      </trkpt>
      <trkpt lat="48.63359" lon="1.7729">
        <ele>150</ele>
        <time>2017-11-19T08:10:07Z</time>
      </trkpt>
      <trkpt lat="48.63369" lon="1.77294">
        <ele>150</ele>
        <time>2017-11-19T08:10:13Z</time>
      </trkpt>
      <trkpt lat="48.63379" lon="1.77297">
        <ele>149</ele>
        <time>2017-11-19T08:10:19Z</time>
      </trkpt>
      <trkpt lat="48.63389" lon="1.77294">
        <ele>149</ele>
        <time>2017-11-19T08:10:25Z</time>
      </trkpt>
      <trkpt lat="48.63395" lon="1.77305">
        <ele>147</ele>
        <time>2017-11-19T08:10:43Z</time>
      </trkpt>
      <trkpt lat="48.63402" lon="1.77294">
        <ele>148</ele>
        <time>2017-11-19T08:10:58Z</time>
      </trkpt>
      <trkpt lat="48.63406" lon="1.77281">
        <ele>149</ele>
        <time>2017-11-19T08:11:08Z</time>
      </trkpt>
      <trkpt lat="48.63406" lon="1.77267">
        <ele>150</ele>
        <time>2017-11-19T08:11:18Z</time>
      </trkpt>
      <trkpt lat="48.63406" lon="1.77252">
        <ele>152</ele>
        <time>2017-11-19T08:11:30Z</time>
      </trkpt>
      <trkpt lat="48.63406" lon="1.77238">
        <ele>152</ele>
        <time>2017-11-19T08:11:40Z</time>
      </trkpt>
      <trkpt lat="48.63406" lon="1.77223">
        <ele>153</ele>
        <time>2017-11-19T08:11:52Z</time>
      </trkpt>
      <trkpt lat="48.63407" lon="1.77209">
        <ele>154</ele>
        <time>2017-11-19T08:11:59Z</time>
      </trkpt>
      <trkpt lat="48.63406" lon="1.77195">
        <ele>154</ele>
        <time>2017-11-19T08:12:08Z</time>
      </trkpt>
      <trkpt lat="48.63402" lon="1.77183">
        <ele>155</ele>
        <time>2017-11-19T08:12:17Z</time>
      </trkpt>
      <trkpt lat="48.63395" lon="1.77172">
        <ele>156</ele>
        <time>2017-11-19T08:12:28Z</time>
      </trkpt>
      <trkpt lat="48.63393" lon="1.77158">
        <ele>156</ele>
        <time>2017-11-19T08:12:37Z</time>
      </trkpt>
      <trkpt lat="48.6339" lon="1.77145">
        <ele>156</ele>
        <time>2017-11-19T08:12:51Z</time>
      </trkpt>
      <trkpt lat="48.63399" lon="1.77138">
        <ele>156</ele>
        <time>2017-11-19T08:13:06Z</time>
      </trkpt>
      <trkpt lat="48.63407" lon="1.77131">
        <ele>155</ele>
        <time>2017-11-19T08:13:13Z</time>
      </trkpt>
      <trkpt lat="48.63416" lon="1.77125">
        <ele>155</ele>
        <time>2017-11-19T08:13:20Z</time>
      </trkpt>
      <trkpt lat="48.63425" lon="1.77121">
        <ele>154</ele>
        <time>2017-11-19T08:13:31Z</time>
      </trkpt>
      <trkpt lat="48.63433" lon="1.77114">
        <ele>153</ele>
        <time>2017-11-19T08:13:39Z</time>
      </trkpt>
      <trkpt lat="48.63442" lon="1.77111">
        <ele>153</ele>
        <time>2017-11-19T08:13:48Z</time>
      </trkpt>
      <trkpt lat="48.63451" lon="1.77106">
        <ele>152</ele>
        <time>2017-11-19T08:13:56Z</time>
      </trkpt>
      <trkpt lat="48.6346" lon="1.77102">
        <ele>152</ele>
        <time>2017-11-19T08:14:04Z</time>
      </trkpt>
      <trkpt lat="48.63468" lon="1.77096">
        <ele>151</ele>
        <time>2017-11-19T08:14:15Z</time>
      </trkpt>
      <trkpt lat="48.63478" lon="1.77093">
        <ele>151</ele>
        <time>2017-11-19T08:14:24Z</time>
      </trkpt>
      <trkpt lat="48.63488" lon="1.77093">
        <ele>150</ele>
        <time>2017-11-19T08:14:38Z</time>
      </trkpt>
      <trkpt lat="48.63497" lon="1.77092">
        <ele>150</ele>
        <time>2017-11-19T08:14:53Z</time>
      </trkpt>
      <trkpt lat="48.63506" lon="1.77096">
        <ele>149</ele>
        <time>2017-11-19T08:15:04Z</time>
      </trkpt>
      <trkpt lat="48.63515" lon="1.77097">
        <ele>148</ele>
        <time>2017-11-19T08:15:15Z</time>
      </trkpt>
      <trkpt lat="48.63525" lon="1.77094">
        <ele>148</ele>
        <time>2017-11-19T08:15:22Z</time>
      </trkpt>
      <trkpt lat="48.63534" lon="1.77095">
        <ele>147</ele>
        <time>2017-11-19T08:15:28Z</time>
      </trkpt>
      <trkpt lat="48.63544" lon="1.77094">
        <ele>146</ele>
        <time>2017-11-19T08:15:34Z</time>
      </trkpt>
      <trkpt lat="48.63553" lon="1.77094">
        <ele>145</ele>
        <time>2017-11-19T08:15:42Z</time>
      </trkpt>
      <trkpt lat="48.63562" lon="1.77089">
        <ele>144</ele>
        <time>2017-11-19T08:15:49Z</time>
      </trkpt>
      <trkpt lat="48.63571" lon="1.77084">
        <ele>143</ele>
        <time>2017-11-19T08:15:59Z</time>
      </trkpt>
      <trkpt lat="48.63581" lon="1.77083">
        <ele>142</ele>
        <time>2017-11-19T08:16:10Z</time>
      </trkpt>
      <trkpt lat="48.63591" lon="1.77082">
        <ele>142</ele>
        <time>2017-11-19T08:16:21Z</time>
      </trkpt>
      <trkpt lat="48.63601" lon="1.77082">
        <ele>142</ele>
        <time>2017-11-19T08:16:28Z</time>
      </trkpt>
      <trkpt lat="48.6361" lon="1.77078">
        <ele>142</ele>
        <time>2017-11-19T08:16:36Z</time>
      </trkpt>
      <trkpt lat="48.63619" lon="1.77072">
        <ele>142</ele>
        <time>2017-11-19T08:16:47Z</time>
      </trkpt>
      <trkpt lat="48.63628" lon="1.77068">
        <ele>143</ele>
        <time>2017-11-19T08:16:58Z</time>
      </trkpt>
      <trkpt lat="48.63638" lon="1.77065">
        <ele>143</ele>
        <time>2017-11-19T08:17:06Z</time>
      </trkpt>
      <trkpt lat="48.63648" lon="1.77065">
        <ele>143</ele>
        <time>2017-11-19T08:17:22Z</time>
      </trkpt>
      <trkpt lat="48.63657" lon="1.77059">
        <ele>143</ele>
        <time>2017-11-19T08:17:32Z</time>
      </trkpt>
      <trkpt lat="48.63665" lon="1.77053">
        <ele>144</ele>
        <time>2017-11-19T08:17:40Z</time>
      </trkpt>
      <trkpt lat="48.63675" lon="1.77052">
        <ele>144</ele>
        <time>2017-11-19T08:17:48Z</time>
      </trkpt>
      <trkpt lat="48.63684" lon="1.77048">
        <ele>144</ele>
        <time>2017-11-19T08:17:57Z</time>
      </trkpt>
      <trkpt lat="48.63694" lon="1.77045">
        <ele>145</ele>
        <time>2017-11-19T08:18:07Z</time>
      </trkpt>
      <trkpt lat="48.63701" lon="1.77052">
        <ele>145</ele>
        <time>2017-11-19T08:18:24Z</time>
      </trkpt>
      <trkpt lat="48.6371" lon="1.77059">
        <ele>145</ele>
        <time>2017-11-19T08:23:20Z</time>
      </trkpt>
      <trkpt lat="48.63714" lon="1.77071">
        <ele>144</ele>
        <time>2017-11-19T08:23:31Z</time>
      </trkpt>
      <trkpt lat="48.63721" lon="1.7708">
        <ele>144</ele>
        <time>2017-11-19T08:23:41Z</time>
      </trkpt>
      <trkpt lat="48.63731" lon="1.77093">
        <ele>144</ele>
        <time>2017-11-19T08:23:47Z</time>
      </trkpt>
      <trkpt lat="48.63738" lon="1.77104">
        <ele>144</ele>
        <time>2017-11-19T08:23:56Z</time>
      </trkpt>
      <trkpt lat="48.63744" lon="1.77115">
        <ele>144</ele>
        <time>2017-11-19T08:24:04Z</time>
      </trkpt>
      <trkpt lat="48.6375" lon="1.77126">
        <ele>144</ele>
        <time>2017-11-19T08:24:13Z</time>
      </trkpt>
      <trkpt lat="48.63759" lon="1.77132">
        <ele>144</ele>
        <time>2017-11-19T08:24:27Z</time>
      </trkpt>
      <trkpt lat="48.63769" lon="1.77132">
        <ele>144</ele>
        <time>2017-11-19T08:24:36Z</time>
      </trkpt>
      <trkpt lat="48.63778" lon="1.77127">
        <ele>144</ele>
        <time>2017-11-19T08:24:46Z</time>
      </trkpt>
      <trkpt lat="48.63788" lon="1.77127">
        <ele>144</ele>
        <time>2017-11-19T08:24:53Z</time>
      </trkpt>
      <trkpt lat="48.63798" lon="1.77127">
        <ele>143</ele>
        <time>2017-11-19T08:25:01Z</time>
      </trkpt>
      <trkpt lat="48.63808" lon="1.77124">
        <ele>143</ele>
        <time>2017-11-19T08:25:09Z</time>
      </trkpt>
      <trkpt lat="48.63817" lon="1.77121">
        <ele>143</ele>
        <time>2017-11-19T08:25:19Z</time>
      </trkpt>
      <trkpt lat="48.63828" lon="1.77121">
        <ele>143</ele>
        <time>2017-11-19T08:25:25Z</time>
      </trkpt>
      <trkpt lat="48.63838" lon="1.77119">
        <ele>143</ele>
        <time>2017-11-19T08:25:34Z</time>
      </trkpt>
      <trkpt lat="48.63846" lon="1.77116">
        <ele>143</ele>
        <time>2017-11-19T08:25:43Z</time>
      </trkpt>
      <trkpt lat="48.63856" lon="1.77113">
        <ele>143</ele>
        <time>2017-11-19T08:25:53Z</time>
      </trkpt>
      <trkpt lat="48.63864" lon="1.77108">
        <ele>144</ele>
        <time>2017-11-19T08:26:03Z</time>
      </trkpt>
      <trkpt lat="48.63874" lon="1.77109">
        <ele>144</ele>
        <time>2017-11-19T08:26:50Z</time>
      </trkpt>
      <trkpt lat="48.63882" lon="1.77101">
        <ele>144</ele>
        <time>2017-11-19T08:27:02Z</time>
      </trkpt>
      <trkpt lat="48.63891" lon="1.77094">
        <ele>144</ele>
        <time>2017-11-19T08:27:11Z</time>
      </trkpt>
      <trkpt lat="48.63899" lon="1.77088">
        <ele>144</ele>
        <time>2017-11-19T08:27:20Z</time>
      </trkpt>
      <trkpt lat="48.63905" lon="1.77078">
        <ele>144</ele>
        <time>2017-11-19T08:27:32Z</time>
      </trkpt>
      <trkpt lat="48.63914" lon="1.77072">
        <ele>144</ele>
        <time>2017-11-19T08:27:40Z</time>
      </trkpt>
      <trkpt lat="48.63923" lon="1.77066">
        <ele>144</ele>
        <time>2017-11-19T08:27:47Z</time>
      </trkpt>
      <trkpt lat="48.63933" lon="1.77065">
        <ele>144</ele>
        <time>2017-11-19T08:27:58Z</time>
      </trkpt>
      <trkpt lat="48.63942" lon="1.77064">
        <ele>145</ele>
        <time>2017-11-19T08:28:07Z</time>
      </trkpt>
      <trkpt lat="48.63952" lon="1.77064">
        <ele>145</ele>
        <time>2017-11-19T08:28:13Z</time>
      </trkpt>
      <trkpt lat="48.63961" lon="1.77064">
        <ele>145</ele>
        <time>2017-11-19T08:28:21Z</time>
      </trkpt>
      <trkpt lat="48.63971" lon="1.77064">
        <ele>146</ele>
        <time>2017-11-19T08:28:29Z</time>
      </trkpt>
      <trkpt lat="48.6398" lon="1.77062">
        <ele>146</ele>
        <time>2017-11-19T08:28:38Z</time>
      </trkpt>
      <trkpt lat="48.63991" lon="1.77065">
        <ele>146</ele>
        <time>2017-11-19T08:28:47Z</time>
      </trkpt>
      <trkpt lat="48.64001" lon="1.77064">
        <ele>147</ele>
        <time>2017-11-19T08:28:55Z</time>
      </trkpt>
      <trkpt lat="48.6401" lon="1.77065">
        <ele>146</ele>
        <time>2017-11-19T08:29:03Z</time>
      </trkpt>
      <trkpt lat="48.6402" lon="1.77068">
        <ele>146</ele>
        <time>2017-11-19T08:29:12Z</time>
      </trkpt>
      <trkpt lat="48.6403" lon="1.77067">
        <ele>146</ele>
        <time>2017-11-19T08:29:20Z</time>
      </trkpt>
      <trkpt lat="48.6404" lon="1.7707">
        <ele>146</ele>
        <time>2017-11-19T08:29:35Z</time>
      </trkpt>
      <trkpt lat="48.64049" lon="1.77071">
        <ele>146</ele>
        <time>2017-11-19T08:29:43Z</time>
      </trkpt>
      <trkpt lat="48.64058" lon="1.77073">
        <ele>146</ele>
        <time>2017-11-19T08:29:52Z</time>
      </trkpt>
      <trkpt lat="48.64067" lon="1.77068">
        <ele>145</ele>
        <time>2017-11-19T08:30:07Z</time>
      </trkpt>
      <trkpt lat="48.64074" lon="1.77059">
        <ele>145</ele>
        <time>2017-11-19T08:30:15Z</time>
      </trkpt>
      <trkpt lat="48.64082" lon="1.77052">
        <ele>145</ele>
        <time>2017-11-19T08:30:25Z</time>
      </trkpt>
      <trkpt lat="48.6409" lon="1.77043">
        <ele>145</ele>
        <time>2017-11-19T08:30:34Z</time>
      </trkpt>
      <trkpt lat="48.64098" lon="1.77035">
        <ele>145</ele>
        <time>2017-11-19T08:30:42Z</time>
      </trkpt>
      <trkpt lat="48.64105" lon="1.77026">
        <ele>145</ele>
        <time>2017-11-19T08:30:51Z</time>
      </trkpt>
      <trkpt lat="48.64114" lon="1.77018">
        <ele>145</ele>
        <time>2017-11-19T08:31:00Z</time>
      </trkpt>
      <trkpt lat="48.64121" lon="1.77009">
        <ele>145</ele>
        <time>2017-11-19T08:31:09Z</time>
      </trkpt>
      <trkpt lat="48.64128" lon="1.77">
        <ele>145</ele>
        <time>2017-11-19T08:31:18Z</time>
      </trkpt>
      <trkpt lat="48.64136" lon="1.76991">
        <ele>145</ele>
        <time>2017-11-19T08:31:27Z</time>
      </trkpt>
      <trkpt lat="48.64143" lon="1.76982">
        <ele>145</ele>
        <time>2017-11-19T08:31:35Z</time>
      </trkpt>
      <trkpt lat="48.64151" lon="1.76975">
        <ele>145</ele>
        <time>2017-11-19T08:31:43Z</time>
      </trkpt>
      <trkpt lat="48.64158" lon="1.76965">
        <ele>146</ele>
        <time>2017-11-19T08:31:52Z</time>
      </trkpt>
      <trkpt lat="48.64164" lon="1.76954">
        <ele>146</ele>
        <time>2017-11-19T08:32:04Z</time>
      </trkpt>
      <trkpt lat="48.64171" lon="1.76943">
        <ele>146</ele>
        <time>2017-11-19T08:32:15Z</time>
      </trkpt>
      <trkpt lat="48.64178" lon="1.76932">
        <ele>147</ele>
        <time>2017-11-19T08:32:24Z</time>
      </trkpt>
      <trkpt lat="48.64185" lon="1.76923">
        <ele>147</ele>
        <time>2017-11-19T08:32:32Z</time>
      </trkpt>
      <trkpt lat="48.64192" lon="1.76915">
        <ele>147</ele>
        <time>2017-11-19T08:32:40Z</time>
      </trkpt>
      <trkpt lat="48.642" lon="1.76905">
        <ele>147</ele>
        <time>2017-11-19T08:32:52Z</time>
      </trkpt>
      <trkpt lat="48.64206" lon="1.76894">
        <ele>148</ele>
        <time>2017-11-19T08:33:06Z</time>
      </trkpt>
      <trkpt lat="48.64213" lon="1.76886">
        <ele>148</ele>
        <time>2017-11-19T08:33:15Z</time>
      </trkpt>
      <trkpt lat="48.64219" lon="1.76875">
        <ele>148</ele>
        <time>2017-11-19T08:33:23Z</time>
      </trkpt>
      <trkpt lat="48.64225" lon="1.76864">
        <ele>148</ele>
        <time>2017-11-19T08:33:35Z</time>
      </trkpt>
      <trkpt lat="48.64232" lon="1.76854">
        <ele>148</ele>
        <time>2017-11-19T08:33:43Z</time>
      </trkpt>
      <trkpt lat="48.64238" lon="1.76845">
        <ele>149</ele>
        <time>2017-11-19T08:33:50Z</time>
      </trkpt>
      <trkpt lat="48.64244" lon="1.76833">
        <ele>149</ele>
        <time>2017-11-19T08:34:05Z</time>
      </trkpt>
      <trkpt lat="48.64251" lon="1.76823">
        <ele>149</ele>
        <time>2017-11-19T08:34:12Z</time>
      </trkpt>
      <trkpt lat="48.64258" lon="1.76811">
        <ele>149</ele>
        <time>2017-11-19T08:34:23Z</time>
      </trkpt>
      <trkpt lat="48.64266" lon="1.76802">
        <ele>149</ele>
        <time>2017-11-19T08:34:30Z</time>
      </trkpt>
      <trkpt lat="48.6427" lon="1.7679">
        <ele>149</ele>
        <time>2017-11-19T08:34:38Z</time>
      </trkpt>
      <trkpt lat="48.64277" lon="1.76778">
        <ele>149</ele>
        <time>2017-11-19T08:34:47Z</time>
      </trkpt>
      <trkpt lat="48.64283" lon="1.76767">
        <ele>149</ele>
        <time>2017-11-19T08:34:55Z</time>
      </trkpt>
      <trkpt lat="48.64288" lon="1.76755">
        <ele>149</ele>
        <time>2017-11-19T08:35:03Z</time>
      </trkpt>
      <trkpt lat="48.64295" lon="1.76746">
        <ele>148</ele>
        <time>2017-11-19T08:35:11Z</time>
      </trkpt>
      <trkpt lat="48.64302" lon="1.76736">
        <ele>148</ele>
        <time>2017-11-19T08:35:18Z</time>
      </trkpt>
      <trkpt lat="48.64308" lon="1.76724">
        <ele>148</ele>
        <time>2017-11-19T08:35:27Z</time>
      </trkpt>
      <trkpt lat="48.64315" lon="1.76714">
        <ele>148</ele>
        <time>2017-11-19T08:35:34Z</time>
      </trkpt>
      <trkpt lat="48.64322" lon="1.76704">
        <ele>147</ele>
        <time>2017-11-19T08:35:42Z</time>
      </trkpt>
      <trkpt lat="48.64329" lon="1.76696">
        <ele>147</ele>
        <time>2017-11-19T08:35:51Z</time>
      </trkpt>
      <trkpt lat="48.64336" lon="1.76687">
        <ele>147</ele>
        <time>2017-11-19T08:36:01Z</time>
      </trkpt>
      <trkpt lat="48.64344" lon="1.76677">
        <ele>146</ele>
        <time>2017-11-19T08:36:12Z</time>
      </trkpt>
      <trkpt lat="48.64352" lon="1.76667">
        <ele>146</ele>
        <time>2017-11-19T08:36:21Z</time>
      </trkpt>
      <trkpt lat="48.64357" lon="1.76655">
        <ele>146</ele>
        <time>2017-11-19T08:36:29Z</time>
      </trkpt>
      <trkpt lat="48.64363" lon="1.76645">
        <ele>145</ele>
        <time>2017-11-19T08:37:03Z</time>
      </trkpt>
      <trkpt lat="48.64362" lon="1.76631">
        <ele>145</ele>
        <time>2017-11-19T08:37:35Z</time>
      </trkpt>
      <trkpt lat="48.64365" lon="1.76618">
        <ele>144</ele>
        <time>2017-11-19T08:37:42Z</time>
      </trkpt>
      <trkpt lat="48.64367" lon="1.76604">
        <ele>144</ele>
        <time>2017-11-19T08:37:49Z</time>
      </trkpt>
      <trkpt lat="48.64367" lon="1.7659">
        <ele>143</ele>
        <time>2017-11-19T08:37:55Z</time>
      </trkpt>
      <trkpt lat="48.64366" lon="1.76575">
        <ele>143</ele>
        <time>2017-11-19T08:38:02Z</time>
      </trkpt>
      <trkpt lat="48.64367" lon="1.76561">
        <ele>143</ele>
        <time>2017-11-19T08:38:09Z</time>
      </trkpt>
      <trkpt lat="48.64366" lon="1.76546">
        <ele>143</ele>
        <time>2017-11-19T08:38:16Z</time>
      </trkpt>
      <trkpt lat="48.64365" lon="1.76532">
        <ele>143</ele>
        <time>2017-11-19T08:38:23Z</time>
      </trkpt>
      <trkpt lat="48.64365" lon="1.76517">
        <ele>143</ele>
        <time>2017-11-19T08:38:30Z</time>
      </trkpt>
      <trkpt lat="48.64366" lon="1.76502">
        <ele>142</ele>
        <time>2017-11-19T08:38:38Z</time>
      </trkpt>
      <trkpt lat="48.64366" lon="1.76488">
        <ele>143</ele>
        <time>2017-11-19T08:38:45Z</time>
      </trkpt>
      <trkpt lat="48.64365" lon="1.76472">
        <ele>143</ele>
        <time>2017-11-19T08:38:53Z</time>
      </trkpt>
      <trkpt lat="48.64364" lon="1.76457">
        <ele>143</ele>
        <time>2017-11-19T08:39:00Z</time>
      </trkpt>
      <trkpt lat="48.64364" lon="1.76442">
        <ele>144</ele>
        <time>2017-11-19T08:39:07Z</time>
      </trkpt>
      <trkpt lat="48.64363" lon="1.76426">
        <ele>144</ele>
        <time>2017-11-19T08:39:14Z</time>
      </trkpt>
      <trkpt lat="48.64366" lon="1.76412">
        <ele>145</ele>
        <time>2017-11-19T08:39:22Z</time>
      </trkpt>
      <trkpt lat="48.64365" lon="1.76399">
        <ele>145</ele>
        <time>2017-11-19T08:39:28Z</time>
      </trkpt>
      <trkpt lat="48.64367" lon="1.76385">
        <ele>145</ele>
        <time>2017-11-19T08:39:36Z</time>
      </trkpt>
      <trkpt lat="48.6437" lon="1.76372">
        <ele>146</ele>
        <time>2017-11-19T08:39:46Z</time>
      </trkpt>
      <trkpt lat="48.64371" lon="1.76358">
        <ele>146</ele>
        <time>2017-11-19T08:40:06Z</time>
      </trkpt>
      <trkpt lat="48.64374" lon="1.76345">
        <ele>146</ele>
        <time>2017-11-19T08:40:18Z</time>
      </trkpt>
      <trkpt lat="48.64378" lon="1.76331">
        <ele>147</ele>
        <time>2017-11-19T08:40:27Z</time>
      </trkpt>
      <trkpt lat="48.64383" lon="1.76318">
        <ele>147</ele>
        <time>2017-11-19T08:40:36Z</time>
      </trkpt>
      <trkpt lat="48.64386" lon="1.76305">
        <ele>148</ele>
        <time>2017-11-19T08:40:43Z</time>
      </trkpt>
      <trkpt lat="48.64392" lon="1.76293">
        <ele>148</ele>
        <time>2017-11-19T08:40:53Z</time>
      </trkpt>
      <trkpt lat="48.64399" lon="1.76285">
        <ele>149</ele>
        <time>2017-11-19T08:41:01Z</time>
      </trkpt>
      <trkpt lat="48.64408" lon="1.76277">
        <ele>150</ele>
        <time>2017-11-19T08:41:10Z</time>
      </trkpt>
      <trkpt lat="48.64416" lon="1.76269">
        <ele>150</ele>
        <time>2017-11-19T08:41:20Z</time>
      </trkpt>
      <trkpt lat="48.64422" lon="1.76258">
        <ele>151</ele>
        <time>2017-11-19T08:41:29Z</time>
      </trkpt>
      <trkpt lat="48.6443" lon="1.76251">
        <ele>151</ele>
        <time>2017-11-19T08:41:36Z</time>
      </trkpt>
      <trkpt lat="48.64438" lon="1.76241">
        <ele>151</ele>
        <time>2017-11-19T08:41:44Z</time>
      </trkpt>
      <trkpt lat="48.64442" lon="1.76228">
        <ele>152</ele>
        <time>2017-11-19T08:41:53Z</time>
      </trkpt>
      <trkpt lat="48.64447" lon="1.76216">
        <ele>152</ele>
        <time>2017-11-19T08:42:03Z</time>
      </trkpt>
      <trkpt lat="48.64454" lon="1.76208">
        <ele>153</ele>
        <time>2017-11-19T08:42:10Z</time>
      </trkpt>
      <trkpt lat="48.6446" lon="1.76196">
        <ele>153</ele>
        <time>2017-11-19T08:42:19Z</time>
      </trkpt>
      <trkpt lat="48.64466" lon="1.76184">
        <ele>154</ele>
        <time>2017-11-19T08:42:28Z</time>
      </trkpt>
      <trkpt lat="48.6447" lon="1.76171">
        <ele>154</ele>
        <time>2017-11-19T08:42:36Z</time>
      </trkpt>
      <trkpt lat="48.64475" lon="1.76157">
        <ele>155</ele>
        <time>2017-11-19T08:42:45Z</time>
      </trkpt>
      <trkpt lat="48.64478" lon="1.76143">
        <ele>155</ele>
        <time>2017-11-19T08:42:54Z</time>
      </trkpt>
      <trkpt lat="48.64483" lon="1.76131">
        <ele>156</ele>
        <time>2017-11-19T08:43:03Z</time>
      </trkpt>
      <trkpt lat="48.64488" lon="1.76118">
        <ele>157</ele>
        <time>2017-11-19T08:43:12Z</time>
      </trkpt>
      <trkpt lat="48.64491" lon="1.76104">
        <ele>158</ele>
        <time>2017-11-19T08:43:23Z</time>
      </trkpt>
      <trkpt lat="48.64493" lon="1.76091">
        <ele>158</ele>
        <time>2017-11-19T08:43:32Z</time>
      </trkpt>
      <trkpt lat="48.64497" lon="1.76078">
        <ele>159</ele>
        <time>2017-11-19T08:43:40Z</time>
      </trkpt>
      <trkpt lat="48.64501" lon="1.76066">
        <ele>160</ele>
        <time>2017-11-19T08:43:49Z</time>
      </trkpt>
      <trkpt lat="48.64506" lon="1.76053">
        <ele>161</ele>
        <time>2017-11-19T08:43:58Z</time>
      </trkpt>
      <trkpt lat="48.6451" lon="1.76041">
        <ele>162</ele>
        <time>2017-11-19T08:44:08Z</time>
      </trkpt>
      <trkpt lat="48.64508" lon="1.76027">
        <ele>163</ele>
        <time>2017-11-19T08:44:30Z</time>
      </trkpt>
      <trkpt lat="48.64513" lon="1.76016">
        <ele>164</ele>
        <time>2017-11-19T08:44:59Z</time>
      </trkpt>
      <trkpt lat="48.64519" lon="1.76007">
        <ele>165</ele>
        <time>2017-11-19T08:45:41Z</time>
      </trkpt>
      <trkpt lat="48.64523" lon="1.75993">
        <ele>165</ele>
        <time>2017-11-19T08:46:18Z</time>
      </trkpt>
      <trkpt lat="48.64527" lon="1.75979">
        <ele>165</ele>
        <time>2017-11-19T08:46:26Z</time>
      </trkpt>
      <trkpt lat="48.64533" lon="1.75968">
        <ele>165</ele>
        <time>2017-11-19T08:46:33Z</time>
      </trkpt>
      <trkpt lat="48.64538" lon="1.75957">
        <ele>165</ele>
        <time>2017-11-19T08:46:41Z</time>
      </trkpt>
      <trkpt lat="48.64541" lon="1.75944">
        <ele>164</ele>
        <time>2017-11-19T08:46:48Z</time>
      </trkpt>
      <trkpt lat="48.64546" lon="1.75932">
        <ele>164</ele>
        <time>2017-11-19T08:46:55Z</time>
      </trkpt>
      <trkpt lat="48.64551" lon="1.75919">
        <ele>163</ele>
        <time>2017-11-19T08:47:03Z</time>
      </trkpt>
      <trkpt lat="48.64555" lon="1.75907">
        <ele>163</ele>
        <time>2017-11-19T08:47:11Z</time>
      </trkpt>
      <trkpt lat="48.64561" lon="1.75896">
        <ele>162</ele>
        <time>2017-11-19T08:47:19Z</time>
      </trkpt>
      <trkpt lat="48.64567" lon="1.75885">
        <ele>161</ele>
        <time>2017-11-19T08:47:25Z</time>
      </trkpt>
      <trkpt lat="48.64574" lon="1.75876">
        <ele>161</ele>
        <time>2017-11-19T08:47:33Z</time>
      </trkpt>
      <trkpt lat="48.64581" lon="1.75864">
        <ele>160</ele>
        <time>2017-11-19T08:47:41Z</time>
      </trkpt>
      <trkpt lat="48.64587" lon="1.75855">
        <ele>160</ele>
        <time>2017-11-19T08:47:49Z</time>
      </trkpt>
      <trkpt lat="48.64591" lon="1.75842">
        <ele>161</ele>
        <time>2017-11-19T08:48:02Z</time>
      </trkpt>
      <trkpt lat="48.64596" lon="1.7583">
        <ele>162</ele>
        <time>2017-11-19T08:48:14Z</time>
      </trkpt>
      <trkpt lat="48.64603" lon="1.75818">
        <ele>162</ele>
        <time>2017-11-19T08:48:22Z</time>
      </trkpt>
      <trkpt lat="48.64609" lon="1.75804">
        <ele>163</ele>
        <time>2017-11-19T08:48:29Z</time>
      </trkpt>
      <trkpt lat="48.64616" lon="1.75793">
        <ele>164</ele>
        <time>2017-11-19T08:48:35Z</time>
      </trkpt>
      <trkpt lat="48.64623" lon="1.75784">
        <ele>164</ele>
        <time>2017-11-19T08:48:42Z</time>
      </trkpt>
      <trkpt lat="48.6463" lon="1.75774">
        <ele>165</ele>
        <time>2017-11-19T08:48:49Z</time>
      </trkpt>
      <trkpt lat="48.64637" lon="1.75765">
        <ele>165</ele>
        <time>2017-11-19T08:48:56Z</time>
      </trkpt>
      <trkpt lat="48.64642" lon="1.75754">
        <ele>166</ele>
        <time>2017-11-19T08:49:02Z</time>
      </trkpt>
      <trkpt lat="48.64649" lon="1.75743">
        <ele>166</ele>
        <time>2017-11-19T08:49:10Z</time>
      </trkpt>
      <trkpt lat="48.64656" lon="1.75733">
        <ele>167</ele>
        <time>2017-11-19T08:49:19Z</time>
      </trkpt>
      <trkpt lat="48.64663" lon="1.75723">
        <ele>168</ele>
        <time>2017-11-19T08:49:29Z</time>
      </trkpt>
      <trkpt lat="48.64672" lon="1.75715">
        <ele>169</ele>
        <time>2017-11-19T08:49:35Z</time>
      </trkpt>
      <trkpt lat="48.64679" lon="1.75703">
        <ele>169</ele>
        <time>2017-11-19T08:49:42Z</time>
      </trkpt>
      <trkpt lat="48.64687" lon="1.75692">
        <ele>169</ele>
        <time>2017-11-19T08:49:48Z</time>
      </trkpt>
      <trkpt lat="48.64693" lon="1.75681">
        <ele>170</ele>
        <time>2017-11-19T08:49:58Z</time>
      </trkpt>
      <trkpt lat="48.64701" lon="1.75673">
        <ele>170</ele>
        <time>2017-11-19T08:50:08Z</time>
      </trkpt>
      <trkpt lat="48.64709" lon="1.75663">
        <ele>171</ele>
        <time>2017-11-19T08:50:16Z</time>
      </trkpt>
      <trkpt lat="48.64716" lon="1.75654">
        <ele>172</ele>
        <time>2017-11-19T08:50:23Z</time>
      </trkpt>
      <trkpt lat="48.64722" lon="1.75643">
        <ele>173</ele>
        <time>2017-11-19T08:50:30Z</time>
      </trkpt>
      <trkpt lat="48.6473" lon="1.75634">
        <ele>174</ele>
        <time>2017-11-19T08:50:40Z</time>
      </trkpt>
      <trkpt lat="48.64737" lon="1.75623">
        <ele>175</ele>
        <time>2017-11-19T08:50:48Z</time>
      </trkpt>
      <trkpt lat="48.64743" lon="1.75613">
        <ele>175</ele>
        <time>2017-11-19T08:50:55Z</time>
      </trkpt>
      <trkpt lat="48.64747" lon="1.75601">
        <ele>176</ele>
        <time>2017-11-19T08:51:04Z</time>
      </trkpt>
      <trkpt lat="48.64751" lon="1.75589">
        <ele>177</ele>
        <time>2017-11-19T08:51:12Z</time>
      </trkpt>
      <trkpt lat="48.64757" lon="1.75576">
        <ele>177</ele>
        <time>2017-11-19T08:51:25Z</time>
      </trkpt>
      <trkpt lat="48.64764" lon="1.75582">
        <ele>177</ele>
        <time>2017-11-19T08:58:59Z</time>
      </trkpt>
      <trkpt lat="48.64775" lon="1.75592">
        <ele>177</ele>
        <time>2017-11-19T09:03:32Z</time>
      </trkpt>
      <trkpt lat="48.64783" lon="1.756">
        <ele>176</ele>
        <time>2017-11-19T09:03:41Z</time>
      </trkpt>
      <trkpt lat="48.64792" lon="1.75605">
        <ele>176</ele>
        <time>2017-11-19T09:03:49Z</time>
      </trkpt>
      <trkpt lat="48.648" lon="1.75613">
        <ele>176</ele>
        <time>2017-11-19T09:03:59Z</time>
      </trkpt>
      <trkpt lat="48.64808" lon="1.75621">
        <ele>176</ele>
        <time>2017-11-19T09:04:07Z</time>
      </trkpt>
      <trkpt lat="48.64817" lon="1.75629">
        <ele>176</ele>
        <time>2017-11-19T09:04:15Z</time>
      </trkpt>
      <trkpt lat="48.64826" lon="1.75635">
        <ele>176</ele>
        <time>2017-11-19T09:04:25Z</time>
      </trkpt>
      <trkpt lat="48.64834" lon="1.75639">
        <ele>176</ele>
        <time>2017-11-19T09:04:36Z</time>
      </trkpt>
      <trkpt lat="48.64843" lon="1.75646">
        <ele>176</ele>
        <time>2017-11-19T09:04:48Z</time>
      </trkpt>
      <trkpt lat="48.6485" lon="1.75655">
        <ele>177</ele>
        <time>2017-11-19T09:04:57Z</time>
      </trkpt>
      <trkpt lat="48.64858" lon="1.75664">
        <ele>177</ele>
        <time>2017-11-19T09:05:04Z</time>
      </trkpt>
      <trkpt lat="48.64865" lon="1.75673">
        <ele>176</ele>
        <time>2017-11-19T09:05:10Z</time>
      </trkpt>
      <trkpt lat="48.64872" lon="1.75684">
        <ele>176</ele>
        <time>2017-11-19T09:05:20Z</time>
      </trkpt>
      <trkpt lat="48.64877" lon="1.75694">
        <ele>176</ele>
        <time>2017-11-19T09:05:26Z</time>
      </trkpt>
      <trkpt lat="48.64886" lon="1.757">
        <ele>176</ele>
        <time>2017-11-19T09:05:34Z</time>
      </trkpt>
      <trkpt lat="48.64894" lon="1.75707">
        <ele>176</ele>
        <time>2017-11-19T09:05:44Z</time>
      </trkpt>
      <trkpt lat="48.64902" lon="1.75716">
        <ele>176</ele>
        <time>2017-11-19T09:05:53Z</time>
      </trkpt>
      <trkpt lat="48.64909" lon="1.75725">
        <ele>176</ele>
        <time>2017-11-19T09:06:03Z</time>
      </trkpt>
      <trkpt lat="48.64915" lon="1.75733">
        <ele>176</ele>
        <time>2017-11-19T09:06:14Z</time>
      </trkpt>
      <trkpt lat="48.64918" lon="1.75741">
        <ele>175</ele>
        <time>2017-11-19T09:06:29Z</time>
      </trkpt>
      <trkpt lat="48.64928" lon="1.7575">
        <ele>175</ele>
        <time>2017-11-19T09:06:41Z</time>
      </trkpt>
      <trkpt lat="48.64937" lon="1.7576">
        <ele>175</ele>
        <time>2017-11-19T09:06:51Z</time>
      </trkpt>
      <trkpt lat="48.64948" lon="1.75768">
        <ele>175</ele>
        <time>2017-11-19T09:07:02Z</time>
      </trkpt>
      <trkpt lat="48.64963" lon="1.75784">
        <ele>175</ele>
        <time>2017-11-19T09:07:21Z</time>
      </trkpt>
      <trkpt lat="48.64972" lon="1.75792">
        <ele>175</ele>
        <time>2017-11-19T09:07:32Z</time>
      </trkpt>
      <trkpt lat="48.64985" lon="1.75802">
        <ele>175</ele>
        <time>2017-11-19T09:07:52Z</time>
      </trkpt>
      <trkpt lat="48.64999" lon="1.75812">
        <ele>175</ele>
        <time>2017-11-19T09:08:04Z</time>
      </trkpt>
      <trkpt lat="48.65016" lon="1.75824">
        <ele>175</ele>
        <time>2017-11-19T09:08:12Z</time>
      </trkpt>
      <trkpt lat="48.65008" lon="1.75804">
        <ele>176</ele>
        <time>2017-11-19T09:08:22Z</time>
      </trkpt>
      <trkpt lat="48.65002" lon="1.75791">
        <ele>176</ele>
        <time>2017-11-19T09:08:32Z</time>
      </trkpt>
      <trkpt lat="48.64996" lon="1.75772">
        <ele>176</ele>
        <time>2017-11-19T09:08:45Z</time>
      </trkpt>
      <trkpt lat="48.64992" lon="1.7576">
        <ele>177</ele>
        <time>2017-11-19T09:08:59Z</time>
      </trkpt>
      <trkpt lat="48.64989" lon="1.75747">
        <ele>177</ele>
        <time>2017-11-19T09:09:09Z</time>
      </trkpt>
      <trkpt lat="48.64984" lon="1.75735">
        <ele>177</ele>
        <time>2017-11-19T09:09:20Z</time>
      </trkpt>
      <trkpt lat="48.64978" lon="1.75723">
        <ele>177</ele>
        <time>2017-11-19T09:09:29Z</time>
      </trkpt>
      <trkpt lat="48.64974" lon="1.7571">
        <ele>177</ele>
        <time>2017-11-19T09:09:39Z</time>
      </trkpt>
      <trkpt lat="48.64971" lon="1.75697">
        <ele>178</ele>
        <time>2017-11-19T09:09:50Z</time>
      </trkpt>
      <trkpt lat="48.64966" lon="1.75685">
        <ele>178</ele>
        <time>2017-11-19T09:10:02Z</time>
      </trkpt>
      <trkpt lat="48.64961" lon="1.75671">
        <ele>178</ele>
        <time>2017-11-19T09:10:14Z</time>
      </trkpt>
      <trkpt lat="48.64956" lon="1.75659">
        <ele>179</ele>
        <time>2017-11-19T09:10:29Z</time>
      </trkpt>
      <trkpt lat="48.64952" lon="1.7565">
        <ele>179</ele>
        <time>2017-11-19T09:10:38Z</time>
      </trkpt>
      <trkpt lat="48.64951" lon="1.75636">
        <ele>179</ele>
        <time>2017-11-19T09:10:52Z</time>
      </trkpt>
      <trkpt lat="48.64956" lon="1.75624">
        <ele>179</ele>
        <time>2017-11-19T09:11:07Z</time>
      </trkpt>
      <trkpt lat="48.64961" lon="1.75613">
        <ele>179</ele>
        <time>2017-11-19T09:11:21Z</time>
      </trkpt>
      <trkpt lat="48.64968" lon="1.75602">
        <ele>179</ele>
        <time>2017-11-19T09:11:33Z</time>
      </trkpt>
      <trkpt lat="48.64973" lon="1.7559">
        <ele>179</ele>
        <time>2017-11-19T09:11:41Z</time>
      </trkpt>
      <trkpt lat="48.64979" lon="1.75578">
        <ele>179</ele>
        <time>2017-11-19T09:11:51Z</time>
      </trkpt>
      <trkpt lat="48.64984" lon="1.75566">
        <ele>180</ele>
        <time>2017-11-19T09:12:01Z</time>
      </trkpt>
      <trkpt lat="48.6499" lon="1.75556">
        <ele>180</ele>
        <time>2017-11-19T09:12:09Z</time>
      </trkpt>
      <trkpt lat="48.64994" lon="1.75544">
        <ele>179</ele>
        <time>2017-11-19T09:12:18Z</time>
      </trkpt>
      <trkpt lat="48.64999" lon="1.7553">
        <ele>179</ele>
        <time>2017-11-19T09:12:30Z</time>
      </trkpt>
      <trkpt lat="48.65006" lon="1.7552">
        <ele>179</ele>
        <time>2017-11-19T09:12:37Z</time>
      </trkpt>
      <trkpt lat="48.65013" lon="1.75509">
        <ele>179</ele>
        <time>2017-11-19T09:12:47Z</time>
      </trkpt>
      <trkpt lat="48.65018" lon="1.75497">
        <ele>179</ele>
        <time>2017-11-19T09:12:58Z</time>
      </trkpt>
      <trkpt lat="48.65022" lon="1.75484">
        <ele>178</ele>
        <time>2017-11-19T09:13:07Z</time>
      </trkpt>
      <trkpt lat="48.65028" lon="1.75474">
        <ele>178</ele>
        <time>2017-11-19T09:13:16Z</time>
      </trkpt>
      <trkpt lat="48.65033" lon="1.75463">
        <ele>178</ele>
        <time>2017-11-19T09:13:28Z</time>
      </trkpt>
      <trkpt lat="48.65039" lon="1.75451">
        <ele>177</ele>
        <time>2017-11-19T09:13:35Z</time>
      </trkpt>
      <trkpt lat="48.65044" lon="1.75438">
        <ele>177</ele>
        <time>2017-11-19T09:13:47Z</time>
      </trkpt>
      <trkpt lat="48.65049" lon="1.75425">
        <ele>177</ele>
        <time>2017-11-19T09:13:56Z</time>
      </trkpt>
      <trkpt lat="48.65056" lon="1.75414">
        <ele>176</ele>
        <time>2017-11-19T09:14:06Z</time>
      </trkpt>
      <trkpt lat="48.65063" lon="1.75406">
        <ele>176</ele>
        <time>2017-11-19T09:14:15Z</time>
      </trkpt>
      <trkpt lat="48.65068" lon="1.75394">
        <ele>176</ele>
        <time>2017-11-19T09:14:26Z</time>
      </trkpt>
      <trkpt lat="48.65076" lon="1.75386">
        <ele>176</ele>
        <time>2017-11-19T09:14:34Z</time>
      </trkpt>
      <trkpt lat="48.65082" lon="1.75374">
        <ele>176</ele>
        <time>2017-11-19T09:14:46Z</time>
      </trkpt>
      <trkpt lat="48.65087" lon="1.75363">
        <ele>175</ele>
        <time>2017-11-19T09:14:55Z</time>
      </trkpt>
      <trkpt lat="48.65092" lon="1.7535">
        <ele>175</ele>
        <time>2017-11-19T09:15:04Z</time>
      </trkpt>
      <trkpt lat="48.65099" lon="1.75341">
        <ele>175</ele>
        <time>2017-11-19T09:15:13Z</time>
      </trkpt>
      <trkpt lat="48.65104" lon="1.75329">
        <ele>175</ele>
        <time>2017-11-19T09:15:23Z</time>
      </trkpt>
      <trkpt lat="48.65111" lon="1.75318">
        <ele>175</ele>
        <time>2017-11-19T09:15:31Z</time>
      </trkpt>
      <trkpt lat="48.65118" lon="1.75305">
        <ele>174</ele>
        <time>2017-11-19T09:15:43Z</time>
      </trkpt>
      <trkpt lat="48.65124" lon="1.75295">
        <ele>174</ele>
        <time>2017-11-19T09:15:52Z</time>
      </trkpt>
      <trkpt lat="48.65129" lon="1.75283">
        <ele>174</ele>
        <time>2017-11-19T09:16:00Z</time>
      </trkpt>
      <trkpt lat="48.65139" lon="1.75277">
        <ele>174</ele>
        <time>2017-11-19T09:16:11Z</time>
      </trkpt>
      <trkpt lat="48.65145" lon="1.75264">
        <ele>174</ele>
        <time>2017-11-19T09:16:27Z</time>
      </trkpt>
      <trkpt lat="48.65149" lon="1.75251">
        <ele>173</ele>
        <time>2017-11-19T09:16:37Z</time>
      </trkpt>
      <trkpt lat="48.65153" lon="1.75237">
        <ele>173</ele>
        <time>2017-11-19T09:16:46Z</time>
      </trkpt>
      <trkpt lat="48.6516" lon="1.75226">
        <ele>173</ele>
        <time>2017-11-19T09:16:58Z</time>
      </trkpt>
      <trkpt lat="48.65166" lon="1.75216">
        <ele>173</ele>
        <time>2017-11-19T09:17:12Z</time>
      </trkpt>
      <trkpt lat="48.65172" lon="1.75204">
        <ele>173</ele>
        <time>2017-11-19T09:17:19Z</time>
      </trkpt>
      <trkpt lat="48.65177" lon="1.75192">
        <ele>173</ele>
        <time>2017-11-19T09:17:29Z</time>
      </trkpt>
      <trkpt lat="48.65184" lon="1.75182">
        <ele>173</ele>
        <time>2017-11-19T09:17:39Z</time>
      </trkpt>
      <trkpt lat="48.6519" lon="1.75171">
        <ele>173</ele>
        <time>2017-11-19T09:17:48Z</time>
      </trkpt>
      <trkpt lat="48.65196" lon="1.7516">
        <ele>173</ele>
        <time>2017-11-19T09:17:58Z</time>
      </trkpt>
      <trkpt lat="48.65203" lon="1.75151">
        <ele>174</ele>
        <time>2017-11-19T09:18:07Z</time>
      </trkpt>
      <trkpt lat="48.65208" lon="1.75139">
        <ele>174</ele>
        <time>2017-11-19T09:18:17Z</time>
      </trkpt>
      <trkpt lat="48.65215" lon="1.75129">
        <ele>174</ele>
        <time>2017-11-19T09:18:27Z</time>
      </trkpt>
      <trkpt lat="48.65221" lon="1.75118">
        <ele>174</ele>
        <time>2017-11-19T09:18:38Z</time>
      </trkpt>
      <trkpt lat="48.65226" lon="1.75106">
        <ele>174</ele>
        <time>2017-11-19T09:18:46Z</time>
      </trkpt>
      <trkpt lat="48.65233" lon="1.75097">
        <ele>175</ele>
        <time>2017-11-19T09:18:52Z</time>
      </trkpt>
      <trkpt lat="48.65239" lon="1.75086">
        <ele>175</ele>
        <time>2017-11-19T09:19:01Z</time>
      </trkpt>
      <trkpt lat="48.65245" lon="1.75075">
        <ele>175</ele>
        <time>2017-11-19T09:19:11Z</time>
      </trkpt>
      <trkpt lat="48.6525" lon="1.75063">
        <ele>175</ele>
        <time>2017-11-19T09:19:21Z</time>
      </trkpt>
      <trkpt lat="48.65257" lon="1.75052">
        <ele>175</ele>
        <time>2017-11-19T09:19:29Z</time>
      </trkpt>
      <trkpt lat="48.65262" lon="1.75039">
        <ele>175</ele>
        <time>2017-11-19T09:19:40Z</time>
      </trkpt>
      <trkpt lat="48.65267" lon="1.75027">
        <ele>175</ele>
        <time>2017-11-19T09:20:06Z</time>
      </trkpt>
      <trkpt lat="48.65272" lon="1.75015">
        <ele>175</ele>
        <time>2017-11-19T09:20:18Z</time>
      </trkpt>
      <trkpt lat="48.6528" lon="1.75007">
        <ele>175</ele>
        <time>2017-11-19T09:20:28Z</time>
      </trkpt>
      <trkpt lat="48.65282" lon="1.74992">
        <ele>175</ele>
        <time>2017-11-19T09:20:39Z</time>
      </trkpt>
      <trkpt lat="48.65288" lon="1.74981">
        <ele>175</ele>
        <time>2017-11-19T09:20:48Z</time>
      </trkpt>
      <trkpt lat="48.65296" lon="1.74973">
        <ele>175</ele>
        <time>2017-11-19T09:21:01Z</time>
      </trkpt>
      <trkpt lat="48.65305" lon="1.74968">
        <ele>175</ele>
        <time>2017-11-19T09:21:44Z</time>
      </trkpt>
      <trkpt lat="48.65309" lon="1.74955">
        <ele>175</ele>
        <time>2017-11-19T09:22:18Z</time>
      </trkpt>
      <trkpt lat="48.65314" lon="1.74941">
        <ele>175</ele>
        <time>2017-11-19T09:22:35Z</time>
      </trkpt>
      <trkpt lat="48.65319" lon="1.7493">
        <ele>175</ele>
        <time>2017-11-19T09:22:47Z</time>
      </trkpt>
      <trkpt lat="48.65325" lon="1.74919">
        <ele>175</ele>
        <time>2017-11-19T09:22:56Z</time>
      </trkpt>
      <trkpt lat="48.6533" lon="1.74906">
        <ele>175</ele>
        <time>2017-11-19T09:23:08Z</time>
      </trkpt>
      <trkpt lat="48.65337" lon="1.74895">
        <ele>175</ele>
        <time>2017-11-19T09:23:20Z</time>
      </trkpt>
      <trkpt lat="48.65344" lon="1.74884">
        <ele>175</ele>
        <time>2017-11-19T09:23:33Z</time>
      </trkpt>
      <trkpt lat="48.6535" lon="1.74874">
        <ele>175</ele>
        <time>2017-11-19T09:23:41Z</time>
      </trkpt>
      <trkpt lat="48.65355" lon="1.74861">
        <ele>175</ele>
        <time>2017-11-19T09:23:53Z</time>
      </trkpt>
      <trkpt lat="48.65361" lon="1.7485">
        <ele>175</ele>
        <time>2017-11-19T09:24:02Z</time>
      </trkpt>
      <trkpt lat="48.65368" lon="1.74839">
        <ele>175</ele>
        <time>2017-11-19T09:24:11Z</time>
      </trkpt>
      <trkpt lat="48.65374" lon="1.74829">
        <ele>175</ele>
        <time>2017-11-19T09:24:22Z</time>
      </trkpt>
      <trkpt lat="48.65379" lon="1.74815">
        <ele>175</ele>
        <time>2017-11-19T09:24:32Z</time>
      </trkpt>
      <trkpt lat="48.65384" lon="1.74802">
        <ele>175</ele>
        <time>2017-11-19T09:24:41Z</time>
      </trkpt>
      <trkpt lat="48.65389" lon="1.7479">
        <ele>174</ele>
        <time>2017-11-19T09:24:51Z</time>
      </trkpt>
      <trkpt lat="48.65396" lon="1.74779">
        <ele>174</ele>
        <time>2017-11-19T09:24:59Z</time>
      </trkpt>
      <trkpt lat="48.65403" lon="1.74769">
        <ele>174</ele>
        <time>2017-11-19T09:25:05Z</time>
      </trkpt>
      <trkpt lat="48.65409" lon="1.74758">
        <ele>174</ele>
        <time>2017-11-19T09:25:13Z</time>
      </trkpt>
      <trkpt lat="48.65417" lon="1.7475">
        <ele>174</ele>
        <time>2017-11-19T09:25:21Z</time>
      </trkpt>
      <trkpt lat="48.65424" lon="1.74741">
        <ele>174</ele>
        <time>2017-11-19T09:25:31Z</time>
      </trkpt>
      <trkpt lat="48.65428" lon="1.74729">
        <ele>174</ele>
        <time>2017-11-19T09:25:43Z</time>
      </trkpt>
      <trkpt lat="48.65434" lon="1.74718">
        <ele>175</ele>
        <time>2017-11-19T09:25:53Z</time>
      </trkpt>
      <trkpt lat="48.65441" lon="1.74707">
        <ele>175</ele>
        <time>2017-11-19T09:26:01Z</time>
      </trkpt>
      <trkpt lat="48.65447" lon="1.74697">
        <ele>175</ele>
        <time>2017-11-19T09:26:10Z</time>
      </trkpt>
      <trkpt lat="48.65453" lon="1.74684">
        <ele>175</ele>
        <time>2017-11-19T09:26:19Z</time>
      </trkpt>
      <trkpt lat="48.65457" lon="1.74672">
        <ele>175</ele>
        <time>2017-11-19T09:26:28Z</time>
      </trkpt>
      <trkpt lat="48.65463" lon="1.74661">
        <ele>175</ele>
        <time>2017-11-19T09:26:37Z</time>
      </trkpt>
      <trkpt lat="48.65468" lon="1.74649">
        <ele>175</ele>
        <time>2017-11-19T09:26:47Z</time>
      </trkpt>
      <trkpt lat="48.65473" lon="1.74637">
        <ele>175</ele>
        <time>2017-11-19T09:26:56Z</time>
      </trkpt>
      <trkpt lat="48.65479" lon="1.74625">
        <ele>175</ele>
        <time>2017-11-19T09:27:05Z</time>
      </trkpt>
      <trkpt lat="48.65486" lon="1.74615">
        <ele>175</ele>
        <time>2017-11-19T09:27:13Z</time>
      </trkpt>
      <trkpt lat="48.65493" lon="1.74604">
        <ele>174</ele>
        <time>2017-11-19T09:27:23Z</time>
      </trkpt>
      <trkpt lat="48.655" lon="1.74595">
        <ele>174</ele>
        <time>2017-11-19T09:27:37Z</time>
      </trkpt>
      <trkpt lat="48.65507" lon="1.74585">
        <ele>174</ele>
        <time>2017-11-19T09:27:55Z</time>
      </trkpt>
      <trkpt lat="48.65504" lon="1.74598">
        <ele>174</ele>
        <time>2017-11-19T09:28:19Z</time>
      </trkpt>
      <trkpt lat="48.65512" lon="1.74605">
        <ele>174</ele>
        <time>2017-11-19T09:28:51Z</time>
      </trkpt>
      <trkpt lat="48.65518" lon="1.74616">
        <ele>175</ele>
        <time>2017-11-19T09:29:12Z</time>
      </trkpt>
      <trkpt lat="48.65522" lon="1.74629">
        <ele>175</ele>
        <time>2017-11-19T09:29:24Z</time>
      </trkpt>
      <trkpt lat="48.65529" lon="1.74637">
        <ele>175</ele>
        <time>2017-11-19T09:29:36Z</time>
      </trkpt>
      <trkpt lat="48.65535" lon="1.74648">
        <ele>175</ele>
        <time>2017-11-19T09:29:47Z</time>
      </trkpt>
      <trkpt lat="48.65542" lon="1.7466">
        <ele>176</ele>
        <time>2017-11-19T09:29:58Z</time>
      </trkpt>
      <trkpt lat="48.65546" lon="1.74672">
        <ele>176</ele>
        <time>2017-11-19T09:30:11Z</time>
      </trkpt>
      <trkpt lat="48.65553" lon="1.74682">
        <ele>176</ele>
        <time>2017-11-19T09:30:15Z</time>
      </trkpt>
      <trkpt lat="48.65562" lon="1.74691">
        <ele>176</ele>
        <time>2017-11-19T09:30:23Z</time>
      </trkpt>
      <trkpt lat="48.65568" lon="1.74701">
        <ele>176</ele>
        <time>2017-11-19T09:30:33Z</time>
      </trkpt>
      <trkpt lat="48.65574" lon="1.74713">
        <ele>176</ele>
        <time>2017-11-19T09:30:43Z</time>
      </trkpt>
      <trkpt lat="48.65583" lon="1.74724">
        <ele>176</ele>
        <time>2017-11-19T09:30:55Z</time>
      </trkpt>
      <trkpt lat="48.65586" lon="1.74737">
        <ele>176</ele>
        <time>2017-11-19T09:31:08Z</time>
      </trkpt>
      <trkpt lat="48.65592" lon="1.74724">
        <ele>176</ele>
        <time>2017-11-19T09:31:44Z</time>
      </trkpt>
      <trkpt lat="48.65601" lon="1.74729">
        <ele>176</ele>
        <time>2017-11-19T09:32:06Z</time>
      </trkpt>
      <trkpt lat="48.65608" lon="1.74721">
        <ele>176</ele>
        <time>2017-11-19T09:32:11Z</time>
      </trkpt>
      <trkpt lat="48.65617" lon="1.74719">
        <ele>176</ele>
        <time>2017-11-19T09:32:22Z</time>
      </trkpt>
      <trkpt lat="48.65609" lon="1.74712">
        <ele>176</ele>
        <time>2017-11-19T09:34:46Z</time>
      </trkpt>
      <trkpt lat="48.65602" lon="1.74722">
        <ele>176</ele>
        <time>2017-11-19T09:35:11Z</time>
      </trkpt>
      <trkpt lat="48.65593" lon="1.74732">
        <ele>176</ele>
        <time>2017-11-19T09:35:24Z</time>
      </trkpt>
      <trkpt lat="48.6559" lon="1.74744">
        <ele>176</ele>
        <time>2017-11-19T09:35:36Z</time>
      </trkpt>
      <trkpt lat="48.65592" lon="1.74758">
        <ele>176</ele>
        <time>2017-11-19T09:35:52Z</time>
      </trkpt>
      <trkpt lat="48.65597" lon="1.74769">
        <ele>176</ele>
        <time>2017-11-19T09:36:08Z</time>
      </trkpt>
      <trkpt lat="48.65604" lon="1.74778">
        <ele>176</ele>
        <time>2017-11-19T09:36:18Z</time>
      </trkpt>
      <trkpt lat="48.6561" lon="1.7479">
        <ele>176</ele>
        <time>2017-11-19T09:36:29Z</time>
      </trkpt>
      <trkpt lat="48.65617" lon="1.74799">
        <ele>176</ele>
        <time>2017-11-19T09:36:40Z</time>
      </trkpt>
      <trkpt lat="48.65624" lon="1.74808">
        <ele>176</ele>
        <time>2017-11-19T09:36:52Z</time>
      </trkpt>
      <trkpt lat="48.65631" lon="1.74817">
        <ele>176</ele>
        <time>2017-11-19T09:37:01Z</time>
      </trkpt>
      <trkpt lat="48.65639" lon="1.74827">
        <ele>176</ele>
        <time>2017-11-19T09:37:14Z</time>
      </trkpt>
      <trkpt lat="48.65644" lon="1.74838">
        <ele>176</ele>
        <time>2017-11-19T09:37:27Z</time>
      </trkpt>
      <trkpt lat="48.6565" lon="1.74848">
        <ele>177</ele>
        <time>2017-11-19T09:37:45Z</time>
      </trkpt>
      <trkpt lat="48.65657" lon="1.74858">
        <ele>177</ele>
        <time>2017-11-19T09:37:56Z</time>
      </trkpt>
      <trkpt lat="48.65664" lon="1.74868">
        <ele>177</ele>
        <time>2017-11-19T09:38:05Z</time>
      </trkpt>
      <trkpt lat="48.6567" lon="1.74879">
        <ele>177</ele>
        <time>2017-11-19T09:38:14Z</time>
      </trkpt>
      <trkpt lat="48.65677" lon="1.74889">
        <ele>177</ele>
        <time>2017-11-19T09:38:25Z</time>
      </trkpt>
      <trkpt lat="48.65683" lon="1.749">
        <ele>177</ele>
        <time>2017-11-19T09:38:34Z</time>
      </trkpt>
      <trkpt lat="48.65689" lon="1.7491">
        <ele>177</ele>
        <time>2017-11-19T09:38:44Z</time>
      </trkpt>
      <trkpt lat="48.65695" lon="1.7492">
        <ele>177</ele>
        <time>2017-11-19T09:38:54Z</time>
      </trkpt>
      <trkpt lat="48.65703" lon="1.74928">
        <ele>177</ele>
        <time>2017-11-19T09:39:02Z</time>
      </trkpt>
      <trkpt lat="48.65709" lon="1.74938">
        <ele>177</ele>
        <time>2017-11-19T09:39:12Z</time>
      </trkpt>
      <trkpt lat="48.65716" lon="1.74948">
        <ele>177</ele>
        <time>2017-11-19T09:39:23Z</time>
      </trkpt>
      <trkpt lat="48.65723" lon="1.74958">
        <ele>177</ele>
        <time>2017-11-19T09:39:33Z</time>
      </trkpt>
      <trkpt lat="48.65727" lon="1.74971">
        <ele>177</ele>
        <time>2017-11-19T09:39:43Z</time>
      </trkpt>
      <trkpt lat="48.65735" lon="1.7498">
        <ele>177</ele>
        <time>2017-11-19T09:39:54Z</time>
      </trkpt>
      <trkpt lat="48.65741" lon="1.7499">
        <ele>177</ele>
        <time>2017-11-19T09:40:06Z</time>
      </trkpt>
      <trkpt lat="48.65747" lon="1.75">
        <ele>177</ele>
        <time>2017-11-19T09:40:15Z</time>
      </trkpt>
      <trkpt lat="48.65754" lon="1.75011">
        <ele>177</ele>
        <time>2017-11-19T09:40:25Z</time>
      </trkpt>
      <trkpt lat="48.6576" lon="1.75021">
        <ele>177</ele>
        <time>2017-11-19T09:40:36Z</time>
      </trkpt>
      <trkpt lat="48.65766" lon="1.75034">
        <ele>177</ele>
        <time>2017-11-19T09:40:48Z</time>
      </trkpt>
      <trkpt lat="48.6577" lon="1.75046">
        <ele>177</ele>
        <time>2017-11-19T09:40:57Z</time>
      </trkpt>
      <trkpt lat="48.65775" lon="1.75058">
        <ele>177</ele>
        <time>2017-11-19T09:41:07Z</time>
      </trkpt>
      <trkpt lat="48.65782" lon="1.75068">
        <ele>178</ele>
        <time>2017-11-19T09:41:18Z</time>
      </trkpt>
      <trkpt lat="48.6579" lon="1.75076">
        <ele>178</ele>
        <time>2017-11-19T09:41:27Z</time>
      </trkpt>
      <trkpt lat="48.65798" lon="1.75083">
        <ele>178</ele>
        <time>2017-11-19T09:41:40Z</time>
      </trkpt>
      <trkpt lat="48.65804" lon="1.75094">
        <ele>178</ele>
        <time>2017-11-19T09:41:54Z</time>
      </trkpt>
      <trkpt lat="48.65808" lon="1.75106">
        <ele>179</ele>
        <time>2017-11-19T09:42:12Z</time>
      </trkpt>
      <trkpt lat="48.65814" lon="1.75117">
        <ele>179</ele>
        <time>2017-11-19T09:43:09Z</time>
      </trkpt>
      <trkpt lat="48.65819" lon="1.75129">
        <ele>179</ele>
        <time>2017-11-19T09:43:22Z</time>
      </trkpt>
      <trkpt lat="48.65828" lon="1.75136">
        <ele>179</ele>
        <time>2017-11-19T09:43:35Z</time>
      </trkpt>
      <trkpt lat="48.65829" lon="1.7515">
        <ele>179</ele>
        <time>2017-11-19T09:44:07Z</time>
      </trkpt>
      <trkpt lat="48.65837" lon="1.75159">
        <ele>179</ele>
        <time>2017-11-19T09:44:41Z</time>
      </trkpt>
      <trkpt lat="48.65844" lon="1.75167">
        <ele>179</ele>
        <time>2017-11-19T09:44:56Z</time>
      </trkpt>
      <trkpt lat="48.65851" lon="1.75177">
        <ele>179</ele>
        <time>2017-11-19T09:45:09Z</time>
      </trkpt>
      <trkpt lat="48.65858" lon="1.75185">
        <ele>178</ele>
        <time>2017-11-19T09:45:22Z</time>
      </trkpt>
      <trkpt lat="48.65863" lon="1.75197">
        <ele>178</ele>
        <time>2017-11-19T09:45:34Z</time>
      </trkpt>
      <trkpt lat="48.65873" lon="1.75203">
        <ele>178</ele>
        <time>2017-11-19T09:45:48Z</time>
      </trkpt>
      <trkpt lat="48.6588" lon="1.75211">
        <ele>177</ele>
        <time>2017-11-19T09:45:58Z</time>
      </trkpt>
      <trkpt lat="48.65888" lon="1.75219">
        <ele>177</ele>
        <time>2017-11-19T09:46:09Z</time>
      </trkpt>
      <trkpt lat="48.65894" lon="1.7523">
        <ele>176</ele>
        <time>2017-11-19T09:46:18Z</time>
      </trkpt>
      <trkpt lat="48.65901" lon="1.75241">
        <ele>176</ele>
        <time>2017-11-19T09:46:28Z</time>
      </trkpt>
      <trkpt lat="48.65906" lon="1.75253">
        <ele>176</ele>
        <time>2017-11-19T09:46:37Z</time>
      </trkpt>
      <trkpt lat="48.65912" lon="1.75264">
        <ele>175</ele>
        <time>2017-11-19T09:46:48Z</time>
      </trkpt>
      <trkpt lat="48.65919" lon="1.75273">
        <ele>175</ele>
        <time>2017-11-19T09:47:01Z</time>
      </trkpt>
      <trkpt lat="48.65926" lon="1.75284">
        <ele>175</ele>
        <time>2017-11-19T09:47:11Z</time>
      </trkpt>
      <trkpt lat="48.65933" lon="1.75293">
        <ele>175</ele>
        <time>2017-11-19T09:47:21Z</time>
      </trkpt>
      <trkpt lat="48.65938" lon="1.75306">
        <ele>175</ele>
        <time>2017-11-19T09:47:35Z</time>
      </trkpt>
      <trkpt lat="48.65946" lon="1.75312">
        <ele>175</ele>
        <time>2017-11-19T09:48:54Z</time>
      </trkpt>
      <trkpt lat="48.65951" lon="1.75324">
        <ele>175</ele>
        <time>2017-11-19T09:49:23Z</time>
      </trkpt>
      <trkpt lat="48.65957" lon="1.75335">
        <ele>175</ele>
        <time>2017-11-19T09:49:37Z</time>
      </trkpt>
      <trkpt lat="48.65964" lon="1.75344">
        <ele>175</ele>
        <time>2017-11-19T09:49:46Z</time>
      </trkpt>
      <trkpt lat="48.6597" lon="1.75355">
        <ele>175</ele>
        <time>2017-11-19T09:49:57Z</time>
      </trkpt>
      <trkpt lat="48.65977" lon="1.75365">
        <ele>175</ele>
        <time>2017-11-19T09:50:08Z</time>
      </trkpt>
      <trkpt lat="48.65982" lon="1.75377">
        <ele>175</ele>
        <time>2017-11-19T09:50:18Z</time>
      </trkpt>
      <trkpt lat="48.65989" lon="1.75387">
        <ele>175</ele>
        <time>2017-11-19T09:50:28Z</time>
      </trkpt>
      <trkpt lat="48.65994" lon="1.75398">
        <ele>176</ele>
        <time>2017-11-19T09:50:38Z</time>
      </trkpt>
      <trkpt lat="48.66002" lon="1.75407">
        <ele>176</ele>
        <time>2017-11-19T09:50:47Z</time>
      </trkpt>
      <trkpt lat="48.66009" lon="1.75415">
        <ele>176</ele>
        <time>2017-11-19T09:50:57Z</time>
      </trkpt>
      <trkpt lat="48.66015" lon="1.75428">
        <ele>176</ele>
        <time>2017-11-19T09:51:05Z</time>
      </trkpt>
      <trkpt lat="48.66023" lon="1.75435">
        <ele>176</ele>
        <time>2017-11-19T09:51:12Z</time>
      </trkpt>
      <trkpt lat="48.66029" lon="1.75447">
        <ele>177</ele>
        <time>2017-11-19T09:51:21Z</time>
      </trkpt>
      <trkpt lat="48.66033" lon="1.7546">
        <ele>177</ele>
        <time>2017-11-19T09:51:34Z</time>
      </trkpt>
      <trkpt lat="48.66037" lon="1.75473">
        <ele>177</ele>
        <time>2017-11-19T09:51:45Z</time>
      </trkpt>
      <trkpt lat="48.66045" lon="1.75481">
        <ele>177</ele>
        <time>2017-11-19T09:51:55Z</time>
      </trkpt>
      <trkpt lat="48.6605" lon="1.75494">
        <ele>177</ele>
        <time>2017-11-19T09:52:05Z</time>
      </trkpt>
      <trkpt lat="48.66057" lon="1.75502">
        <ele>177</ele>
        <time>2017-11-19T09:52:14Z</time>
      </trkpt>
      <trkpt lat="48.66065" lon="1.7551">
        <ele>177</ele>
        <time>2017-11-19T09:52:22Z</time>
      </trkpt>
      <trkpt lat="48.66071" lon="1.75522">
        <ele>177</ele>
        <time>2017-11-19T09:52:31Z</time>
      </trkpt>
      <trkpt lat="48.66078" lon="1.7553">
        <ele>177</ele>
        <time>2017-11-19T09:52:40Z</time>
      </trkpt>
      <trkpt lat="48.66085" lon="1.75541">
        <ele>177</ele>
        <time>2017-11-19T09:52:48Z</time>
      </trkpt>
      <trkpt lat="48.66092" lon="1.7555">
        <ele>177</ele>
        <time>2017-11-19T09:52:57Z</time>
      </trkpt>
      <trkpt lat="48.661" lon="1.75556">
        <ele>177</ele>
        <time>2017-11-19T09:53:07Z</time>
      </trkpt>
      <trkpt lat="48.66103" lon="1.7557">
        <ele>177</ele>
        <time>2017-11-19T09:53:17Z</time>
      </trkpt>
      <trkpt lat="48.6611" lon="1.7558">
        <ele>177</ele>
        <time>2017-11-19T09:53:26Z</time>
      </trkpt>
      <trkpt lat="48.66114" lon="1.75592">
        <ele>177</ele>
        <time>2017-11-19T09:53:38Z</time>
      </trkpt>
      <trkpt lat="48.66122" lon="1.75602">
        <ele>177</ele>
        <time>2017-11-19T09:53:49Z</time>
      </trkpt>
      <trkpt lat="48.66128" lon="1.75613">
        <ele>178</ele>
        <time>2017-11-19T09:54:13Z</time>
      </trkpt>
      <trkpt lat="48.66134" lon="1.75623">
        <ele>178</ele>
        <time>2017-11-19T09:54:26Z</time>
      </trkpt>
      <trkpt lat="48.6614" lon="1.75635">
        <ele>178</ele>
        <time>2017-11-19T09:54:36Z</time>
      </trkpt>
      <trkpt lat="48.66146" lon="1.75647">
        <ele>178</ele>
        <time>2017-11-19T09:54:47Z</time>
      </trkpt>
      <trkpt lat="48.66152" lon="1.75659">
        <ele>178</ele>
        <time>2017-11-19T09:54:59Z</time>
      </trkpt>
      <trkpt lat="48.6616" lon="1.75665">
        <ele>178</ele>
        <time>2017-11-19T09:55:07Z</time>
      </trkpt>
      <trkpt lat="48.66167" lon="1.75676">
        <ele>178</ele>
        <time>2017-11-19T09:55:19Z</time>
      </trkpt>
      <trkpt lat="48.66173" lon="1.75687">
        <ele>178</ele>
        <time>2017-11-19T09:55:28Z</time>
      </trkpt>
      <trkpt lat="48.6618" lon="1.75697">
        <ele>178</ele>
        <time>2017-11-19T09:55:37Z</time>
      </trkpt>
      <trkpt lat="48.66187" lon="1.75707">
        <ele>178</ele>
        <time>2017-11-19T09:55:45Z</time>
      </trkpt>
      <trkpt lat="48.66194" lon="1.75716">
        <ele>179</ele>
        <time>2017-11-19T09:55:53Z</time>
      </trkpt>
      <trkpt lat="48.66201" lon="1.75725">
        <ele>179</ele>
        <time>2017-11-19T09:56:02Z</time>
      </trkpt>
      <trkpt lat="48.66208" lon="1.75735">
        <ele>179</ele>
        <time>2017-11-19T09:56:10Z</time>
      </trkpt>
      <trkpt lat="48.66213" lon="1.75748">
        <ele>180</ele>
        <time>2017-11-19T09:56:21Z</time>
      </trkpt>
      <trkpt lat="48.66221" lon="1.75759">
        <ele>180</ele>
        <time>2017-11-19T09:56:29Z</time>
      </trkpt>
      <trkpt lat="48.66226" lon="1.7577">
        <ele>180</ele>
        <time>2017-11-19T09:56:38Z</time>
      </trkpt>
      <trkpt lat="48.66233" lon="1.75782">
        <ele>180</ele>
        <time>2017-11-19T09:56:49Z</time>
      </trkpt>
      <trkpt lat="48.6624" lon="1.75791">
        <ele>180</ele>
        <time>2017-11-19T09:56:59Z</time>
      </trkpt>
      <trkpt lat="48.66247" lon="1.75802">
        <ele>180</ele>
        <time>2017-11-19T09:57:10Z</time>
      </trkpt>
      <trkpt lat="48.66253" lon="1.75813">
        <ele>180</ele>
        <time>2017-11-19T09:57:18Z</time>
      </trkpt>
      <trkpt lat="48.66259" lon="1.75825">
        <ele>180</ele>
        <time>2017-11-19T09:57:27Z</time>
      </trkpt>
      <trkpt lat="48.66267" lon="1.75835">
        <ele>180</ele>
        <time>2017-11-19T09:57:37Z</time>
      </trkpt>
      <trkpt lat="48.66274" lon="1.75844">
        <ele>180</ele>
        <time>2017-11-19T09:57:48Z</time>
      </trkpt>
      <trkpt lat="48.66281" lon="1.75854">
        <ele>180</ele>
        <time>2017-11-19T09:57:57Z</time>
      </trkpt>
      <trkpt lat="48.66288" lon="1.75865">
        <ele>180</ele>
        <time>2017-11-19T09:58:06Z</time>
      </trkpt>
      <trkpt lat="48.66291" lon="1.75878">
        <ele>180</ele>
        <time>2017-11-19T09:58:14Z</time>
      </trkpt>
      <trkpt lat="48.66297" lon="1.75889">
        <ele>181</ele>
        <time>2017-11-19T09:58:24Z</time>
      </trkpt>
      <trkpt lat="48.66303" lon="1.759">
        <ele>181</ele>
        <time>2017-11-19T09:58:32Z</time>
      </trkpt>
      <trkpt lat="48.66308" lon="1.75912">
        <ele>182</ele>
        <time>2017-11-19T09:58:41Z</time>
      </trkpt>
      <trkpt lat="48.66311" lon="1.75925">
        <ele>182</ele>
        <time>2017-11-19T09:58:52Z</time>
      </trkpt>
      <trkpt lat="48.66314" lon="1.75938">
        <ele>182</ele>
        <time>2017-11-19T09:59:01Z</time>
      </trkpt>
      <trkpt lat="48.66318" lon="1.75952">
        <ele>182</ele>
        <time>2017-11-19T09:59:08Z</time>
      </trkpt>
      <trkpt lat="48.66322" lon="1.75965">
        <ele>182</ele>
        <time>2017-11-19T09:59:16Z</time>
      </trkpt>
      <trkpt lat="48.66326" lon="1.75979">
        <ele>182</ele>
        <time>2017-11-19T09:59:26Z</time>
      </trkpt>
      <trkpt lat="48.66328" lon="1.75993">
        <ele>182</ele>
        <time>2017-11-19T09:59:34Z</time>
      </trkpt>
      <trkpt lat="48.66331" lon="1.76006">
        <ele>182</ele>
        <time>2017-11-19T09:59:43Z</time>
      </trkpt>
      <trkpt lat="48.66336" lon="1.76019">
        <ele>181</ele>
        <time>2017-11-19T09:59:55Z</time>
      </trkpt>
      <trkpt lat="48.66341" lon="1.76031">
        <ele>181</ele>
        <time>2017-11-19T10:00:06Z</time>
      </trkpt>
      <trkpt lat="48.66344" lon="1.76044">
        <ele>180</ele>
        <time>2017-11-19T10:00:16Z</time>
      </trkpt>
      <trkpt lat="48.6635" lon="1.76055">
        <ele>180</ele>
        <time>2017-11-19T10:00:26Z</time>
      </trkpt>
      <trkpt lat="48.66355" lon="1.76068">
        <ele>179</ele>
        <time>2017-11-19T10:00:36Z</time>
      </trkpt>
      <trkpt lat="48.66357" lon="1.76082">
        <ele>179</ele>
        <time>2017-11-19T10:00:45Z</time>
      </trkpt>
      <trkpt lat="48.66361" lon="1.76094">
        <ele>179</ele>
        <time>2017-11-19T10:00:58Z</time>
      </trkpt>
      <trkpt lat="48.6637" lon="1.76094">
        <ele>178</ele>
        <time>2017-11-19T10:02:05Z</time>
      </trkpt>
      <trkpt lat="48.66379" lon="1.7609">
        <ele>178</ele>
        <time>2017-11-19T10:02:39Z</time>
      </trkpt>
      <trkpt lat="48.66388" lon="1.76095">
        <ele>178</ele>
        <time>2017-11-19T10:02:54Z</time>
      </trkpt>
      <trkpt lat="48.66383" lon="1.76107">
        <ele>178</ele>
        <time>2017-11-19T10:03:23Z</time>
      </trkpt>
      <trkpt lat="48.66379" lon="1.7612">
        <ele>178</ele>
        <time>2017-11-19T10:03:44Z</time>
      </trkpt>
      <trkpt lat="48.66383" lon="1.76134">
        <ele>178</ele>
        <time>2017-11-19T10:03:55Z</time>
      </trkpt>
      <trkpt lat="48.66387" lon="1.76146">
        <ele>178</ele>
        <time>2017-11-19T10:04:06Z</time>
      </trkpt>
      <trkpt lat="48.66392" lon="1.76159">
        <ele>178</ele>
        <time>2017-11-19T10:04:19Z</time>
      </trkpt>
      <trkpt lat="48.66396" lon="1.76171">
        <ele>179</ele>
        <time>2017-11-19T10:04:29Z</time>
      </trkpt>
      <trkpt lat="48.66401" lon="1.76184">
        <ele>179</ele>
        <time>2017-11-19T10:04:40Z</time>
      </trkpt>
      <trkpt lat="48.66406" lon="1.76196">
        <ele>179</ele>
        <time>2017-11-19T10:04:48Z</time>
      </trkpt>
      <trkpt lat="48.66411" lon="1.76209">
        <ele>179</ele>
        <time>2017-11-19T10:04:58Z</time>
      </trkpt>
      <trkpt lat="48.66416" lon="1.76221">
        <ele>179</ele>
        <time>2017-11-19T10:05:07Z</time>
      </trkpt>
      <trkpt lat="48.66422" lon="1.76232">
        <ele>179</ele>
        <time>2017-11-19T10:05:17Z</time>
      </trkpt>
      <trkpt lat="48.66427" lon="1.76245">
        <ele>179</ele>
        <time>2017-11-19T10:05:28Z</time>
      </trkpt>
      <trkpt lat="48.66431" lon="1.76257">
        <ele>179</ele>
        <time>2017-11-19T10:05:50Z</time>
      </trkpt>
      <trkpt lat="48.66436" lon="1.76269">
        <ele>179</ele>
        <time>2017-11-19T10:06:02Z</time>
      </trkpt>
      <trkpt lat="48.66442" lon="1.76281">
        <ele>179</ele>
        <time>2017-11-19T10:06:13Z</time>
      </trkpt>
      <trkpt lat="48.66446" lon="1.76294">
        <ele>179</ele>
        <time>2017-11-19T10:06:24Z</time>
      </trkpt>
      <trkpt lat="48.66451" lon="1.76307">
        <ele>179</ele>
        <time>2017-11-19T10:06:33Z</time>
      </trkpt>
      <trkpt lat="48.66455" lon="1.7632">
        <ele>179</ele>
        <time>2017-11-19T10:06:42Z</time>
      </trkpt>
      <trkpt lat="48.66461" lon="1.76332">
        <ele>178</ele>
        <time>2017-11-19T10:06:50Z</time>
      </trkpt>
      <trkpt lat="48.66464" lon="1.76347">
        <ele>178</ele>
        <time>2017-11-19T10:06:58Z</time>
      </trkpt>
      <trkpt lat="48.66469" lon="1.76358">
        <ele>178</ele>
        <time>2017-11-19T10:07:05Z</time>
      </trkpt>
      <trkpt lat="48.66473" lon="1.76372">
        <ele>178</ele>
        <time>2017-11-19T10:07:13Z</time>
      </trkpt>
      <trkpt lat="48.66478" lon="1.76385">
        <ele>177</ele>
        <time>2017-11-19T10:07:21Z</time>
      </trkpt>
      <trkpt lat="48.66484" lon="1.76396">
        <ele>177</ele>
        <time>2017-11-19T10:07:29Z</time>
      </trkpt>
      <trkpt lat="48.66487" lon="1.7641">
        <ele>176</ele>
        <time>2017-11-19T10:07:37Z</time>
      </trkpt>
      <trkpt lat="48.66489" lon="1.76425">
        <ele>176</ele>
        <time>2017-11-19T10:07:46Z</time>
      </trkpt>
      <trkpt lat="48.66494" lon="1.76436">
        <ele>176</ele>
        <time>2017-11-19T10:07:55Z</time>
      </trkpt>
      <trkpt lat="48.66499" lon="1.76451">
        <ele>176</ele>
        <time>2017-11-19T10:08:05Z</time>
      </trkpt>
      <trkpt lat="48.66504" lon="1.76462">
        <ele>177</ele>
        <time>2017-11-19T10:08:12Z</time>
      </trkpt>
      <trkpt lat="48.66509" lon="1.76474">
        <ele>177</ele>
        <time>2017-11-19T10:08:21Z</time>
      </trkpt>
      <trkpt lat="48.66513" lon="1.76486">
        <ele>177</ele>
        <time>2017-11-19T10:08:30Z</time>
      </trkpt>
      <trkpt lat="48.66518" lon="1.765">
        <ele>177</ele>
        <time>2017-11-19T10:08:38Z</time>
      </trkpt>
      <trkpt lat="48.66523" lon="1.76511">
        <ele>177</ele>
        <time>2017-11-19T10:08:46Z</time>
      </trkpt>
      <trkpt lat="48.66528" lon="1.76523">
        <ele>177</ele>
        <time>2017-11-19T10:08:55Z</time>
      </trkpt>
      <trkpt lat="48.66534" lon="1.76534">
        <ele>177</ele>
        <time>2017-11-19T10:09:07Z</time>
      </trkpt>
      <trkpt lat="48.6654" lon="1.76545">
        <ele>177</ele>
        <time>2017-11-19T10:09:14Z</time>
      </trkpt>
      <trkpt lat="48.66544" lon="1.76557">
        <ele>177</ele>
        <time>2017-11-19T10:09:22Z</time>
      </trkpt>
      <trkpt lat="48.66548" lon="1.76571">
        <ele>177</ele>
        <time>2017-11-19T10:09:31Z</time>
      </trkpt>
      <trkpt lat="48.66554" lon="1.76583">
        <ele>177</ele>
        <time>2017-11-19T10:09:39Z</time>
      </trkpt>
      <trkpt lat="48.66559" lon="1.76595">
        <ele>177</ele>
        <time>2017-11-19T10:09:47Z</time>
      </trkpt>
      <trkpt lat="48.66563" lon="1.76608">
        <ele>176</ele>
        <time>2017-11-19T10:09:56Z</time>
      </trkpt>
      <trkpt lat="48.66567" lon="1.76623">
        <ele>176</ele>
        <time>2017-11-19T10:10:03Z</time>
      </trkpt>
      <trkpt lat="48.6657" lon="1.76636">
        <ele>176</ele>
        <time>2017-11-19T10:10:10Z</time>
      </trkpt>
      <trkpt lat="48.66576" lon="1.76648">
        <ele>176</ele>
        <time>2017-11-19T10:10:20Z</time>
      </trkpt>
      <trkpt lat="48.6658" lon="1.7666">
        <ele>176</ele>
        <time>2017-11-19T10:10:28Z</time>
      </trkpt>
      <trkpt lat="48.66584" lon="1.76673">
        <ele>176</ele>
        <time>2017-11-19T10:10:36Z</time>
      </trkpt>
      <trkpt lat="48.6659" lon="1.76686">
        <ele>176</ele>
        <time>2017-11-19T10:10:44Z</time>
      </trkpt>
      <trkpt lat="48.66594" lon="1.76698">
        <ele>175</ele>
        <time>2017-11-19T10:10:52Z</time>
      </trkpt>
      <trkpt lat="48.66598" lon="1.7671">
        <ele>175</ele>
        <time>2017-11-19T10:11:00Z</time>
      </trkpt>
      <trkpt lat="48.66602" lon="1.76723">
        <ele>175</ele>
        <time>2017-11-19T10:11:08Z</time>
      </trkpt>
      <trkpt lat="48.66606" lon="1.76737">
        <ele>175</ele>
        <time>2017-11-19T10:11:17Z</time>
      </trkpt>
      <trkpt lat="48.66613" lon="1.76748">
        <ele>175</ele>
        <time>2017-11-19T10:11:26Z</time>
      </trkpt>
      <trkpt lat="48.66618" lon="1.7676">
        <ele>174</ele>
        <time>2017-11-19T10:11:35Z</time>
      </trkpt>
      <trkpt lat="48.66622" lon="1.76774">
        <ele>174</ele>
        <time>2017-11-19T10:11:43Z</time>
      </trkpt>
      <trkpt lat="48.66626" lon="1.76787">
        <ele>174</ele>
        <time>2017-11-19T10:11:51Z</time>
      </trkpt>
      <trkpt lat="48.6663" lon="1.768">
        <ele>174</ele>
        <time>2017-11-19T10:11:59Z</time>
      </trkpt>
      <trkpt lat="48.66635" lon="1.76813">
        <ele>174</ele>
        <time>2017-11-19T10:12:11Z</time>
      </trkpt>
      <trkpt lat="48.6664" lon="1.76826">
        <ele>173</ele>
        <time>2017-11-19T10:12:20Z</time>
      </trkpt>
      <trkpt lat="48.66644" lon="1.76838">
        <ele>173</ele>
        <time>2017-11-19T10:12:29Z</time>
      </trkpt>
      <trkpt lat="48.6665" lon="1.76851">
        <ele>173</ele>
        <time>2017-11-19T10:12:39Z</time>
      </trkpt>
      <trkpt lat="48.66655" lon="1.76862">
        <ele>173</ele>
        <time>2017-11-19T10:14:37Z</time>
      </trkpt>
      <trkpt lat="48.66659" lon="1.76875">
        <ele>173</ele>
        <time>2017-11-19T10:16:11Z</time>
      </trkpt>
      <trkpt lat="48.66665" lon="1.76885">
        <ele>173</ele>
        <time>2017-11-19T10:16:52Z</time>
      </trkpt>
      <trkpt lat="48.6667" lon="1.76897">
        <ele>173</ele>
        <time>2017-11-19T10:16:59Z</time>
      </trkpt>
      <trkpt lat="48.66674" lon="1.76909">
        <ele>173</ele>
        <time>2017-11-19T10:17:05Z</time>
      </trkpt>
      <trkpt lat="48.66678" lon="1.76922">
        <ele>173</ele>
        <time>2017-11-19T10:17:11Z</time>
      </trkpt>
      <trkpt lat="48.66682" lon="1.76934">
        <ele>173</ele>
        <time>2017-11-19T10:17:17Z</time>
      </trkpt>
      <trkpt lat="48.66687" lon="1.76947">
        <ele>173</ele>
        <time>2017-11-19T10:17:23Z</time>
      </trkpt>
      <trkpt lat="48.6669" lon="1.76961">
        <ele>174</ele>
        <time>2017-11-19T10:17:29Z</time>
      </trkpt>
      <trkpt lat="48.66696" lon="1.76972">
        <ele>174</ele>
        <time>2017-11-19T10:17:35Z</time>
      </trkpt>
      <trkpt lat="48.66697" lon="1.76986">
        <ele>174</ele>
        <time>2017-11-19T10:18:02Z</time>
      </trkpt>
      <trkpt lat="48.66702" lon="1.76999">
        <ele>174</ele>
        <time>2017-11-19T10:18:13Z</time>
      </trkpt>
      <trkpt lat="48.66708" lon="1.7701">
        <ele>174</ele>
        <time>2017-11-19T10:18:22Z</time>
      </trkpt>
      <trkpt lat="48.6671" lon="1.77023">
        <ele>174</ele>
        <time>2017-11-19T10:18:28Z</time>
      </trkpt>
      <trkpt lat="48.66714" lon="1.77036">
        <ele>174</ele>
        <time>2017-11-19T10:18:37Z</time>
      </trkpt>
      <trkpt lat="48.66717" lon="1.77049">
        <ele>174</ele>
        <time>2017-11-19T10:18:45Z</time>
      </trkpt>
      <trkpt lat="48.6672" lon="1.77064">
        <ele>174</ele>
        <time>2017-11-19T10:18:53Z</time>
      </trkpt>
      <trkpt lat="48.66722" lon="1.77079">
        <ele>174</ele>
        <time>2017-11-19T10:19:00Z</time>
      </trkpt>
      <trkpt lat="48.66724" lon="1.77094">
        <ele>174</ele>
        <time>2017-11-19T10:19:08Z</time>
      </trkpt>
      <trkpt lat="48.66727" lon="1.77109">
        <ele>173</ele>
        <time>2017-11-19T10:19:17Z</time>
      </trkpt>
      <trkpt lat="48.6673" lon="1.77123">
        <ele>173</ele>
        <time>2017-11-19T10:19:24Z</time>
      </trkpt>
      <trkpt lat="48.66732" lon="1.77136">
        <ele>173</ele>
        <time>2017-11-19T10:19:29Z</time>
      </trkpt>
      <trkpt lat="48.66735" lon="1.7715">
        <ele>173</ele>
        <time>2017-11-19T10:19:36Z</time>
      </trkpt>
      <trkpt lat="48.66738" lon="1.77163">
        <ele>173</ele>
        <time>2017-11-19T10:19:42Z</time>
      </trkpt>
      <trkpt lat="48.66739" lon="1.77177">
        <ele>173</ele>
        <time>2017-11-19T10:20:15Z</time>
      </trkpt>
      <trkpt lat="48.66743" lon="1.7719">
        <ele>173</ele>
        <time>2017-11-19T10:20:22Z</time>
      </trkpt>
      <trkpt lat="48.66745" lon="1.77204">
        <ele>173</ele>
        <time>2017-11-19T10:20:29Z</time>
      </trkpt>
      <trkpt lat="48.66746" lon="1.77219">
        <ele>173</ele>
        <time>2017-11-19T10:20:37Z</time>
      </trkpt>
      <trkpt lat="48.66747" lon="1.77234">
        <ele>173</ele>
        <time>2017-11-19T10:20:46Z</time>
      </trkpt>
      <trkpt lat="48.6675" lon="1.77249">
        <ele>173</ele>
        <time>2017-11-19T10:20:55Z</time>
      </trkpt>
      <trkpt lat="48.66752" lon="1.77263">
        <ele>172</ele>
        <time>2017-11-19T10:21:04Z</time>
      </trkpt>
      <trkpt lat="48.66755" lon="1.77278">
        <ele>172</ele>
        <time>2017-11-19T10:21:12Z</time>
      </trkpt>
      <trkpt lat="48.66758" lon="1.77293">
        <ele>171</ele>
        <time>2017-11-19T10:21:22Z</time>
      </trkpt>
      <trkpt lat="48.66761" lon="1.77308">
        <ele>170</ele>
        <time>2017-11-19T10:21:30Z</time>
      </trkpt>
      <trkpt lat="48.66762" lon="1.77322">
        <ele>170</ele>
        <time>2017-11-19T10:21:39Z</time>
      </trkpt>
      <trkpt lat="48.66766" lon="1.77335">
        <ele>169</ele>
        <time>2017-11-19T10:21:47Z</time>
      </trkpt>
      <trkpt lat="48.66767" lon="1.77351">
        <ele>169</ele>
        <time>2017-11-19T10:21:55Z</time>
      </trkpt>
      <trkpt lat="48.6677" lon="1.77365">
        <ele>168</ele>
        <time>2017-11-19T10:22:04Z</time>
      </trkpt>
      <trkpt lat="48.66773" lon="1.77379">
        <ele>168</ele>
        <time>2017-11-19T10:22:12Z</time>
      </trkpt>
      <trkpt lat="48.66775" lon="1.77393">
        <ele>167</ele>
        <time>2017-11-19T10:22:22Z</time>
      </trkpt>
      <trkpt lat="48.66778" lon="1.77406">
        <ele>167</ele>
        <time>2017-11-19T10:22:30Z</time>
      </trkpt>
      <trkpt lat="48.66781" lon="1.77421">
        <ele>167</ele>
        <time>2017-11-19T10:22:38Z</time>
      </trkpt>
      <trkpt lat="48.66784" lon="1.77433">
        <ele>166</ele>
        <time>2017-11-19T10:22:46Z</time>
      </trkpt>
      <trkpt lat="48.66786" lon="1.77447">
        <ele>166</ele>
        <time>2017-11-19T10:22:53Z</time>
      </trkpt>
      <trkpt lat="48.66788" lon="1.77461">
        <ele>166</ele>
        <time>2017-11-19T10:23:01Z</time>
      </trkpt>
      <trkpt lat="48.66791" lon="1.77475">
        <ele>166</ele>
        <time>2017-11-19T10:23:10Z</time>
      </trkpt>
      <trkpt lat="48.66793" lon="1.77489">
        <ele>166</ele>
        <time>2017-11-19T10:23:18Z</time>
      </trkpt>
      <trkpt lat="48.66796" lon="1.77502">
        <ele>166</ele>
        <time>2017-11-19T10:23:27Z</time>
      </trkpt>
      <trkpt lat="48.66797" lon="1.77516">
        <ele>166</ele>
        <time>2017-11-19T10:23:33Z</time>
      </trkpt>
      <trkpt lat="48.66799" lon="1.77529">
        <ele>166</ele>
        <time>2017-11-19T10:23:43Z</time>
      </trkpt>
      <trkpt lat="48.66803" lon="1.77542">
        <ele>166</ele>
        <time>2017-11-19T10:23:51Z</time>
      </trkpt>
      <trkpt lat="48.66805" lon="1.77556">
        <ele>166</ele>
        <time>2017-11-19T10:24:01Z</time>
      </trkpt>
      <trkpt lat="48.66808" lon="1.7757">
        <ele>166</ele>
        <time>2017-11-19T10:24:11Z</time>
      </trkpt>
      <trkpt lat="48.66811" lon="1.77582">
        <ele>166</ele>
        <time>2017-11-19T10:24:22Z</time>
      </trkpt>
      <trkpt lat="48.66813" lon="1.77598">
        <ele>166</ele>
        <time>2017-11-19T10:24:32Z</time>
      </trkpt>
      <trkpt lat="48.66817" lon="1.77611">
        <ele>166</ele>
        <time>2017-11-19T10:24:41Z</time>
      </trkpt>
      <trkpt lat="48.66818" lon="1.77625">
        <ele>166</ele>
        <time>2017-11-19T10:24:48Z</time>
      </trkpt>
      <trkpt lat="48.6682" lon="1.7764">
        <ele>166</ele>
        <time>2017-11-19T10:24:57Z</time>
      </trkpt>
      <trkpt lat="48.66822" lon="1.77654">
        <ele>166</ele>
        <time>2017-11-19T10:25:05Z</time>
      </trkpt>
      <trkpt lat="48.66823" lon="1.77668">
        <ele>166</ele>
        <time>2017-11-19T10:25:14Z</time>
      </trkpt>
      <trkpt lat="48.66824" lon="1.77683">
        <ele>165</ele>
        <time>2017-11-19T10:25:22Z</time>
      </trkpt>
      <trkpt lat="48.66827" lon="1.77697">
        <ele>165</ele>
        <time>2017-11-19T10:25:38Z</time>
      </trkpt>
      <trkpt lat="48.66828" lon="1.77711">
        <ele>164</ele>
        <time>2017-11-19T10:25:54Z</time>
      </trkpt>
      <trkpt lat="48.66831" lon="1.77724">
        <ele>164</ele>
        <time>2017-11-19T10:26:07Z</time>
      </trkpt>
      <trkpt lat="48.66834" lon="1.77737">
        <ele>163</ele>
        <time>2017-11-19T10:26:21Z</time>
      </trkpt>
      <trkpt lat="48.66839" lon="1.77749">
        <ele>163</ele>
        <time>2017-11-19T10:26:33Z</time>
      </trkpt>
      <trkpt lat="48.66843" lon="1.77762">
        <ele>164</ele>
        <time>2017-11-19T10:26:50Z</time>
      </trkpt>
      <trkpt lat="48.66841" lon="1.77776">
        <ele>164</ele>
        <time>2017-11-19T10:27:06Z</time>
      </trkpt>
      <trkpt lat="48.66848" lon="1.77785">
        <ele>164</ele>
        <time>2017-11-19T10:27:22Z</time>
      </trkpt>
      <trkpt lat="48.66857" lon="1.77791">
        <ele>164</ele>
        <time>2017-11-19T10:27:33Z</time>
      </trkpt>
      <trkpt lat="48.66866" lon="1.77796">
        <ele>165</ele>
        <time>2017-11-19T10:27:44Z</time>
      </trkpt>
      <trkpt lat="48.66874" lon="1.77801">
        <ele>165</ele>
        <time>2017-11-19T10:27:51Z</time>
      </trkpt>
      <trkpt lat="48.66881" lon="1.7781">
        <ele>165</ele>
        <time>2017-11-19T10:27:59Z</time>
      </trkpt>
      <trkpt lat="48.66888" lon="1.7782">
        <ele>165</ele>
        <time>2017-11-19T10:28:05Z</time>
      </trkpt>
      <trkpt lat="48.66895" lon="1.77832">
        <ele>165</ele>
        <time>2017-11-19T10:28:14Z</time>
      </trkpt>
      <trkpt lat="48.66897" lon="1.77846">
        <ele>165</ele>
        <time>2017-11-19T10:28:21Z</time>
      </trkpt>
      <trkpt lat="48.66897" lon="1.77861">
        <ele>166</ele>
        <time>2017-11-19T10:28:32Z</time>
      </trkpt>
      <trkpt lat="48.66898" lon="1.77876">
        <ele>166</ele>
        <time>2017-11-19T10:28:40Z</time>
      </trkpt>
      <trkpt lat="48.66897" lon="1.7789">
        <ele>166</ele>
        <time>2017-11-19T10:28:49Z</time>
      </trkpt>
      <trkpt lat="48.66896" lon="1.77905">
        <ele>167</ele>
        <time>2017-11-19T10:28:58Z</time>
      </trkpt>
      <trkpt lat="48.66892" lon="1.77917">
        <ele>167</ele>
        <time>2017-11-19T10:29:09Z</time>
      </trkpt>
      <trkpt lat="48.6689" lon="1.77931">
        <ele>167</ele>
        <time>2017-11-19T10:29:27Z</time>
      </trkpt>
      <trkpt lat="48.66895" lon="1.77942">
        <ele>168</ele>
        <time>2017-11-19T10:29:41Z</time>
      </trkpt>
      <trkpt lat="48.669" lon="1.77954">
        <ele>168</ele>
        <time>2017-11-19T10:29:52Z</time>
      </trkpt>
      <trkpt lat="48.66906" lon="1.77966">
        <ele>168</ele>
        <time>2017-11-19T10:30:03Z</time>
      </trkpt>
      <trkpt lat="48.66914" lon="1.77971">
        <ele>168</ele>
        <time>2017-11-19T10:30:16Z</time>
      </trkpt>
      <trkpt lat="48.66924" lon="1.77975">
        <ele>168</ele>
        <time>2017-11-19T10:30:29Z</time>
      </trkpt>
      <trkpt lat="48.66932" lon="1.77979">
        <ele>168</ele>
        <time>2017-11-19T10:30:41Z</time>
      </trkpt>
      <trkpt lat="48.66941" lon="1.77985">
        <ele>168</ele>
        <time>2017-11-19T10:30:51Z</time>
      </trkpt>
      <trkpt lat="48.6695" lon="1.77988">
        <ele>167</ele>
        <time>2017-11-19T10:30:59Z</time>
      </trkpt>
      <trkpt lat="48.6696" lon="1.77993">
        <ele>167</ele>
        <time>2017-11-19T10:31:06Z</time>
      </trkpt>
      <trkpt lat="48.6697" lon="1.77996">
        <ele>166</ele>
        <time>2017-11-19T10:31:15Z</time>
      </trkpt>
      <trkpt lat="48.66979" lon="1.78">
        <ele>166</ele>
        <time>2017-11-19T10:31:23Z</time>
      </trkpt>
      <trkpt lat="48.6699" lon="1.78005">
        <ele>166</ele>
        <time>2017-11-19T10:31:32Z</time>
      </trkpt>
      <trkpt lat="48.66999" lon="1.78009">
        <ele>165</ele>
        <time>2017-11-19T10:31:41Z</time>
      </trkpt>
      <trkpt lat="48.67008" lon="1.78013">
        <ele>164</ele>
        <time>2017-11-19T10:31:48Z</time>
      </trkpt>
      <trkpt lat="48.67018" lon="1.78018">
        <ele>163</ele>
        <time>2017-11-19T10:31:56Z</time>
      </trkpt>
      <trkpt lat="48.67027" lon="1.78021">
        <ele>162</ele>
        <time>2017-11-19T10:32:05Z</time>
      </trkpt>
      <trkpt lat="48.67036" lon="1.78026">
        <ele>161</ele>
        <time>2017-11-19T10:32:23Z</time>
      </trkpt>
      <trkpt lat="48.67046" lon="1.78031">
        <ele>160</ele>
        <time>2017-11-19T10:32:32Z</time>
      </trkpt>
      <trkpt lat="48.67055" lon="1.78034">
        <ele>159</ele>
        <time>2017-11-19T10:32:41Z</time>
      </trkpt>
      <trkpt lat="48.67063" lon="1.7804">
        <ele>159</ele>
        <time>2017-11-19T10:32:55Z</time>
      </trkpt>
      <trkpt lat="48.67072" lon="1.78046">
        <ele>158</ele>
        <time>2017-11-19T10:33:08Z</time>
      </trkpt>
      <trkpt lat="48.67081" lon="1.78048">
        <ele>157</ele>
        <time>2017-11-19T10:33:17Z</time>
      </trkpt>
      <trkpt lat="48.67089" lon="1.78053">
        <ele>156</ele>
        <time>2017-11-19T10:33:26Z</time>
      </trkpt>
      <trkpt lat="48.67099" lon="1.78057">
        <ele>156</ele>
        <time>2017-11-19T10:33:34Z</time>
      </trkpt>
      <trkpt lat="48.67108" lon="1.78062">
        <ele>155</ele>
        <time>2017-11-19T10:33:42Z</time>
      </trkpt>
      <trkpt lat="48.67117" lon="1.78065">
        <ele>155</ele>
        <time>2017-11-19T10:33:52Z</time>
      </trkpt>
      <trkpt lat="48.67126" lon="1.78069">
        <ele>154</ele>
        <time>2017-11-19T10:33:59Z</time>
      </trkpt>
      <trkpt lat="48.67135" lon="1.78073">
        <ele>154</ele>
        <time>2017-11-19T10:34:06Z</time>
      </trkpt>
      <trkpt lat="48.67144" lon="1.78077">
        <ele>153</ele>
        <time>2017-11-19T10:34:13Z</time>
      </trkpt>
      <trkpt lat="48.67153" lon="1.7808">
        <ele>153</ele>
        <time>2017-11-19T10:34:21Z</time>
      </trkpt>
      <trkpt lat="48.67163" lon="1.78085">
        <ele>152</ele>
        <time>2017-11-19T10:34:30Z</time>
      </trkpt>
      <trkpt lat="48.67172" lon="1.78089">
        <ele>152</ele>
        <time>2017-11-19T10:34:39Z</time>
      </trkpt>
      <trkpt lat="48.67181" lon="1.78092">
        <ele>151</ele>
        <time>2017-11-19T10:34:46Z</time>
      </trkpt>
      <trkpt lat="48.6719" lon="1.78096">
        <ele>151</ele>
        <time>2017-11-19T10:34:54Z</time>
      </trkpt>
      <trkpt lat="48.672" lon="1.78101">
        <ele>151</ele>
        <time>2017-11-19T10:35:01Z</time>
      </trkpt>
      <trkpt lat="48.67209" lon="1.78106">
        <ele>150</ele>
        <time>2017-11-19T10:35:08Z</time>
      </trkpt>
      <trkpt lat="48.67219" lon="1.78109">
        <ele>150</ele>
        <time>2017-11-19T10:35:16Z</time>
      </trkpt>
      <trkpt lat="48.67228" lon="1.78113">
        <ele>150</ele>
        <time>2017-11-19T10:35:24Z</time>
      </trkpt>
      <trkpt lat="48.67237" lon="1.78116">
        <ele>149</ele>
        <time>2017-11-19T10:35:48Z</time>
      </trkpt>
      <trkpt lat="48.67246" lon="1.78121">
        <ele>149</ele>
        <time>2017-11-19T10:36:04Z</time>
      </trkpt>
      <trkpt lat="48.67256" lon="1.78125">
        <ele>149</ele>
        <time>2017-11-19T10:36:15Z</time>
      </trkpt>
      <trkpt lat="48.67265" lon="1.78129">
        <ele>149</ele>
        <time>2017-11-19T10:36:24Z</time>
      </trkpt>
      <trkpt lat="48.67274" lon="1.78134">
        <ele>149</ele>
        <time>2017-11-19T10:36:32Z</time>
      </trkpt>
      <trkpt lat="48.67283" lon="1.78138">
        <ele>149</ele>
        <time>2017-11-19T10:36:40Z</time>
      </trkpt>
      <trkpt lat="48.67293" lon="1.78142">
        <ele>150</ele>
        <time>2017-11-19T10:36:48Z</time>
      </trkpt>
      <trkpt lat="48.67302" lon="1.78145">
        <ele>150</ele>
        <time>2017-11-19T10:37:00Z</time>
      </trkpt>
      <trkpt lat="48.6731" lon="1.78151">
        <ele>150</ele>
        <time>2017-11-19T10:37:09Z</time>
      </trkpt>
      <trkpt lat="48.67319" lon="1.78152">
        <ele>150</ele>
        <time>2017-11-19T10:37:33Z</time>
      </trkpt>
      <trkpt lat="48.67321" lon="1.78165">
        <ele>151</ele>
        <time>2017-11-19T10:39:36Z</time>
      </trkpt>
      <trkpt lat="48.67327" lon="1.78177">
        <ele>151</ele>
        <time>2017-11-19T10:39:46Z</time>
      </trkpt>
      <trkpt lat="48.67332" lon="1.7819">
        <ele>151</ele>
        <time>2017-11-19T10:39:57Z</time>
      </trkpt>
      <trkpt lat="48.67334" lon="1.78204">
        <ele>151</ele>
        <time>2017-11-19T10:40:07Z</time>
      </trkpt>
      <trkpt lat="48.67338" lon="1.78217">
        <ele>152</ele>
        <time>2017-11-19T10:40:16Z</time>
      </trkpt>
      <trkpt lat="48.67342" lon="1.7823">
        <ele>152</ele>
        <time>2017-11-19T10:40:26Z</time>
      </trkpt>
      <trkpt lat="48.67348" lon="1.78241">
        <ele>152</ele>
        <time>2017-11-19T10:40:36Z</time>
      </trkpt>
      <trkpt lat="48.67352" lon="1.78255">
        <ele>152</ele>
        <time>2017-11-19T10:40:46Z</time>
      </trkpt>
      <trkpt lat="48.67357" lon="1.78269">
        <ele>152</ele>
        <time>2017-11-19T10:40:56Z</time>
      </trkpt>
      <trkpt lat="48.67361" lon="1.78281">
        <ele>151</ele>
        <time>2017-11-19T10:41:03Z</time>
      </trkpt>
      <trkpt lat="48.67366" lon="1.78295">
        <ele>151</ele>
        <time>2017-11-19T10:41:12Z</time>
      </trkpt>
      <trkpt lat="48.6737" lon="1.78309">
        <ele>151</ele>
        <time>2017-11-19T10:41:20Z</time>
      </trkpt>
      <trkpt lat="48.67374" lon="1.78322">
        <ele>150</ele>
        <time>2017-11-19T10:41:29Z</time>
      </trkpt>
      <trkpt lat="48.67378" lon="1.78335">
        <ele>150</ele>
        <time>2017-11-19T10:41:51Z</time>
      </trkpt>
      <trkpt lat="48.67382" lon="1.78347">
        <ele>150</ele>
        <time>2017-11-19T10:42:05Z</time>
      </trkpt>
      <trkpt lat="48.67386" lon="1.78361">
        <ele>150</ele>
        <time>2017-11-19T10:42:15Z</time>
      </trkpt>
      <trkpt lat="48.67391" lon="1.78372">
        <ele>150</ele>
        <time>2017-11-19T10:42:26Z</time>
      </trkpt>
      <trkpt lat="48.67396" lon="1.78385">
        <ele>150</ele>
        <time>2017-11-19T10:42:36Z</time>
      </trkpt>
      <trkpt lat="48.67399" lon="1.78397">
        <ele>150</ele>
        <time>2017-11-19T10:42:43Z</time>
      </trkpt>
      <trkpt lat="48.67404" lon="1.78412">
        <ele>150</ele>
        <time>2017-11-19T10:42:52Z</time>
      </trkpt>
      <trkpt lat="48.67407" lon="1.78427">
        <ele>150</ele>
        <time>2017-11-19T10:42:59Z</time>
      </trkpt>
      <trkpt lat="48.67413" lon="1.78438">
        <ele>150</ele>
        <time>2017-11-19T10:43:07Z</time>
      </trkpt>
      <trkpt lat="48.67417" lon="1.78451">
        <ele>150</ele>
        <time>2017-11-19T10:43:15Z</time>
      </trkpt>
      <trkpt lat="48.67422" lon="1.78464">
        <ele>151</ele>
        <time>2017-11-19T10:43:26Z</time>
      </trkpt>
      <trkpt lat="48.67426" lon="1.78476">
        <ele>151</ele>
        <time>2017-11-19T10:43:33Z</time>
      </trkpt>
      <trkpt lat="48.6743" lon="1.7849">
        <ele>151</ele>
        <time>2017-11-19T10:43:44Z</time>
      </trkpt>
      <trkpt lat="48.67433" lon="1.78503">
        <ele>151</ele>
        <time>2017-11-19T10:43:52Z</time>
      </trkpt>
      <trkpt lat="48.67438" lon="1.78517">
        <ele>151</ele>
        <time>2017-11-19T10:44:00Z</time>
      </trkpt>
      <trkpt lat="48.67441" lon="1.7853">
        <ele>151</ele>
        <time>2017-11-19T10:44:09Z</time>
      </trkpt>
      <trkpt lat="48.67447" lon="1.78543">
        <ele>151</ele>
        <time>2017-11-19T10:44:20Z</time>
      </trkpt>
      <trkpt lat="48.67452" lon="1.78556">
        <ele>151</ele>
        <time>2017-11-19T10:44:27Z</time>
      </trkpt>
      <trkpt lat="48.67456" lon="1.78568">
        <ele>151</ele>
        <time>2017-11-19T10:44:38Z</time>
      </trkpt>
      <trkpt lat="48.67464" lon="1.78576">
        <ele>151</ele>
        <time>2017-11-19T10:44:47Z</time>
      </trkpt>
      <trkpt lat="48.6747" lon="1.78587">
        <ele>151</ele>
        <time>2017-11-19T10:44:55Z</time>
      </trkpt>
      <trkpt lat="48.67477" lon="1.78597">
        <ele>151</ele>
        <time>2017-11-19T10:46:29Z</time>
      </trkpt>
      <trkpt lat="48.67486" lon="1.78595">
        <ele>151</ele>
        <time>2017-11-19T10:49:53Z</time>
      </trkpt>
      <trkpt lat="48.67495" lon="1.78596">
        <ele>151</ele>
        <time>2017-11-19T10:50:03Z</time>
      </trkpt>
      <trkpt lat="48.67504" lon="1.78598">
        <ele>151</ele>
        <time>2017-11-19T10:50:14Z</time>
      </trkpt>
      <trkpt lat="48.67513" lon="1.78602">
        <ele>151</ele>
        <time>2017-11-19T10:50:23Z</time>
      </trkpt>
      <trkpt lat="48.67522" lon="1.78604">
        <ele>150</ele>
        <time>2017-11-19T10:50:34Z</time>
      </trkpt>
      <trkpt lat="48.67531" lon="1.78609">
        <ele>150</ele>
        <time>2017-11-19T10:50:43Z</time>
      </trkpt>
      <trkpt lat="48.67539" lon="1.78613">
        <ele>150</ele>
        <time>2017-11-19T10:50:59Z</time>
      </trkpt>
      <trkpt lat="48.67549" lon="1.78617">
        <ele>150</ele>
        <time>2017-11-19T10:51:07Z</time>
      </trkpt>
      <trkpt lat="48.67558" lon="1.7862">
        <ele>150</ele>
        <time>2017-11-19T10:51:16Z</time>
      </trkpt>
      <trkpt lat="48.67568" lon="1.78623">
        <ele>150</ele>
        <time>2017-11-19T10:51:25Z</time>
      </trkpt>
      <trkpt lat="48.67577" lon="1.78625">
        <ele>150</ele>
        <time>2017-11-19T10:51:33Z</time>
      </trkpt>
      <trkpt lat="48.67585" lon="1.78629">
        <ele>150</ele>
        <time>2017-11-19T10:51:41Z</time>
      </trkpt>
      <trkpt lat="48.67595" lon="1.78633">
        <ele>151</ele>
        <time>2017-11-19T10:51:51Z</time>
      </trkpt>
      <trkpt lat="48.67604" lon="1.78638">
        <ele>151</ele>
        <time>2017-11-19T10:52:00Z</time>
      </trkpt>
      <trkpt lat="48.67614" lon="1.7864">
        <ele>151</ele>
        <time>2017-11-19T10:52:08Z</time>
      </trkpt>
      <trkpt lat="48.67624" lon="1.78642">
        <ele>151</ele>
        <time>2017-11-19T10:52:18Z</time>
      </trkpt>
      <trkpt lat="48.67633" lon="1.78646">
        <ele>151</ele>
        <time>2017-11-19T10:52:25Z</time>
      </trkpt>
      <trkpt lat="48.67642" lon="1.7865">
        <ele>152</ele>
        <time>2017-11-19T10:52:35Z</time>
      </trkpt>
      <trkpt lat="48.67651" lon="1.78655">
        <ele>152</ele>
        <time>2017-11-19T10:52:46Z</time>
      </trkpt>
      <trkpt lat="48.67661" lon="1.78658">
        <ele>152</ele>
        <time>2017-11-19T10:52:56Z</time>
      </trkpt>
      <trkpt lat="48.6767" lon="1.78664">
        <ele>152</ele>
        <time>2017-11-19T10:53:09Z</time>
      </trkpt>
      <trkpt lat="48.67678" lon="1.78668">
        <ele>153</ele>
        <time>2017-11-19T10:53:16Z</time>
      </trkpt>
      <trkpt lat="48.67688" lon="1.78671">
        <ele>153</ele>
        <time>2017-11-19T10:53:25Z</time>
      </trkpt>
      <trkpt lat="48.67697" lon="1.78672">
        <ele>154</ele>
        <time>2017-11-19T10:53:40Z</time>
      </trkpt>
      <trkpt lat="48.67703" lon="1.78682">
        <ele>154</ele>
        <time>2017-11-19T10:54:54Z</time>
      </trkpt>
      <trkpt lat="48.67712" lon="1.78681">
        <ele>155</ele>
        <time>2017-11-19T10:55:11Z</time>
      </trkpt>
      <trkpt lat="48.67721" lon="1.78684">
        <ele>155</ele>
        <time>2017-11-19T10:55:29Z</time>
      </trkpt>
      <trkpt lat="48.6773" lon="1.78686">
        <ele>156</ele>
        <time>2017-11-19T10:55:45Z</time>
      </trkpt>
      <trkpt lat="48.67739" lon="1.78686">
        <ele>156</ele>
        <time>2017-11-19T10:57:09Z</time>
      </trkpt>
      <trkpt lat="48.67749" lon="1.78683">
        <ele>156</ele>
        <time>2017-11-19T10:57:20Z</time>
      </trkpt>
      <trkpt lat="48.67758" lon="1.7868">
        <ele>157</ele>
        <time>2017-11-19T10:57:33Z</time>
      </trkpt>
      <trkpt lat="48.67767" lon="1.78681">
        <ele>157</ele>
        <time>2017-11-19T10:57:44Z</time>
      </trkpt>
      <trkpt lat="48.67777" lon="1.78681">
        <ele>158</ele>
        <time>2017-11-19T10:57:52Z</time>
      </trkpt>
      <trkpt lat="48.67787" lon="1.7868">
        <ele>159</ele>
        <time>2017-11-19T10:58:03Z</time>
      </trkpt>
      <trkpt lat="48.67797" lon="1.78681">
        <ele>159</ele>
        <time>2017-11-19T10:58:12Z</time>
      </trkpt>
      <trkpt lat="48.67807" lon="1.78679">
        <ele>160</ele>
        <time>2017-11-19T10:58:21Z</time>
      </trkpt>
      <trkpt lat="48.67816" lon="1.7868">
        <ele>160</ele>
        <time>2017-11-19T10:58:30Z</time>
      </trkpt>
      <trkpt lat="48.67826" lon="1.7868">
        <ele>161</ele>
        <time>2017-11-19T10:58:57Z</time>
      </trkpt>
      <trkpt lat="48.67835" lon="1.7868">
        <ele>161</ele>
        <time>2017-11-19T10:59:14Z</time>
      </trkpt>
      <trkpt lat="48.67844" lon="1.78684">
        <ele>162</ele>
        <time>2017-11-19T10:59:25Z</time>
      </trkpt>
      <trkpt lat="48.67852" lon="1.78691">
        <ele>163</ele>
        <time>2017-11-19T10:59:40Z</time>
      </trkpt>
      <trkpt lat="48.6786" lon="1.78698">
        <ele>163</ele>
        <time>2017-11-19T11:00:01Z</time>
      </trkpt>
      <trkpt lat="48.6787" lon="1.78699">
        <ele>164</ele>
        <time>2017-11-19T11:00:20Z</time>
      </trkpt>
      <trkpt lat="48.67876" lon="1.78688">
        <ele>164</ele>
        <time>2017-11-19T11:01:03Z</time>
      </trkpt>
      <trkpt lat="48.67883" lon="1.7868">
        <ele>164</ele>
        <time>2017-11-19T11:01:15Z</time>
      </trkpt>
      <trkpt lat="48.67892" lon="1.78675">
        <ele>164</ele>
        <time>2017-11-19T11:01:25Z</time>
      </trkpt>
      <trkpt lat="48.67901" lon="1.7867">
        <ele>164</ele>
        <time>2017-11-19T11:01:38Z</time>
      </trkpt>
      <trkpt lat="48.6791" lon="1.78668">
        <ele>165</ele>
        <time>2017-11-19T11:01:47Z</time>
      </trkpt>
      <trkpt lat="48.67918" lon="1.78661">
        <ele>165</ele>
        <time>2017-11-19T11:02:00Z</time>
      </trkpt>
      <trkpt lat="48.67925" lon="1.78652">
        <ele>165</ele>
        <time>2017-11-19T11:02:11Z</time>
      </trkpt>
      <trkpt lat="48.67934" lon="1.78652">
        <ele>165</ele>
        <time>2017-11-19T11:02:35Z</time>
      </trkpt>
      <trkpt lat="48.67943" lon="1.78655">
        <ele>166</ele>
        <time>2017-11-19T11:04:12Z</time>
      </trkpt>
      <trkpt lat="48.67951" lon="1.78664">
        <ele>167</ele>
        <time>2017-11-19T11:04:46Z</time>
      </trkpt>
      <trkpt lat="48.67958" lon="1.78673">
        <ele>168</ele>
        <time>2017-11-19T11:05:04Z</time>
      </trkpt>
      <trkpt lat="48.67964" lon="1.78683">
        <ele>169</ele>
        <time>2017-11-19T11:05:19Z</time>
      </trkpt>
      <trkpt lat="48.67973" lon="1.7869">
        <ele>170</ele>
        <time>2017-11-19T11:05:33Z</time>
      </trkpt>
      <trkpt lat="48.67981" lon="1.78696">
        <ele>171</ele>
        <time>2017-11-19T11:05:43Z</time>
      </trkpt>
      <trkpt lat="48.67989" lon="1.78702">
        <ele>172</ele>
        <time>2017-11-19T11:05:51Z</time>
      </trkpt>
      <trkpt lat="48.67997" lon="1.7871">
        <ele>173</ele>
        <time>2017-11-19T11:06:04Z</time>
      </trkpt>
      <trkpt lat="48.68004" lon="1.78719">
        <ele>173</ele>
        <time>2017-11-19T11:06:17Z</time>
      </trkpt>
      <trkpt lat="48.68011" lon="1.78727">
        <ele>174</ele>
        <time>2017-11-19T11:06:32Z</time>
      </trkpt>
      <trkpt lat="48.68019" lon="1.78735">
        <ele>174</ele>
        <time>2017-11-19T11:06:44Z</time>
      </trkpt>
      <trkpt lat="48.68026" lon="1.78744">
        <ele>174</ele>
        <time>2017-11-19T11:06:58Z</time>
      </trkpt>
      <trkpt lat="48.68032" lon="1.78755">
        <ele>175</ele>
        <time>2017-11-19T11:07:11Z</time>
      </trkpt>
      <trkpt lat="48.68041" lon="1.78763">
        <ele>174</ele>
        <time>2017-11-19T11:07:23Z</time>
      </trkpt>
      <trkpt lat="48.68048" lon="1.78771">
        <ele>174</ele>
        <time>2017-11-19T11:07:32Z</time>
      </trkpt>
      <trkpt lat="48.68057" lon="1.78778">
        <ele>174</ele>
        <time>2017-11-19T11:07:42Z</time>
      </trkpt>
      <trkpt lat="48.68065" lon="1.78786">
        <ele>174</ele>
        <time>2017-11-19T11:07:53Z</time>
      </trkpt>
      <trkpt lat="48.68073" lon="1.78795">
        <ele>174</ele>
        <time>2017-11-19T11:08:01Z</time>
      </trkpt>
      <trkpt lat="48.68082" lon="1.78801">
        <ele>173</ele>
        <time>2017-11-19T11:08:11Z</time>
      </trkpt>
      <trkpt lat="48.6809" lon="1.78808">
        <ele>173</ele>
        <time>2017-11-19T11:08:22Z</time>
      </trkpt>
      <trkpt lat="48.68097" lon="1.78816">
        <ele>174</ele>
        <time>2017-11-19T11:08:31Z</time>
      </trkpt>
      <trkpt lat="48.68105" lon="1.78825">
        <ele>174</ele>
        <time>2017-11-19T11:08:41Z</time>
      </trkpt>
      <trkpt lat="48.68112" lon="1.78834">
        <ele>174</ele>
        <time>2017-11-19T11:08:49Z</time>
      </trkpt>
      <trkpt lat="48.68121" lon="1.7884">
        <ele>174</ele>
        <time>2017-11-19T11:08:58Z</time>
      </trkpt>
      <trkpt lat="48.68129" lon="1.78849">
        <ele>175</ele>
        <time>2017-11-19T11:09:08Z</time>
      </trkpt>
      <trkpt lat="48.68137" lon="1.78857">
        <ele>175</ele>
        <time>2017-11-19T11:09:19Z</time>
      </trkpt>
      <trkpt lat="48.68146" lon="1.78865">
        <ele>176</ele>
        <time>2017-11-19T11:09:28Z</time>
      </trkpt>
      <trkpt lat="48.68154" lon="1.78874">
        <ele>176</ele>
        <time>2017-11-19T11:09:37Z</time>
      </trkpt>
      <trkpt lat="48.68162" lon="1.78882">
        <ele>177</ele>
        <time>2017-11-19T11:09:45Z</time>
      </trkpt>
      <trkpt lat="48.68168" lon="1.78893">
        <ele>177</ele>
        <time>2017-11-19T11:09:55Z</time>
      </trkpt>
      <trkpt lat="48.68176" lon="1.78887">
        <ele>178</ele>
        <time>2017-11-19T11:11:16Z</time>
      </trkpt>
      <trkpt lat="48.68179" lon="1.78901">
        <ele>178</ele>
        <time>2017-11-19T11:11:58Z</time>
      </trkpt>
      <trkpt lat="48.68187" lon="1.78909">
        <ele>179</ele>
        <time>2017-11-19T11:12:58Z</time>
      </trkpt>
      <trkpt lat="48.68194" lon="1.78919">
        <ele>180</ele>
        <time>2017-11-19T11:13:09Z</time>
      </trkpt>
      <trkpt lat="48.682" lon="1.78929">
        <ele>180</ele>
        <time>2017-11-19T11:13:21Z</time>
      </trkpt>
      <trkpt lat="48.68209" lon="1.78936">
        <ele>181</ele>
        <time>2017-11-19T11:13:34Z</time>
      </trkpt>
      <trkpt lat="48.68219" lon="1.78941">
        <ele>181</ele>
        <time>2017-11-19T11:13:44Z</time>
      </trkpt>
      <trkpt lat="48.68226" lon="1.7895">
        <ele>182</ele>
        <time>2017-11-19T11:13:57Z</time>
      </trkpt>
      <trkpt lat="48.68235" lon="1.78956">
        <ele>183</ele>
        <time>2017-11-19T11:14:06Z</time>
      </trkpt>
      <trkpt lat="48.68243" lon="1.78964">
        <ele>183</ele>
        <time>2017-11-19T11:14:14Z</time>
      </trkpt>
      <trkpt lat="48.68252" lon="1.78972">
        <ele>184</ele>
        <time>2017-11-19T11:14:23Z</time>
      </trkpt>
      <trkpt lat="48.6826" lon="1.7898">
        <ele>184</ele>
        <time>2017-11-19T11:14:31Z</time>
      </trkpt>
      <trkpt lat="48.68268" lon="1.78987">
        <ele>184</ele>
        <time>2017-11-19T11:14:40Z</time>
      </trkpt>
      <trkpt lat="48.68276" lon="1.78998">
        <ele>184</ele>
        <time>2017-11-19T11:14:49Z</time>
      </trkpt>
      <trkpt lat="48.68285" lon="1.79">
        <ele>185</ele>
        <time>2017-11-19T11:14:59Z</time>
      </trkpt>
      <trkpt lat="48.68294" lon="1.79006">
        <ele>185</ele>
        <time>2017-11-19T11:15:08Z</time>
      </trkpt>
      <trkpt lat="48.68301" lon="1.79017">
        <ele>185</ele>
        <time>2017-11-19T11:15:21Z</time>
      </trkpt>
      <trkpt lat="48.68308" lon="1.79026">
        <ele>185</ele>
        <time>2017-11-19T11:15:30Z</time>
      </trkpt>
      <trkpt lat="48.68315" lon="1.79036">
        <ele>185</ele>
        <time>2017-11-19T11:15:40Z</time>
      </trkpt>
      <trkpt lat="48.68323" lon="1.79044">
        <ele>185</ele>
        <time>2017-11-19T11:15:50Z</time>
      </trkpt>
      <trkpt lat="48.68331" lon="1.79052">
        <ele>186</ele>
        <time>2017-11-19T11:16:07Z</time>
      </trkpt>
      <trkpt lat="48.68337" lon="1.79061">
        <ele>186</ele>
        <time>2017-11-19T11:16:20Z</time>
      </trkpt>
      <trkpt lat="48.68345" lon="1.79071">
        <ele>186</ele>
        <time>2017-11-19T11:16:31Z</time>
      </trkpt>
      <trkpt lat="48.68355" lon="1.79077">
        <ele>186</ele>
        <time>2017-11-19T11:16:44Z</time>
      </trkpt>
      <trkpt lat="48.68362" lon="1.79086">
        <ele>187</ele>
        <time>2017-11-19T11:16:53Z</time>
      </trkpt>
      <trkpt lat="48.6837" lon="1.79092">
        <ele>187</ele>
        <time>2017-11-19T11:17:01Z</time>
      </trkpt>
      <trkpt lat="48.68377" lon="1.79101">
        <ele>187</ele>
        <time>2017-11-19T11:17:08Z</time>
      </trkpt>
      <trkpt lat="48.68384" lon="1.7911">
        <ele>187</ele>
        <time>2017-11-19T11:17:18Z</time>
      </trkpt>
      <trkpt lat="48.68392" lon="1.79119">
        <ele>187</ele>
        <time>2017-11-19T11:17:27Z</time>
      </trkpt>
      <trkpt lat="48.684" lon="1.79127">
        <ele>187</ele>
        <time>2017-11-19T11:17:35Z</time>
      </trkpt>
      <trkpt lat="48.68409" lon="1.79134">
        <ele>187</ele>
        <time>2017-11-19T11:17:46Z</time>
      </trkpt>
      <trkpt lat="48.68416" lon="1.79144">
        <ele>187</ele>
        <time>2017-11-19T11:17:55Z</time>
      </trkpt>
      <trkpt lat="48.68424" lon="1.79152">
        <ele>187</ele>
        <time>2017-11-19T11:18:04Z</time>
      </trkpt>
      <trkpt lat="48.68433" lon="1.79158">
        <ele>187</ele>
        <time>2017-11-19T11:18:13Z</time>
      </trkpt>
      <trkpt lat="48.68442" lon="1.79164">
        <ele>187</ele>
        <time>2017-11-19T11:18:26Z</time>
      </trkpt>
      <trkpt lat="48.6845" lon="1.79173">
        <ele>187</ele>
        <time>2017-11-19T11:18:36Z</time>
      </trkpt>
      <trkpt lat="48.68457" lon="1.7918">
        <ele>187</ele>
        <time>2017-11-19T11:18:46Z</time>
      </trkpt>
      <trkpt lat="48.68465" lon="1.79187">
        <ele>187</ele>
        <time>2017-11-19T11:18:56Z</time>
      </trkpt>
      <trkpt lat="48.68472" lon="1.79197">
        <ele>187</ele>
        <time>2017-11-19T11:19:08Z</time>
      </trkpt>
      <trkpt lat="48.6848" lon="1.79205">
        <ele>187</ele>
        <time>2017-11-19T11:19:20Z</time>
      </trkpt>
      <trkpt lat="48.68489" lon="1.79212">
        <ele>187</ele>
        <time>2017-11-19T11:19:29Z</time>
      </trkpt>
      <trkpt lat="48.68497" lon="1.79219">
        <ele>187</ele>
        <time>2017-11-19T11:19:38Z</time>
      </trkpt>
      <trkpt lat="48.68506" lon="1.79227">
        <ele>187</ele>
        <time>2017-11-19T11:19:47Z</time>
      </trkpt>
      <trkpt lat="48.68514" lon="1.79232">
        <ele>188</ele>
        <time>2017-11-19T11:20:02Z</time>
      </trkpt>
      <trkpt lat="48.68523" lon="1.79239">
        <ele>188</ele>
        <time>2017-11-19T11:20:11Z</time>
      </trkpt>
      <trkpt lat="48.6853" lon="1.79245">
        <ele>188</ele>
        <time>2017-11-19T11:20:22Z</time>
      </trkpt>
      <trkpt lat="48.68539" lon="1.79252">
        <ele>189</ele>
        <time>2017-11-19T11:20:29Z</time>
      </trkpt>
      <trkpt lat="48.68548" lon="1.79261">
        <ele>189</ele>
        <time>2017-11-19T11:20:38Z</time>
      </trkpt>
      <trkpt lat="48.68556" lon="1.79269">
        <ele>189</ele>
        <time>2017-11-19T11:20:46Z</time>
      </trkpt>
      <trkpt lat="48.68562" lon="1.79279">
        <ele>189</ele>
        <time>2017-11-19T11:20:55Z</time>
      </trkpt>
      <trkpt lat="48.68571" lon="1.79287">
        <ele>189</ele>
        <time>2017-11-19T11:21:08Z</time>
      </trkpt>
      <trkpt lat="48.68579" lon="1.79296">
        <ele>189</ele>
        <time>2017-11-19T11:21:18Z</time>
      </trkpt>
      <trkpt lat="48.68587" lon="1.79303">
        <ele>189</ele>
        <time>2017-11-19T11:21:27Z</time>
      </trkpt>
      <trkpt lat="48.68596" lon="1.79305">
        <ele>189</ele>
        <time>2017-11-19T11:21:55Z</time>
      </trkpt>
      <trkpt lat="48.68604" lon="1.79313">
        <ele>189</ele>
        <time>2017-11-19T11:22:07Z</time>
      </trkpt>
      <trkpt lat="48.68611" lon="1.79323">
        <ele>189</ele>
        <time>2017-11-19T11:22:17Z</time>
      </trkpt>
      <trkpt lat="48.68619" lon="1.79331">
        <ele>189</ele>
        <time>2017-11-19T11:22:28Z</time>
      </trkpt>
      <trkpt lat="48.68627" lon="1.79341">
        <ele>188</ele>
        <time>2017-11-19T11:22:36Z</time>
      </trkpt>
      <trkpt lat="48.68634" lon="1.7935">
        <ele>188</ele>
        <time>2017-11-19T11:22:45Z</time>
      </trkpt>
      <trkpt lat="48.68644" lon="1.79357">
        <ele>188</ele>
        <time>2017-11-19T11:22:54Z</time>
      </trkpt>
      <trkpt lat="48.68652" lon="1.79364">
        <ele>188</ele>
        <time>2017-11-19T11:23:01Z</time>
      </trkpt>
      <trkpt lat="48.68661" lon="1.79372">
        <ele>188</ele>
        <time>2017-11-19T11:23:10Z</time>
      </trkpt>
      <trkpt lat="48.68665" lon="1.79378">
        <ele>188</ele>
        <time>2017-11-19T11:23:20Z</time>
      </trkpt>
      <trkpt lat="48.68674" lon="1.79383">
        <ele>188</ele>
        <time>2017-11-19T11:23:28Z</time>
      </trkpt>
      <trkpt lat="48.68683" lon="1.79392">
        <ele>187</ele>
        <time>2017-11-19T11:23:39Z</time>
      </trkpt>
      <trkpt lat="48.68692" lon="1.79403">
        <ele>187</ele>
        <time>2017-11-19T12:07:48Z</time>
      </trkpt>
      <trkpt lat="48.68692" lon="1.79403">
        <ele>187</ele>
        <time>2017-11-19T12:10:24Z</time>
      </trkpt>
      <trkpt lat="48.687" lon="1.79408">
        <ele>187</ele>
        <time>2017-11-19T12:10:36Z</time>
      </trkpt>
      <trkpt lat="48.68709" lon="1.79414">
        <ele>187</ele>
        <time>2017-11-19T12:10:49Z</time>
      </trkpt>
      <trkpt lat="48.68718" lon="1.79418">
        <ele>187</ele>
        <time>2017-11-19T12:10:59Z</time>
      </trkpt>
      <trkpt lat="48.68727" lon="1.79424">
        <ele>187</ele>
        <time>2017-11-19T12:11:08Z</time>
      </trkpt>
      <trkpt lat="48.68735" lon="1.79432">
        <ele>187</ele>
        <time>2017-11-19T12:11:19Z</time>
      </trkpt>
      <trkpt lat="48.68743" lon="1.79439">
        <ele>187</ele>
        <time>2017-11-19T12:11:33Z</time>
      </trkpt>
      <trkpt lat="48.68752" lon="1.79447">
        <ele>188</ele>
        <time>2017-11-19T12:11:43Z</time>
      </trkpt>
      <trkpt lat="48.6876" lon="1.79453">
        <ele>188</ele>
        <time>2017-11-19T12:11:53Z</time>
      </trkpt>
      <trkpt lat="48.68769" lon="1.79454">
        <ele>189</ele>
        <time>2017-11-19T12:12:11Z</time>
      </trkpt>
      <trkpt lat="48.68776" lon="1.79462">
        <ele>189</ele>
        <time>2017-11-19T12:12:22Z</time>
      </trkpt>
      <trkpt lat="48.68784" lon="1.79469">
        <ele>189</ele>
        <time>2017-11-19T12:12:42Z</time>
      </trkpt>
      <trkpt lat="48.68793" lon="1.79474">
        <ele>190</ele>
        <time>2017-11-19T12:12:54Z</time>
      </trkpt>
      <trkpt lat="48.68802" lon="1.7948">
        <ele>190</ele>
        <time>2017-11-19T12:13:05Z</time>
      </trkpt>
      <trkpt lat="48.68811" lon="1.79487">
        <ele>190</ele>
        <time>2017-11-19T12:13:14Z</time>
      </trkpt>
      <trkpt lat="48.6882" lon="1.79492">
        <ele>191</ele>
        <time>2017-11-19T12:13:23Z</time>
      </trkpt>
      <trkpt lat="48.68828" lon="1.79499">
        <ele>191</ele>
        <time>2017-11-19T12:13:33Z</time>
      </trkpt>
      <trkpt lat="48.68835" lon="1.79507">
        <ele>191</ele>
        <time>2017-11-19T12:13:42Z</time>
      </trkpt>
      <trkpt lat="48.68844" lon="1.79512">
        <ele>191</ele>
        <time>2017-11-19T12:13:55Z</time>
      </trkpt>
      <trkpt lat="48.68853" lon="1.79516">
        <ele>191</ele>
        <time>2017-11-19T12:14:05Z</time>
      </trkpt>
      <trkpt lat="48.68861" lon="1.79522">
        <ele>191</ele>
        <time>2017-11-19T12:14:38Z</time>
      </trkpt>
      <trkpt lat="48.6887" lon="1.79527">
        <ele>191</ele>
        <time>2017-11-19T12:14:48Z</time>
      </trkpt>
      <trkpt lat="48.68877" lon="1.79537">
        <ele>191</ele>
        <time>2017-11-19T12:15:00Z</time>
      </trkpt>
      <trkpt lat="48.68884" lon="1.79545">
        <ele>191</ele>
        <time>2017-11-19T12:15:17Z</time>
      </trkpt>
      <trkpt lat="48.68893" lon="1.79549">
        <ele>191</ele>
        <time>2017-11-19T12:15:27Z</time>
      </trkpt>
      <trkpt lat="48.68901" lon="1.79556">
        <ele>191</ele>
        <time>2017-11-19T12:15:39Z</time>
      </trkpt>
      <trkpt lat="48.68908" lon="1.79564">
        <ele>191</ele>
        <time>2017-11-19T12:15:51Z</time>
      </trkpt>
      <trkpt lat="48.68916" lon="1.79572">
        <ele>191</ele>
        <time>2017-11-19T12:16:01Z</time>
      </trkpt>
      <trkpt lat="48.68924" lon="1.79581">
        <ele>191</ele>
        <time>2017-11-19T12:16:13Z</time>
      </trkpt>
      <trkpt lat="48.68932" lon="1.79587">
        <ele>191</ele>
        <time>2017-11-19T12:16:23Z</time>
      </trkpt>
      <trkpt lat="48.6894" lon="1.79593">
        <ele>191</ele>
        <time>2017-11-19T12:16:32Z</time>
      </trkpt>
      <trkpt lat="48.6895" lon="1.79594">
        <ele>191</ele>
        <time>2017-11-19T12:16:46Z</time>
      </trkpt>
      <trkpt lat="48.68958" lon="1.79601">
        <ele>191</ele>
        <time>2017-11-19T12:17:35Z</time>
      </trkpt>
      <trkpt lat="48.68966" lon="1.79607">
        <ele>191</ele>
        <time>2017-11-19T12:17:47Z</time>
      </trkpt>
      <trkpt lat="48.68974" lon="1.79614">
        <ele>191</ele>
        <time>2017-11-19T12:17:56Z</time>
      </trkpt>
      <trkpt lat="48.68983" lon="1.79618">
        <ele>191</ele>
        <time>2017-11-19T12:18:07Z</time>
      </trkpt>
      <trkpt lat="48.6899" lon="1.79628">
        <ele>191</ele>
        <time>2017-11-19T12:18:18Z</time>
      </trkpt>
      <trkpt lat="48.68997" lon="1.79636">
        <ele>191</ele>
        <time>2017-11-19T12:18:28Z</time>
      </trkpt>
      <trkpt lat="48.69005" lon="1.79644">
        <ele>190</ele>
        <time>2017-11-19T12:18:37Z</time>
      </trkpt>
      <trkpt lat="48.69013" lon="1.79651">
        <ele>190</ele>
        <time>2017-11-19T12:18:47Z</time>
      </trkpt>
      <trkpt lat="48.69022" lon="1.79657">
        <ele>190</ele>
        <time>2017-11-19T12:18:56Z</time>
      </trkpt>
      <trkpt lat="48.6903" lon="1.79663">
        <ele>189</ele>
        <time>2017-11-19T12:19:06Z</time>
      </trkpt>
      <trkpt lat="48.69038" lon="1.79669">
        <ele>189</ele>
        <time>2017-11-19T12:19:15Z</time>
      </trkpt>
      <trkpt lat="48.69046" lon="1.79677">
        <ele>189</ele>
        <time>2017-11-19T12:19:29Z</time>
      </trkpt>
      <trkpt lat="48.69054" lon="1.79684">
        <ele>189</ele>
        <time>2017-11-19T12:19:41Z</time>
      </trkpt>
      <trkpt lat="48.69062" lon="1.79689">
        <ele>189</ele>
        <time>2017-11-19T12:19:52Z</time>
      </trkpt>
      <trkpt lat="48.6907" lon="1.79698">
        <ele>188</ele>
        <time>2017-11-19T12:20:04Z</time>
      </trkpt>
      <trkpt lat="48.69079" lon="1.79698">
        <ele>188</ele>
        <time>2017-11-19T12:20:28Z</time>
      </trkpt>
      <trkpt lat="48.69088" lon="1.79694">
        <ele>188</ele>
        <time>2017-11-19T12:21:00Z</time>
      </trkpt>
      <trkpt lat="48.69095" lon="1.79703">
        <ele>188</ele>
        <time>2017-11-19T12:21:12Z</time>
      </trkpt>
      <trkpt lat="48.69103" lon="1.79709">
        <ele>188</ele>
        <time>2017-11-19T12:21:46Z</time>
      </trkpt>
      <trkpt lat="48.69111" lon="1.79718">
        <ele>188</ele>
        <time>2017-11-19T12:21:57Z</time>
      </trkpt>
      <trkpt lat="48.69118" lon="1.79726">
        <ele>188</ele>
        <time>2017-11-19T12:22:09Z</time>
      </trkpt>
      <trkpt lat="48.69126" lon="1.79735">
        <ele>189</ele>
        <time>2017-11-19T12:22:22Z</time>
      </trkpt>
      <trkpt lat="48.69134" lon="1.79744">
        <ele>189</ele>
        <time>2017-11-19T12:22:31Z</time>
      </trkpt>
      <trkpt lat="48.69142" lon="1.7975">
        <ele>189</ele>
        <time>2017-11-19T12:22:39Z</time>
      </trkpt>
      <trkpt lat="48.6915" lon="1.79757">
        <ele>189</ele>
        <time>2017-11-19T12:22:50Z</time>
      </trkpt>
      <trkpt lat="48.69159" lon="1.79762">
        <ele>189</ele>
        <time>2017-11-19T12:23:01Z</time>
      </trkpt>
      <trkpt lat="48.69166" lon="1.7977">
        <ele>189</ele>
        <time>2017-11-19T12:23:13Z</time>
      </trkpt>
      <trkpt lat="48.69174" lon="1.79777">
        <ele>189</ele>
        <time>2017-11-19T12:23:24Z</time>
      </trkpt>
      <trkpt lat="48.69183" lon="1.79784">
        <ele>189</ele>
        <time>2017-11-19T12:23:38Z</time>
      </trkpt>
      <trkpt lat="48.69187" lon="1.79796">
        <ele>189</ele>
        <time>2017-11-19T12:23:55Z</time>
      </trkpt>
      <trkpt lat="48.69196" lon="1.79803">
        <ele>189</ele>
        <time>2017-11-19T12:24:08Z</time>
      </trkpt>
      <trkpt lat="48.69206" lon="1.79803">
        <ele>189</ele>
        <time>2017-11-19T12:24:19Z</time>
      </trkpt>
      <trkpt lat="48.69214" lon="1.79809">
        <ele>188</ele>
        <time>2017-11-19T12:24:36Z</time>
      </trkpt>
      <trkpt lat="48.69221" lon="1.79818">
        <ele>188</ele>
        <time>2017-11-19T12:24:48Z</time>
      </trkpt>
      <trkpt lat="48.6923" lon="1.79822">
        <ele>188</ele>
        <time>2017-11-19T12:25:18Z</time>
      </trkpt>
      <trkpt lat="48.6924" lon="1.79825">
        <ele>187</ele>
        <time>2017-11-19T12:25:34Z</time>
      </trkpt>
      <trkpt lat="48.69247" lon="1.79832">
        <ele>187</ele>
        <time>2017-11-19T12:25:45Z</time>
      </trkpt>
      <trkpt lat="48.69256" lon="1.79838">
        <ele>187</ele>
        <time>2017-11-19T12:25:57Z</time>
      </trkpt>
      <trkpt lat="48.69265" lon="1.79845">
        <ele>186</ele>
        <time>2017-11-19T12:26:04Z</time>
      </trkpt>
      <trkpt lat="48.69273" lon="1.79851">
        <ele>186</ele>
        <time>2017-11-19T12:26:12Z</time>
      </trkpt>
      <trkpt lat="48.69282" lon="1.79858">
        <ele>185</ele>
        <time>2017-11-19T12:26:21Z</time>
      </trkpt>
      <trkpt lat="48.69292" lon="1.79864">
        <ele>185</ele>
        <time>2017-11-19T12:26:30Z</time>
      </trkpt>
      <trkpt lat="48.69301" lon="1.79869">
        <ele>184</ele>
        <time>2017-11-19T12:26:38Z</time>
      </trkpt>
      <trkpt lat="48.6931" lon="1.79877">
        <ele>184</ele>
        <time>2017-11-19T12:26:46Z</time>
      </trkpt>
      <trkpt lat="48.69318" lon="1.79883">
        <ele>183</ele>
        <time>2017-11-19T12:26:54Z</time>
      </trkpt>
      <trkpt lat="48.69324" lon="1.79894">
        <ele>182</ele>
        <time>2017-11-19T12:27:19Z</time>
      </trkpt>
      <trkpt lat="48.69334" lon="1.79896">
        <ele>182</ele>
        <time>2017-11-19T12:27:28Z</time>
      </trkpt>
      <trkpt lat="48.69342" lon="1.79903">
        <ele>182</ele>
        <time>2017-11-19T12:27:36Z</time>
      </trkpt>
      <trkpt lat="48.69352" lon="1.79908">
        <ele>182</ele>
        <time>2017-11-19T12:27:44Z</time>
      </trkpt>
      <trkpt lat="48.69358" lon="1.79918">
        <ele>182</ele>
        <time>2017-11-19T12:27:54Z</time>
      </trkpt>
      <trkpt lat="48.69364" lon="1.79928">
        <ele>182</ele>
        <time>2017-11-19T12:28:07Z</time>
      </trkpt>
      <trkpt lat="48.69373" lon="1.79933">
        <ele>182</ele>
        <time>2017-11-19T12:28:34Z</time>
      </trkpt>
      <trkpt lat="48.69381" lon="1.7994">
        <ele>182</ele>
        <time>2017-11-19T12:30:13Z</time>
      </trkpt>
      <trkpt lat="48.69387" lon="1.7995">
        <ele>182</ele>
        <time>2017-11-19T12:30:25Z</time>
      </trkpt>
      <trkpt lat="48.69394" lon="1.79962">
        <ele>182</ele>
        <time>2017-11-19T12:30:33Z</time>
      </trkpt>
      <trkpt lat="48.69401" lon="1.79971">
        <ele>182</ele>
        <time>2017-11-19T12:30:42Z</time>
      </trkpt>
      <trkpt lat="48.6941" lon="1.79977">
        <ele>182</ele>
        <time>2017-11-19T12:30:56Z</time>
      </trkpt>
      <trkpt lat="48.69414" lon="1.7999">
        <ele>181</ele>
        <time>2017-11-19T12:31:06Z</time>
      </trkpt>
      <trkpt lat="48.69418" lon="1.80004">
        <ele>181</ele>
        <time>2017-11-19T12:31:16Z</time>
      </trkpt>
      <trkpt lat="48.69423" lon="1.80016">
        <ele>181</ele>
        <time>2017-11-19T12:31:27Z</time>
      </trkpt>
      <trkpt lat="48.69431" lon="1.80023">
        <ele>181</ele>
        <time>2017-11-19T12:31:35Z</time>
      </trkpt>
      <trkpt lat="48.69439" lon="1.80029">
        <ele>181</ele>
        <time>2017-11-19T12:31:41Z</time>
      </trkpt>
      <trkpt lat="48.69442" lon="1.80043">
        <ele>181</ele>
        <time>2017-11-19T12:32:02Z</time>
      </trkpt>
      <trkpt lat="48.69436" lon="1.80054">
        <ele>180</ele>
        <time>2017-11-19T12:32:18Z</time>
      </trkpt>
      <trkpt lat="48.69445" lon="1.80058">
        <ele>181</ele>
        <time>2017-11-19T12:32:32Z</time>
      </trkpt>
      <trkpt lat="48.69453" lon="1.80066">
        <ele>181</ele>
        <time>2017-11-19T12:32:44Z</time>
      </trkpt>
      <trkpt lat="48.69461" lon="1.80074">
        <ele>181</ele>
        <time>2017-11-19T12:32:53Z</time>
      </trkpt>
      <trkpt lat="48.69469" lon="1.80083">
        <ele>181</ele>
        <time>2017-11-19T12:33:02Z</time>
      </trkpt>
      <trkpt lat="48.69476" lon="1.80092">
        <ele>181</ele>
        <time>2017-11-19T12:33:08Z</time>
      </trkpt>
      <trkpt lat="48.69482" lon="1.80105">
        <ele>181</ele>
        <time>2017-11-19T12:33:17Z</time>
      </trkpt>
      <trkpt lat="48.69489" lon="1.80116">
        <ele>181</ele>
        <time>2017-11-19T12:33:26Z</time>
      </trkpt>
      <trkpt lat="48.69494" lon="1.80127">
        <ele>181</ele>
        <time>2017-11-19T12:33:35Z</time>
      </trkpt>
      <trkpt lat="48.695" lon="1.80138">
        <ele>180</ele>
        <time>2017-11-19T12:33:44Z</time>
      </trkpt>
      <trkpt lat="48.69504" lon="1.80151">
        <ele>180</ele>
        <time>2017-11-19T12:33:54Z</time>
      </trkpt>
      <trkpt lat="48.69512" lon="1.80159">
        <ele>180</ele>
        <time>2017-11-19T12:34:03Z</time>
      </trkpt>
      <trkpt lat="48.6952" lon="1.80167">
        <ele>180</ele>
        <time>2017-11-19T12:34:11Z</time>
      </trkpt>
      <trkpt lat="48.69528" lon="1.80172">
        <ele>181</ele>
        <time>2017-11-19T12:34:17Z</time>
      </trkpt>
      <trkpt lat="48.69537" lon="1.8018">
        <ele>181</ele>
        <time>2017-11-19T12:34:26Z</time>
      </trkpt>
      <trkpt lat="48.69544" lon="1.8019">
        <ele>181</ele>
        <time>2017-11-19T12:34:35Z</time>
      </trkpt>
      <trkpt lat="48.6955" lon="1.80202">
        <ele>181</ele>
        <time>2017-11-19T12:34:45Z</time>
      </trkpt>
      <trkpt lat="48.69553" lon="1.80216">
        <ele>180</ele>
        <time>2017-11-19T12:34:54Z</time>
      </trkpt>
      <trkpt lat="48.69558" lon="1.80227">
        <ele>180</ele>
        <time>2017-11-19T12:35:04Z</time>
      </trkpt>
      <trkpt lat="48.69564" lon="1.80239">
        <ele>180</ele>
        <time>2017-11-19T12:35:15Z</time>
      </trkpt>
      <trkpt lat="48.69571" lon="1.80249">
        <ele>180</ele>
        <time>2017-11-19T12:35:24Z</time>
      </trkpt>
      <trkpt lat="48.69579" lon="1.80257">
        <ele>181</ele>
        <time>2017-11-19T12:35:31Z</time>
      </trkpt>
      <trkpt lat="48.69583" lon="1.80269">
        <ele>181</ele>
        <time>2017-11-19T12:35:40Z</time>
      </trkpt>
      <trkpt lat="48.69592" lon="1.80277">
        <ele>182</ele>
        <time>2017-11-19T12:35:49Z</time>
      </trkpt>
      <trkpt lat="48.69598" lon="1.80288">
        <ele>182</ele>
        <time>2017-11-19T12:35:57Z</time>
      </trkpt>
      <trkpt lat="48.69606" lon="1.80297">
        <ele>182</ele>
        <time>2017-11-19T12:36:06Z</time>
      </trkpt>
      <trkpt lat="48.69614" lon="1.80307">
        <ele>183</ele>
        <time>2017-11-19T12:36:15Z</time>
      </trkpt>
      <trkpt lat="48.69622" lon="1.80314">
        <ele>183</ele>
        <time>2017-11-19T12:36:22Z</time>
      </trkpt>
      <trkpt lat="48.6963" lon="1.80323">
        <ele>183</ele>
        <time>2017-11-19T12:36:30Z</time>
      </trkpt>
      <trkpt lat="48.69637" lon="1.80334">
        <ele>183</ele>
        <time>2017-11-19T12:36:38Z</time>
      </trkpt>
      <trkpt lat="48.69641" lon="1.80345">
        <ele>183</ele>
        <time>2017-11-19T12:36:47Z</time>
      </trkpt>
      <trkpt lat="48.69647" lon="1.80356">
        <ele>183</ele>
        <time>2017-11-19T12:36:56Z</time>
      </trkpt>
      <trkpt lat="48.69652" lon="1.80368">
        <ele>183</ele>
        <time>2017-11-19T12:37:05Z</time>
      </trkpt>
      <trkpt lat="48.69659" lon="1.80378">
        <ele>183</ele>
        <time>2017-11-19T12:37:14Z</time>
      </trkpt>
      <trkpt lat="48.69665" lon="1.80389">
        <ele>183</ele>
        <time>2017-11-19T12:37:24Z</time>
      </trkpt>
      <trkpt lat="48.69671" lon="1.80399">
        <ele>182</ele>
        <time>2017-11-19T12:37:33Z</time>
      </trkpt>
      <trkpt lat="48.6968" lon="1.80407">
        <ele>182</ele>
        <time>2017-11-19T12:37:40Z</time>
      </trkpt>
      <trkpt lat="48.69687" lon="1.80417">
        <ele>182</ele>
        <time>2017-11-19T12:37:47Z</time>
      </trkpt>
      <trkpt lat="48.69695" lon="1.80428">
        <ele>181</ele>
        <time>2017-11-19T12:37:55Z</time>
      </trkpt>
      <trkpt lat="48.69694" lon="1.80442">
        <ele>181</ele>
        <time>2017-11-19T12:39:21Z</time>
      </trkpt>
      <trkpt lat="48.69686" lon="1.80452">
        <ele>182</ele>
        <time>2017-11-19T12:39:38Z</time>
      </trkpt>
      <trkpt lat="48.6968" lon="1.80462">
        <ele>182</ele>
        <time>2017-11-19T12:39:51Z</time>
      </trkpt>
      <trkpt lat="48.69674" lon="1.80474">
        <ele>182</ele>
        <time>2017-11-19T12:40:12Z</time>
      </trkpt>
      <trkpt lat="48.69666" lon="1.80482">
        <ele>183</ele>
        <time>2017-11-19T12:40:27Z</time>
      </trkpt>
      <trkpt lat="48.69658" lon="1.80489">
        <ele>183</ele>
        <time>2017-11-19T12:40:42Z</time>
      </trkpt>
      <trkpt lat="48.6965" lon="1.80497">
        <ele>183</ele>
        <time>2017-11-19T12:40:55Z</time>
      </trkpt>
      <trkpt lat="48.69642" lon="1.80504">
        <ele>183</ele>
        <time>2017-11-19T12:41:06Z</time>
      </trkpt>
      <trkpt lat="48.69634" lon="1.80509">
        <ele>183</ele>
        <time>2017-11-19T12:41:17Z</time>
      </trkpt>
      <trkpt lat="48.69625" lon="1.80514">
        <ele>183</ele>
        <time>2017-11-19T12:41:27Z</time>
      </trkpt>
      <trkpt lat="48.69619" lon="1.80524">
        <ele>182</ele>
        <time>2017-11-19T12:41:36Z</time>
      </trkpt>
      <trkpt lat="48.69611" lon="1.80531">
        <ele>182</ele>
        <time>2017-11-19T12:41:45Z</time>
      </trkpt>
      <trkpt lat="48.69602" lon="1.80536">
        <ele>182</ele>
        <time>2017-11-19T12:41:56Z</time>
      </trkpt>
      <trkpt lat="48.69593" lon="1.80545">
        <ele>183</ele>
        <time>2017-11-19T12:42:09Z</time>
      </trkpt>
      <trkpt lat="48.69586" lon="1.80553">
        <ele>183</ele>
        <time>2017-11-19T12:42:19Z</time>
      </trkpt>
      <trkpt lat="48.69578" lon="1.80559">
        <ele>183</ele>
        <time>2017-11-19T12:42:30Z</time>
      </trkpt>
      <trkpt lat="48.69569" lon="1.80564">
        <ele>183</ele>
        <time>2017-11-19T12:42:37Z</time>
      </trkpt>
      <trkpt lat="48.6956" lon="1.80571">
        <ele>183</ele>
        <time>2017-11-19T12:42:47Z</time>
      </trkpt>
      <trkpt lat="48.69551" lon="1.80578">
        <ele>183</ele>
        <time>2017-11-19T12:42:56Z</time>
      </trkpt>
      <trkpt lat="48.69543" lon="1.80585">
        <ele>183</ele>
        <time>2017-11-19T12:43:06Z</time>
      </trkpt>
      <trkpt lat="48.69536" lon="1.80596">
        <ele>183</ele>
        <time>2017-11-19T12:43:16Z</time>
      </trkpt>
      <trkpt lat="48.69529" lon="1.80607">
        <ele>183</ele>
        <time>2017-11-19T12:43:26Z</time>
      </trkpt>
      <trkpt lat="48.69524" lon="1.80618">
        <ele>183</ele>
        <time>2017-11-19T12:43:36Z</time>
      </trkpt>
      <trkpt lat="48.69517" lon="1.80627">
        <ele>183</ele>
        <time>2017-11-19T12:43:46Z</time>
      </trkpt>
      <trkpt lat="48.69512" lon="1.80639">
        <ele>184</ele>
        <time>2017-11-19T12:44:00Z</time>
      </trkpt>
      <trkpt lat="48.69505" lon="1.80648">
        <ele>184</ele>
        <time>2017-11-19T12:44:11Z</time>
      </trkpt>
      <trkpt lat="48.69497" lon="1.80658">
        <ele>184</ele>
        <time>2017-11-19T12:44:23Z</time>
      </trkpt>
      <trkpt lat="48.69491" lon="1.80669">
        <ele>184</ele>
        <time>2017-11-19T12:44:43Z</time>
      </trkpt>
      <trkpt lat="48.69482" lon="1.80673">
        <ele>184</ele>
        <time>2017-11-19T12:45:37Z</time>
      </trkpt>
      <trkpt lat="48.69475" lon="1.80682">
        <ele>184</ele>
        <time>2017-11-19T12:46:42Z</time>
      </trkpt>
      <trkpt lat="48.69484" lon="1.80687">
        <ele>184</ele>
        <time>2017-11-19T12:50:16Z</time>
      </trkpt>
      <trkpt lat="48.69475" lon="1.80679">
        <ele>184</ele>
        <time>2017-11-19T12:51:07Z</time>
      </trkpt>
      <trkpt lat="48.69465" lon="1.80679">
        <ele>184</ele>
        <time>2017-11-19T12:51:19Z</time>
      </trkpt>
      <trkpt lat="48.69456" lon="1.80679">
        <ele>184</ele>
        <time>2017-11-19T12:51:31Z</time>
      </trkpt>
      <trkpt lat="48.69446" lon="1.80675">
        <ele>184</ele>
        <time>2017-11-19T12:51:43Z</time>
      </trkpt>
      <trkpt lat="48.69436" lon="1.80674">
        <ele>184</ele>
        <time>2017-11-19T12:51:52Z</time>
      </trkpt>
      <trkpt lat="48.69427" lon="1.80674">
        <ele>184</ele>
        <time>2017-11-19T12:52:01Z</time>
      </trkpt>
      <trkpt lat="48.69419" lon="1.80682">
        <ele>184</ele>
        <time>2017-11-19T12:52:08Z</time>
      </trkpt>
      <trkpt lat="48.69411" lon="1.80691">
        <ele>183</ele>
        <time>2017-11-19T12:52:17Z</time>
      </trkpt>
      <trkpt lat="48.69402" lon="1.807">
        <ele>183</ele>
        <time>2017-11-19T12:52:26Z</time>
      </trkpt>
      <trkpt lat="48.69394" lon="1.80708">
        <ele>183</ele>
        <time>2017-11-19T12:52:35Z</time>
      </trkpt>
      <trkpt lat="48.69386" lon="1.80715">
        <ele>182</ele>
        <time>2017-11-19T12:52:43Z</time>
      </trkpt>
      <trkpt lat="48.69378" lon="1.80722">
        <ele>182</ele>
        <time>2017-11-19T12:53:55Z</time>
      </trkpt>
      <trkpt lat="48.6937" lon="1.80729">
        <ele>182</ele>
        <time>2017-11-19T12:54:18Z</time>
      </trkpt>
      <trkpt lat="48.69363" lon="1.80739">
        <ele>182</ele>
        <time>2017-11-19T12:54:30Z</time>
      </trkpt>
      <trkpt lat="48.69355" lon="1.80746">
        <ele>182</ele>
        <time>2017-11-19T12:54:37Z</time>
      </trkpt>
      <trkpt lat="48.69347" lon="1.80754">
        <ele>182</ele>
        <time>2017-11-19T12:54:45Z</time>
      </trkpt>
      <trkpt lat="48.69339" lon="1.80763">
        <ele>182</ele>
        <time>2017-11-19T12:54:57Z</time>
      </trkpt>
      <trkpt lat="48.69332" lon="1.80772">
        <ele>182</ele>
        <time>2017-11-19T12:55:06Z</time>
      </trkpt>
      <trkpt lat="48.69325" lon="1.80781">
        <ele>182</ele>
        <time>2017-11-19T12:55:16Z</time>
      </trkpt>
      <trkpt lat="48.69318" lon="1.8079">
        <ele>182</ele>
        <time>2017-11-19T12:55:25Z</time>
      </trkpt>
      <trkpt lat="48.69309" lon="1.80798">
        <ele>182</ele>
        <time>2017-11-19T12:55:34Z</time>
      </trkpt>
      <trkpt lat="48.69302" lon="1.80807">
        <ele>182</ele>
        <time>2017-11-19T12:55:42Z</time>
      </trkpt>
      <trkpt lat="48.69295" lon="1.80815">
        <ele>183</ele>
        <time>2017-11-19T12:55:54Z</time>
      </trkpt>
      <trkpt lat="48.69288" lon="1.80824">
        <ele>183</ele>
        <time>2017-11-19T12:56:01Z</time>
      </trkpt>
      <trkpt lat="48.6928" lon="1.80831">
        <ele>183</ele>
        <time>2017-11-19T12:56:08Z</time>
      </trkpt>
      <trkpt lat="48.69272" lon="1.80839">
        <ele>183</ele>
        <time>2017-11-19T12:56:15Z</time>
      </trkpt>
      <trkpt lat="48.69264" lon="1.80845">
        <ele>183</ele>
        <time>2017-11-19T12:56:30Z</time>
      </trkpt>
      <trkpt lat="48.69256" lon="1.80853">
        <ele>183</ele>
        <time>2017-11-19T12:56:41Z</time>
      </trkpt>
      <trkpt lat="48.69248" lon="1.8086">
        <ele>183</ele>
        <time>2017-11-19T12:56:49Z</time>
      </trkpt>
      <trkpt lat="48.6924" lon="1.80867">
        <ele>184</ele>
        <time>2017-11-19T12:56:59Z</time>
      </trkpt>
      <trkpt lat="48.69232" lon="1.80876">
        <ele>184</ele>
        <time>2017-11-19T12:57:09Z</time>
      </trkpt>
      <trkpt lat="48.69224" lon="1.80885">
        <ele>184</ele>
        <time>2017-11-19T12:57:21Z</time>
      </trkpt>
      <trkpt lat="48.69217" lon="1.80894">
        <ele>184</ele>
        <time>2017-11-19T12:57:30Z</time>
      </trkpt>
      <trkpt lat="48.69208" lon="1.809">
        <ele>185</ele>
        <time>2017-11-19T12:57:38Z</time>
      </trkpt>
      <trkpt lat="48.692" lon="1.80909">
        <ele>185</ele>
        <time>2017-11-19T12:57:48Z</time>
      </trkpt>
      <trkpt lat="48.69192" lon="1.80917">
        <ele>185</ele>
        <time>2017-11-19T12:57:57Z</time>
      </trkpt>
      <trkpt lat="48.69184" lon="1.80925">
        <ele>185</ele>
        <time>2017-11-19T12:58:08Z</time>
      </trkpt>
      <trkpt lat="48.69175" lon="1.8093">
        <ele>185</ele>
        <time>2017-11-19T12:58:16Z</time>
      </trkpt>
      <trkpt lat="48.69166" lon="1.80934">
        <ele>185</ele>
        <time>2017-11-19T12:58:25Z</time>
      </trkpt>
      <trkpt lat="48.69156" lon="1.80935">
        <ele>185</ele>
        <time>2017-11-19T12:58:48Z</time>
      </trkpt>
      <trkpt lat="48.69146" lon="1.80936">
        <ele>185</ele>
        <time>2017-11-19T12:59:01Z</time>
      </trkpt>
      <trkpt lat="48.69137" lon="1.80934">
        <ele>185</ele>
        <time>2017-11-19T12:59:11Z</time>
      </trkpt>
      <trkpt lat="48.69128" lon="1.80929">
        <ele>185</ele>
        <time>2017-11-19T12:59:20Z</time>
      </trkpt>
      <trkpt lat="48.6912" lon="1.80925">
        <ele>184</ele>
        <time>2017-11-19T12:59:30Z</time>
      </trkpt>
      <trkpt lat="48.69111" lon="1.80918">
        <ele>184</ele>
        <time>2017-11-19T12:59:44Z</time>
      </trkpt>
      <trkpt lat="48.69101" lon="1.80915">
        <ele>184</ele>
        <time>2017-11-19T12:59:54Z</time>
      </trkpt>
      <trkpt lat="48.69092" lon="1.80911">
        <ele>183</ele>
        <time>2017-11-19T13:00:03Z</time>
      </trkpt>
      <trkpt lat="48.69082" lon="1.80909">
        <ele>183</ele>
        <time>2017-11-19T13:00:10Z</time>
      </trkpt>
      <trkpt lat="48.69073" lon="1.80905">
        <ele>183</ele>
        <time>2017-11-19T13:00:19Z</time>
      </trkpt>
      <trkpt lat="48.69064" lon="1.80899">
        <ele>183</ele>
        <time>2017-11-19T13:00:28Z</time>
      </trkpt>
      <trkpt lat="48.69054" lon="1.80899">
        <ele>183</ele>
        <time>2017-11-19T13:00:40Z</time>
      </trkpt>
      <trkpt lat="48.69045" lon="1.80898">
        <ele>183</ele>
        <time>2017-11-19T13:00:49Z</time>
      </trkpt>
      <trkpt lat="48.69035" lon="1.80898">
        <ele>183</ele>
        <time>2017-11-19T13:01:02Z</time>
      </trkpt>
      <trkpt lat="48.69026" lon="1.80893">
        <ele>183</ele>
        <time>2017-11-19T13:01:12Z</time>
      </trkpt>
      <trkpt lat="48.69017" lon="1.8089">
        <ele>183</ele>
        <time>2017-11-19T13:01:21Z</time>
      </trkpt>
      <trkpt lat="48.69008" lon="1.80884">
        <ele>183</ele>
        <time>2017-11-19T13:01:31Z</time>
      </trkpt>
      <trkpt lat="48.68999" lon="1.80879">
        <ele>183</ele>
        <time>2017-11-19T13:01:43Z</time>
      </trkpt>
      <trkpt lat="48.6899" lon="1.80879">
        <ele>183</ele>
        <time>2017-11-19T13:01:53Z</time>
      </trkpt>
      <trkpt lat="48.6898" lon="1.8088">
        <ele>184</ele>
        <time>2017-11-19T13:02:03Z</time>
      </trkpt>
      <trkpt lat="48.68971" lon="1.80876">
        <ele>184</ele>
        <time>2017-11-19T13:02:12Z</time>
      </trkpt>
      <trkpt lat="48.68962" lon="1.80872">
        <ele>184</ele>
        <time>2017-11-19T13:02:22Z</time>
      </trkpt>
      <trkpt lat="48.68954" lon="1.80863">
        <ele>184</ele>
        <time>2017-11-19T13:02:32Z</time>
      </trkpt>
      <trkpt lat="48.68945" lon="1.80864">
        <ele>184</ele>
        <time>2017-11-19T13:03:08Z</time>
      </trkpt>
      <trkpt lat="48.68936" lon="1.80859">
        <ele>185</ele>
        <time>2017-11-19T13:03:48Z</time>
      </trkpt>
      <trkpt lat="48.68927" lon="1.80858">
        <ele>185</ele>
        <time>2017-11-19T13:04:09Z</time>
      </trkpt>
      <trkpt lat="48.68918" lon="1.80852">
        <ele>185</ele>
        <time>2017-11-19T13:04:16Z</time>
      </trkpt>
      <trkpt lat="48.68909" lon="1.80854">
        <ele>185</ele>
        <time>2017-11-19T13:04:28Z</time>
      </trkpt>
      <trkpt lat="48.68899" lon="1.80853">
        <ele>185</ele>
        <time>2017-11-19T13:04:38Z</time>
      </trkpt>
      <trkpt lat="48.6889" lon="1.80852">
        <ele>185</ele>
        <time>2017-11-19T13:04:51Z</time>
      </trkpt>
      <trkpt lat="48.6888" lon="1.80851">
        <ele>185</ele>
        <time>2017-11-19T13:05:01Z</time>
      </trkpt>
      <trkpt lat="48.68869" lon="1.80849">
        <ele>185</ele>
        <time>2017-11-19T13:05:13Z</time>
      </trkpt>
      <trkpt lat="48.6886" lon="1.80842">
        <ele>185</ele>
        <time>2017-11-19T13:05:23Z</time>
      </trkpt>
      <trkpt lat="48.68851" lon="1.80841">
        <ele>185</ele>
        <time>2017-11-19T13:05:33Z</time>
      </trkpt>
      <trkpt lat="48.68842" lon="1.80837">
        <ele>185</ele>
        <time>2017-11-19T13:05:42Z</time>
      </trkpt>
      <trkpt lat="48.68833" lon="1.80838">
        <ele>185</ele>
        <time>2017-11-19T13:06:00Z</time>
      </trkpt>
      <trkpt lat="48.68824" lon="1.80838">
        <ele>185</ele>
        <time>2017-11-19T13:06:37Z</time>
      </trkpt>
      <trkpt lat="48.68815" lon="1.80833">
        <ele>185</ele>
        <time>2017-11-19T13:06:51Z</time>
      </trkpt>
      <trkpt lat="48.68807" lon="1.80825">
        <ele>185</ele>
        <time>2017-11-19T13:06:59Z</time>
      </trkpt>
      <trkpt lat="48.68799" lon="1.80818">
        <ele>186</ele>
        <time>2017-11-19T13:07:10Z</time>
      </trkpt>
      <trkpt lat="48.68789" lon="1.80813">
        <ele>186</ele>
        <time>2017-11-19T13:07:19Z</time>
      </trkpt>
      <trkpt lat="48.68781" lon="1.80807">
        <ele>186</ele>
        <time>2017-11-19T13:07:35Z</time>
      </trkpt>
      <trkpt lat="48.68772" lon="1.80814">
        <ele>186</ele>
        <time>2017-11-19T13:07:46Z</time>
      </trkpt>
      <trkpt lat="48.68763" lon="1.80819">
        <ele>186</ele>
        <time>2017-11-19T13:07:59Z</time>
      </trkpt>
      <trkpt lat="48.68754" lon="1.80818">
        <ele>186</ele>
        <time>2017-11-19T13:08:10Z</time>
      </trkpt>
      <trkpt lat="48.68744" lon="1.80817">
        <ele>186</ele>
        <time>2017-11-19T13:08:20Z</time>
      </trkpt>
      <trkpt lat="48.68735" lon="1.80816">
        <ele>186</ele>
        <time>2017-11-19T13:08:31Z</time>
      </trkpt>
      <trkpt lat="48.68728" lon="1.80806">
        <ele>187</ele>
        <time>2017-11-19T13:08:53Z</time>
      </trkpt>
      <trkpt lat="48.68719" lon="1.80808">
        <ele>187</ele>
        <time>2017-11-19T13:09:34Z</time>
      </trkpt>
      <trkpt lat="48.6871" lon="1.80813">
        <ele>187</ele>
        <time>2017-11-19T13:09:59Z</time>
      </trkpt>
      <trkpt lat="48.68701" lon="1.80805">
        <ele>188</ele>
        <time>2017-11-19T13:10:09Z</time>
      </trkpt>
      <trkpt lat="48.68692" lon="1.80801">
        <ele>188</ele>
        <time>2017-11-19T13:10:17Z</time>
      </trkpt>
      <trkpt lat="48.68683" lon="1.80801">
        <ele>188</ele>
        <time>2017-11-19T13:11:39Z</time>
      </trkpt>
      <trkpt lat="48.68675" lon="1.80792">
        <ele>189</ele>
        <time>2017-11-19T13:11:46Z</time>
      </trkpt>
      <trkpt lat="48.68667" lon="1.80785">
        <ele>189</ele>
        <time>2017-11-19T13:11:54Z</time>
      </trkpt>
      <trkpt lat="48.68657" lon="1.80778">
        <ele>189</ele>
        <time>2017-11-19T13:12:01Z</time>
      </trkpt>
      <trkpt lat="48.68647" lon="1.80778">
        <ele>188</ele>
        <time>2017-11-19T13:12:11Z</time>
      </trkpt>
      <trkpt lat="48.68638" lon="1.80772">
        <ele>188</ele>
        <time>2017-11-19T13:12:19Z</time>
      </trkpt>
      <trkpt lat="48.68628" lon="1.80769">
        <ele>187</ele>
        <time>2017-11-19T13:12:26Z</time>
      </trkpt>
      <trkpt lat="48.68619" lon="1.8077">
        <ele>186</ele>
        <time>2017-11-19T13:12:33Z</time>
      </trkpt>
      <trkpt lat="48.68609" lon="1.80768">
        <ele>186</ele>
        <time>2017-11-19T13:12:45Z</time>
      </trkpt>
      <trkpt lat="48.68599" lon="1.80764">
        <ele>185</ele>
        <time>2017-11-19T13:12:54Z</time>
      </trkpt>
      <trkpt lat="48.6859" lon="1.80764">
        <ele>184</ele>
        <time>2017-11-19T13:13:03Z</time>
      </trkpt>
      <trkpt lat="48.68581" lon="1.80764">
        <ele>184</ele>
        <time>2017-11-19T13:13:11Z</time>
      </trkpt>
      <trkpt lat="48.68572" lon="1.80765">
        <ele>183</ele>
        <time>2017-11-19T13:13:20Z</time>
      </trkpt>
      <trkpt lat="48.68562" lon="1.80765">
        <ele>183</ele>
        <time>2017-11-19T13:15:37Z</time>
      </trkpt>
      <trkpt lat="48.68555" lon="1.80757">
        <ele>183</ele>
        <time>2017-11-19T13:18:23Z</time>
      </trkpt>
      <trkpt lat="48.68565" lon="1.80758">
        <ele>183</ele>
        <time>2017-11-19T13:19:17Z</time>
      </trkpt>
      <trkpt lat="48.68556" lon="1.80758">
        <ele>183</ele>
        <time>2017-11-19T13:19:43Z</time>
      </trkpt>
      <trkpt lat="48.68547" lon="1.80753">
        <ele>182</ele>
        <time>2017-11-19T13:19:54Z</time>
      </trkpt>
      <trkpt lat="48.68538" lon="1.80751">
        <ele>182</ele>
        <time>2017-11-19T13:20:04Z</time>
      </trkpt>
      <trkpt lat="48.68529" lon="1.8075">
        <ele>181</ele>
        <time>2017-11-19T13:20:13Z</time>
      </trkpt>
      <trkpt lat="48.68519" lon="1.80749">
        <ele>181</ele>
        <time>2017-11-19T13:20:20Z</time>
      </trkpt>
      <trkpt lat="48.68509" lon="1.80747">
        <ele>180</ele>
        <time>2017-11-19T13:20:31Z</time>
      </trkpt>
      <trkpt lat="48.68498" lon="1.80744">
        <ele>180</ele>
        <time>2017-11-19T13:20:40Z</time>
      </trkpt>
      <trkpt lat="48.6849" lon="1.80737">
        <ele>180</ele>
        <time>2017-11-19T13:20:48Z</time>
      </trkpt>
      <trkpt lat="48.68481" lon="1.80734">
        <ele>180</ele>
        <time>2017-11-19T13:20:58Z</time>
      </trkpt>
      <trkpt lat="48.68472" lon="1.80733">
        <ele>180</ele>
        <time>2017-11-19T13:21:07Z</time>
      </trkpt>
      <trkpt lat="48.68462" lon="1.80732">
        <ele>180</ele>
        <time>2017-11-19T13:21:14Z</time>
      </trkpt>
      <trkpt lat="48.68453" lon="1.80728">
        <ele>180</ele>
        <time>2017-11-19T13:21:24Z</time>
      </trkpt>
      <trkpt lat="48.68445" lon="1.80723">
        <ele>180</ele>
        <time>2017-11-19T13:21:32Z</time>
      </trkpt>
      <trkpt lat="48.68435" lon="1.80721">
        <ele>180</ele>
        <time>2017-11-19T13:21:38Z</time>
      </trkpt>
      <trkpt lat="48.68425" lon="1.80719">
        <ele>180</ele>
        <time>2017-11-19T13:21:47Z</time>
      </trkpt>
      <trkpt lat="48.68416" lon="1.80716">
        <ele>180</ele>
        <time>2017-11-19T13:21:56Z</time>
      </trkpt>
      <trkpt lat="48.68408" lon="1.80709">
        <ele>180</ele>
        <time>2017-11-19T13:22:07Z</time>
      </trkpt>
      <trkpt lat="48.68399" lon="1.80707">
        <ele>180</ele>
        <time>2017-11-19T13:22:17Z</time>
      </trkpt>
      <trkpt lat="48.68389" lon="1.80705">
        <ele>180</ele>
        <time>2017-11-19T13:22:29Z</time>
      </trkpt>
      <trkpt lat="48.6838" lon="1.80703">
        <ele>180</ele>
        <time>2017-11-19T13:22:37Z</time>
      </trkpt>
      <trkpt lat="48.68371" lon="1.80701">
        <ele>180</ele>
        <time>2017-11-19T13:22:46Z</time>
      </trkpt>
      <trkpt lat="48.68361" lon="1.80697">
        <ele>180</ele>
        <time>2017-11-19T13:22:56Z</time>
      </trkpt>
      <trkpt lat="48.68351" lon="1.80694">
        <ele>180</ele>
        <time>2017-11-19T13:23:06Z</time>
      </trkpt>
      <trkpt lat="48.68342" lon="1.80692">
        <ele>180</ele>
        <time>2017-11-19T13:23:16Z</time>
      </trkpt>
      <trkpt lat="48.68332" lon="1.80692">
        <ele>180</ele>
        <time>2017-11-19T13:23:23Z</time>
      </trkpt>
      <trkpt lat="48.68323" lon="1.80689">
        <ele>180</ele>
        <time>2017-11-19T13:23:30Z</time>
      </trkpt>
      <trkpt lat="48.68314" lon="1.80687">
        <ele>180</ele>
        <time>2017-11-19T13:23:36Z</time>
      </trkpt>
      <trkpt lat="48.68305" lon="1.80684">
        <ele>179</ele>
        <time>2017-11-19T13:23:44Z</time>
      </trkpt>
      <trkpt lat="48.68296" lon="1.80679">
        <ele>179</ele>
        <time>2017-11-19T13:23:54Z</time>
      </trkpt>
      <trkpt lat="48.68286" lon="1.80677">
        <ele>179</ele>
        <time>2017-11-19T13:24:05Z</time>
      </trkpt>
      <trkpt lat="48.68277" lon="1.80673">
        <ele>178</ele>
        <time>2017-11-19T13:24:13Z</time>
      </trkpt>
      <trkpt lat="48.68268" lon="1.80668">
        <ele>178</ele>
        <time>2017-11-19T13:24:23Z</time>
      </trkpt>
      <trkpt lat="48.68258" lon="1.80667">
        <ele>177</ele>
        <time>2017-11-19T13:24:33Z</time>
      </trkpt>
      <trkpt lat="48.68248" lon="1.80664">
        <ele>177</ele>
        <time>2017-11-19T13:24:40Z</time>
      </trkpt>
      <trkpt lat="48.6824" lon="1.8066">
        <ele>177</ele>
        <time>2017-11-19T13:24:50Z</time>
      </trkpt>
      <trkpt lat="48.68231" lon="1.80657">
        <ele>177</ele>
        <time>2017-11-19T13:24:58Z</time>
      </trkpt>
      <trkpt lat="48.68221" lon="1.80655">
        <ele>177</ele>
        <time>2017-11-19T13:25:09Z</time>
      </trkpt>
      <trkpt lat="48.68212" lon="1.80652">
        <ele>177</ele>
        <time>2017-11-19T13:25:16Z</time>
      </trkpt>
      <trkpt lat="48.68203" lon="1.80651">
        <ele>177</ele>
        <time>2017-11-19T13:25:24Z</time>
      </trkpt>
      <trkpt lat="48.68194" lon="1.80647">
        <ele>177</ele>
        <time>2017-11-19T13:25:34Z</time>
      </trkpt>
      <trkpt lat="48.68185" lon="1.80644">
        <ele>177</ele>
        <time>2017-11-19T13:25:43Z</time>
      </trkpt>
      <trkpt lat="48.68176" lon="1.80641">
        <ele>177</ele>
        <time>2017-11-19T13:25:51Z</time>
      </trkpt>
      <trkpt lat="48.68167" lon="1.80637">
        <ele>177</ele>
        <time>2017-11-19T13:26:02Z</time>
      </trkpt>
      <trkpt lat="48.68158" lon="1.80634">
        <ele>177</ele>
        <time>2017-11-19T13:26:12Z</time>
      </trkpt>
      <trkpt lat="48.68149" lon="1.80631">
        <ele>177</ele>
        <time>2017-11-19T13:26:24Z</time>
      </trkpt>
      <trkpt lat="48.68139" lon="1.80629">
        <ele>177</ele>
        <time>2017-11-19T13:26:33Z</time>
      </trkpt>
      <trkpt lat="48.6813" lon="1.80628">
        <ele>177</ele>
        <time>2017-11-19T13:26:41Z</time>
      </trkpt>
      <trkpt lat="48.68121" lon="1.80625">
        <ele>178</ele>
        <time>2017-11-19T13:26:52Z</time>
      </trkpt>
      <trkpt lat="48.68111" lon="1.80624">
        <ele>178</ele>
        <time>2017-11-19T13:27:03Z</time>
      </trkpt>
      <trkpt lat="48.68102" lon="1.80619">
        <ele>178</ele>
        <time>2017-11-19T13:27:17Z</time>
      </trkpt>
      <trkpt lat="48.68093" lon="1.80614">
        <ele>178</ele>
        <time>2017-11-19T13:27:29Z</time>
      </trkpt>
      <trkpt lat="48.68083" lon="1.80611">
        <ele>178</ele>
        <time>2017-11-19T13:27:39Z</time>
      </trkpt>
      <trkpt lat="48.68074" lon="1.8061">
        <ele>178</ele>
        <time>2017-11-19T13:27:47Z</time>
      </trkpt>
      <trkpt lat="48.68064" lon="1.80608">
        <ele>178</ele>
        <time>2017-11-19T13:27:55Z</time>
      </trkpt>
      <trkpt lat="48.68056" lon="1.80606">
        <ele>178</ele>
        <time>2017-11-19T13:28:02Z</time>
      </trkpt>
      <trkpt lat="48.68047" lon="1.80601">
        <ele>179</ele>
        <time>2017-11-19T13:28:12Z</time>
      </trkpt>
      <trkpt lat="48.68037" lon="1.80599">
        <ele>179</ele>
        <time>2017-11-19T13:28:20Z</time>
      </trkpt>
      <trkpt lat="48.68028" lon="1.80595">
        <ele>179</ele>
        <time>2017-11-19T13:28:27Z</time>
      </trkpt>
      <trkpt lat="48.68019" lon="1.8059">
        <ele>179</ele>
        <time>2017-11-19T13:28:39Z</time>
      </trkpt>
      <trkpt lat="48.6801" lon="1.80588">
        <ele>180</ele>
        <time>2017-11-19T13:28:49Z</time>
      </trkpt>
      <trkpt lat="48.68001" lon="1.80593">
        <ele>180</ele>
        <time>2017-11-19T13:28:58Z</time>
      </trkpt>
      <trkpt lat="48.67994" lon="1.80604">
        <ele>179</ele>
        <time>2017-11-19T13:29:13Z</time>
      </trkpt>
      <trkpt lat="48.67987" lon="1.80614">
        <ele>179</ele>
        <time>2017-11-19T13:29:28Z</time>
      </trkpt>
      <trkpt lat="48.6798" lon="1.80625">
        <ele>179</ele>
        <time>2017-11-19T13:29:38Z</time>
      </trkpt>
      <trkpt lat="48.67972" lon="1.80634">
        <ele>179</ele>
        <time>2017-11-19T13:29:48Z</time>
      </trkpt>
      <trkpt lat="48.67965" lon="1.80644">
        <ele>179</ele>
        <time>2017-11-19T13:29:58Z</time>
      </trkpt>
      <trkpt lat="48.67959" lon="1.80657">
        <ele>179</ele>
        <time>2017-11-19T13:30:09Z</time>
      </trkpt>
      <trkpt lat="48.67952" lon="1.80667">
        <ele>179</ele>
        <time>2017-11-19T13:30:19Z</time>
      </trkpt>
      <trkpt lat="48.67945" lon="1.80678">
        <ele>179</ele>
        <time>2017-11-19T13:30:29Z</time>
      </trkpt>
      <trkpt lat="48.67938" lon="1.80688">
        <ele>179</ele>
        <time>2017-11-19T13:30:40Z</time>
      </trkpt>
      <trkpt lat="48.67931" lon="1.80697">
        <ele>179</ele>
        <time>2017-11-19T13:30:49Z</time>
      </trkpt>
      <trkpt lat="48.67925" lon="1.80708">
        <ele>179</ele>
        <time>2017-11-19T13:30:59Z</time>
      </trkpt>
      <trkpt lat="48.67921" lon="1.80722">
        <ele>178</ele>
        <time>2017-11-19T13:31:09Z</time>
      </trkpt>
      <trkpt lat="48.67914" lon="1.80731">
        <ele>178</ele>
        <time>2017-11-19T13:31:22Z</time>
      </trkpt>
      <trkpt lat="48.67909" lon="1.80745">
        <ele>177</ele>
        <time>2017-11-19T13:31:32Z</time>
      </trkpt>
      <trkpt lat="48.67905" lon="1.80757">
        <ele>177</ele>
        <time>2017-11-19T13:31:42Z</time>
      </trkpt>
      <trkpt lat="48.67899" lon="1.8077">
        <ele>177</ele>
        <time>2017-11-19T13:31:52Z</time>
      </trkpt>
      <trkpt lat="48.67897" lon="1.80784">
        <ele>177</ele>
        <time>2017-11-19T13:32:02Z</time>
      </trkpt>
      <trkpt lat="48.67892" lon="1.80795">
        <ele>176</ele>
        <time>2017-11-19T13:32:11Z</time>
      </trkpt>
      <trkpt lat="48.67888" lon="1.80809">
        <ele>176</ele>
        <time>2017-11-19T13:32:19Z</time>
      </trkpt>
      <trkpt lat="48.67885" lon="1.80822">
        <ele>176</ele>
        <time>2017-11-19T13:32:30Z</time>
      </trkpt>
      <trkpt lat="48.6788" lon="1.80835">
        <ele>176</ele>
        <time>2017-11-19T13:32:40Z</time>
      </trkpt>
      <trkpt lat="48.67877" lon="1.80848">
        <ele>177</ele>
        <time>2017-11-19T13:32:50Z</time>
      </trkpt>
      <trkpt lat="48.67874" lon="1.80862">
        <ele>177</ele>
        <time>2017-11-19T13:33:00Z</time>
      </trkpt>
      <trkpt lat="48.67869" lon="1.80874">
        <ele>178</ele>
        <time>2017-11-19T13:33:08Z</time>
      </trkpt>
      <trkpt lat="48.67868" lon="1.80888">
        <ele>178</ele>
        <time>2017-11-19T13:33:16Z</time>
      </trkpt>
      <trkpt lat="48.67866" lon="1.80901">
        <ele>179</ele>
        <time>2017-11-19T13:33:24Z</time>
      </trkpt>
      <trkpt lat="48.67864" lon="1.80915">
        <ele>179</ele>
        <time>2017-11-19T13:33:32Z</time>
      </trkpt>
      <trkpt lat="48.67864" lon="1.8093">
        <ele>179</ele>
        <time>2017-11-19T13:33:42Z</time>
      </trkpt>
      <trkpt lat="48.67863" lon="1.80946">
        <ele>179</ele>
        <time>2017-11-19T13:33:51Z</time>
      </trkpt>
      <trkpt lat="48.67863" lon="1.80961">
        <ele>179</ele>
        <time>2017-11-19T13:34:00Z</time>
      </trkpt>
      <trkpt lat="48.67869" lon="1.80972">
        <ele>178</ele>
        <time>2017-11-19T13:34:09Z</time>
      </trkpt>
      <trkpt lat="48.67875" lon="1.80981">
        <ele>178</ele>
        <time>2017-11-19T13:34:18Z</time>
      </trkpt>
      <trkpt lat="48.67878" lon="1.80996">
        <ele>177</ele>
        <time>2017-11-19T13:34:28Z</time>
      </trkpt>
      <trkpt lat="48.67874" lon="1.81008">
        <ele>178</ele>
        <time>2017-11-19T13:34:37Z</time>
      </trkpt>
      <trkpt lat="48.67874" lon="1.81023">
        <ele>178</ele>
        <time>2017-11-19T13:34:49Z</time>
      </trkpt>
      <trkpt lat="48.67875" lon="1.81039">
        <ele>178</ele>
        <time>2017-11-19T13:35:03Z</time>
      </trkpt>
      <trkpt lat="48.67878" lon="1.81053">
        <ele>178</ele>
        <time>2017-11-19T13:35:11Z</time>
      </trkpt>
      <trkpt lat="48.67878" lon="1.81066">
        <ele>178</ele>
        <time>2017-11-19T13:35:23Z</time>
      </trkpt>
      <trkpt lat="48.67881" lon="1.8108">
        <ele>178</ele>
        <time>2017-11-19T13:35:45Z</time>
      </trkpt>
      <trkpt lat="48.67877" lon="1.81092">
        <ele>179</ele>
        <time>2017-11-19T13:35:55Z</time>
      </trkpt>
      <trkpt lat="48.67874" lon="1.81106">
        <ele>179</ele>
        <time>2017-11-19T13:36:13Z</time>
      </trkpt>
      <trkpt lat="48.6787" lon="1.81118">
        <ele>179</ele>
        <time>2017-11-19T13:36:26Z</time>
      </trkpt>
      <trkpt lat="48.67867" lon="1.81132">
        <ele>178</ele>
        <time>2017-11-19T13:36:51Z</time>
      </trkpt>
      <trkpt lat="48.67856" lon="1.81128">
        <ele>179</ele>
        <time>2017-11-19T13:37:05Z</time>
      </trkpt>
      <trkpt lat="48.67848" lon="1.81122">
        <ele>180</ele>
        <time>2017-11-19T13:37:09Z</time>
      </trkpt>
      <trkpt lat="48.67854" lon="1.81132">
        <ele>179</ele>
        <time>2017-11-19T13:37:25Z</time>
      </trkpt>
      <trkpt lat="48.67846" lon="1.81126">
        <ele>180</ele>
        <time>2017-11-19T13:37:33Z</time>
      </trkpt>
      <trkpt lat="48.67837" lon="1.81121">
        <ele>181</ele>
        <time>2017-11-19T13:37:40Z</time>
      </trkpt>
      <trkpt lat="48.67827" lon="1.81123">
        <ele>181</ele>
        <time>2017-11-19T13:37:46Z</time>
      </trkpt>
      <trkpt lat="48.67819" lon="1.81132">
        <ele>181</ele>
        <time>2017-11-19T13:38:03Z</time>
      </trkpt>
      <trkpt lat="48.6781" lon="1.81135">
        <ele>181</ele>
        <time>2017-11-19T13:38:10Z</time>
      </trkpt>
      <trkpt lat="48.67805" lon="1.81147">
        <ele>181</ele>
        <time>2017-11-19T13:38:24Z</time>
      </trkpt>
      <trkpt lat="48.67797" lon="1.81156">
        <ele>181</ele>
        <time>2017-11-19T13:38:34Z</time>
      </trkpt>
      <trkpt lat="48.67791" lon="1.81167">
        <ele>181</ele>
        <time>2017-11-19T13:38:45Z</time>
      </trkpt>
      <trkpt lat="48.67786" lon="1.81179">
        <ele>181</ele>
        <time>2017-11-19T13:38:54Z</time>
      </trkpt>
      <trkpt lat="48.67793" lon="1.81187">
        <ele>180</ele>
        <time>2017-11-19T13:39:12Z</time>
      </trkpt>
      <trkpt lat="48.67784" lon="1.81184">
        <ele>181</ele>
        <time>2017-11-19T13:40:19Z</time>
      </trkpt>
      <trkpt lat="48.67777" lon="1.81193">
        <ele>181</ele>
        <time>2017-11-19T13:40:28Z</time>
      </trkpt>
      <trkpt lat="48.6777" lon="1.81204">
        <ele>181</ele>
        <time>2017-11-19T13:40:37Z</time>
      </trkpt>
      <trkpt lat="48.67764" lon="1.81214">
        <ele>180</ele>
        <time>2017-11-19T13:40:44Z</time>
      </trkpt>
      <trkpt lat="48.67756" lon="1.81222">
        <ele>180</ele>
        <time>2017-11-19T13:40:53Z</time>
      </trkpt>
      <trkpt lat="48.67747" lon="1.81229">
        <ele>180</ele>
        <time>2017-11-19T13:41:00Z</time>
      </trkpt>
      <trkpt lat="48.6774" lon="1.81237">
        <ele>180</ele>
        <time>2017-11-19T13:41:05Z</time>
      </trkpt>
      <trkpt lat="48.67734" lon="1.81248">
        <ele>180</ele>
        <time>2017-11-19T13:41:29Z</time>
      </trkpt>
      <trkpt lat="48.67728" lon="1.81259">
        <ele>180</ele>
        <time>2017-11-19T13:41:42Z</time>
      </trkpt>
      <trkpt lat="48.67724" lon="1.81271">
        <ele>180</ele>
        <time>2017-11-19T13:41:53Z</time>
      </trkpt>
      <trkpt lat="48.67719" lon="1.81285">
        <ele>180</ele>
        <time>2017-11-19T13:42:04Z</time>
      </trkpt>
      <trkpt lat="48.67715" lon="1.81298">
        <ele>180</ele>
        <time>2017-11-19T13:42:14Z</time>
      </trkpt>
      <trkpt lat="48.6771" lon="1.8131">
        <ele>180</ele>
        <time>2017-11-19T13:42:22Z</time>
      </trkpt>
      <trkpt lat="48.67708" lon="1.81324">
        <ele>180</ele>
        <time>2017-11-19T13:42:31Z</time>
      </trkpt>
      <trkpt lat="48.67705" lon="1.81338">
        <ele>179</ele>
        <time>2017-11-19T13:42:42Z</time>
      </trkpt>
      <trkpt lat="48.677" lon="1.81351">
        <ele>179</ele>
        <time>2017-11-19T13:42:55Z</time>
      </trkpt>
      <trkpt lat="48.67697" lon="1.81364">
        <ele>179</ele>
        <time>2017-11-19T13:43:06Z</time>
      </trkpt>
      <trkpt lat="48.67692" lon="1.81375">
        <ele>179</ele>
        <time>2017-11-19T13:43:16Z</time>
      </trkpt>
      <trkpt lat="48.67693" lon="1.81389">
        <ele>178</ele>
        <time>2017-11-19T13:43:35Z</time>
      </trkpt>
      <trkpt lat="48.67687" lon="1.81401">
        <ele>178</ele>
        <time>2017-11-19T13:43:57Z</time>
      </trkpt>
      <trkpt lat="48.67691" lon="1.81415">
        <ele>177</ele>
        <time>2017-11-19T13:44:08Z</time>
      </trkpt>
      <trkpt lat="48.67699" lon="1.81422">
        <ele>177</ele>
        <time>2017-11-19T13:44:25Z</time>
      </trkpt>
      <trkpt lat="48.67707" lon="1.81429">
        <ele>177</ele>
        <time>2017-11-19T13:44:49Z</time>
      </trkpt>
      <trkpt lat="48.67714" lon="1.81437">
        <ele>176</ele>
        <time>2017-11-19T13:45:00Z</time>
      </trkpt>
      <trkpt lat="48.67722" lon="1.81446">
        <ele>176</ele>
        <time>2017-11-19T13:45:12Z</time>
      </trkpt>
      <trkpt lat="48.67729" lon="1.81454">
        <ele>176</ele>
        <time>2017-11-19T13:45:24Z</time>
      </trkpt>
      <trkpt lat="48.67736" lon="1.81463">
        <ele>176</ele>
        <time>2017-11-19T13:45:36Z</time>
      </trkpt>
      <trkpt lat="48.67745" lon="1.81469">
        <ele>176</ele>
        <time>2017-11-19T13:45:44Z</time>
      </trkpt>
      <trkpt lat="48.67753" lon="1.81476">
        <ele>177</ele>
        <time>2017-11-19T13:45:56Z</time>
      </trkpt>
      <trkpt lat="48.67756" lon="1.8149">
        <ele>177</ele>
        <time>2017-11-19T13:46:15Z</time>
      </trkpt>
      <trkpt lat="48.67752" lon="1.81502">
        <ele>177</ele>
        <time>2017-11-19T13:46:33Z</time>
      </trkpt>
      <trkpt lat="48.67748" lon="1.81515">
        <ele>177</ele>
        <time>2017-11-19T13:46:49Z</time>
      </trkpt>
      <trkpt lat="48.67742" lon="1.81526">
        <ele>177</ele>
        <time>2017-11-19T13:47:01Z</time>
      </trkpt>
      <trkpt lat="48.67734" lon="1.81532">
        <ele>177</ele>
        <time>2017-11-19T13:47:11Z</time>
      </trkpt>
      <trkpt lat="48.67729" lon="1.81539">
        <ele>177</ele>
        <time>2017-11-19T13:47:49Z</time>
      </trkpt>
      <trkpt lat="48.67728" lon="1.81551">
        <ele>178</ele>
        <time>2017-11-19T13:49:18Z</time>
      </trkpt>
      <trkpt lat="48.67727" lon="1.81561">
        <ele>178</ele>
        <time>2017-11-19T13:49:27Z</time>
      </trkpt>
      <trkpt lat="48.67727" lon="1.81585">
        <ele>178</ele>
        <time>2017-11-19T13:49:35Z</time>
      </trkpt>
      <trkpt lat="48.67728" lon="1.81596">
        <ele>178</ele>
        <time>2017-11-19T13:49:53Z</time>
      </trkpt>
      <trkpt lat="48.67727" lon="1.81606">
        <ele>178</ele>
        <time>2017-11-19T13:50:04Z</time>
      </trkpt>
      <trkpt lat="48.67727" lon="1.81619">
        <ele>178</ele>
        <time>2017-11-19T13:50:14Z</time>
      </trkpt>
      <trkpt lat="48.67727" lon="1.81634">
        <ele>177</ele>
        <time>2017-11-19T13:50:23Z</time>
      </trkpt>
      <trkpt lat="48.67728" lon="1.81649">
        <ele>177</ele>
        <time>2017-11-19T13:50:31Z</time>
      </trkpt>
      <trkpt lat="48.67728" lon="1.81663">
        <ele>177</ele>
        <time>2017-11-19T13:50:41Z</time>
      </trkpt>
      <trkpt lat="48.67727" lon="1.81676">
        <ele>177</ele>
        <time>2017-11-19T13:58:59Z</time>
      </trkpt>
      <trkpt lat="48.67734" lon="1.81687">
        <ele>177</ele>
        <time>2017-11-19T13:59:38Z</time>
      </trkpt>
      <trkpt lat="48.67741" lon="1.81697">
        <ele>177</ele>
        <time>2017-11-19T13:59:45Z</time>
      </trkpt>
      <trkpt lat="48.67757" lon="1.81714">
        <ele>177</ele>
        <time>2017-11-19T14:00:02Z</time>
      </trkpt>
      <trkpt lat="48.67764" lon="1.81724">
        <ele>177</ele>
        <time>2017-11-19T14:00:12Z</time>
      </trkpt>
      <trkpt lat="48.67771" lon="1.81733">
        <ele>177</ele>
        <time>2017-11-19T14:00:21Z</time>
      </trkpt>
      <trkpt lat="48.6778" lon="1.81739">
        <ele>177</ele>
        <time>2017-11-19T14:00:36Z</time>
      </trkpt>
      <trkpt lat="48.67788" lon="1.81744">
        <ele>177</ele>
        <time>2017-11-19T14:00:49Z</time>
      </trkpt>
      <trkpt lat="48.67797" lon="1.81751">
        <ele>177</ele>
        <time>2017-11-19T14:00:59Z</time>
      </trkpt>
      <trkpt lat="48.67807" lon="1.81759">
        <ele>177</ele>
        <time>2017-11-19T14:01:08Z</time>
      </trkpt>
      <trkpt lat="48.67812" lon="1.81772">
        <ele>177</ele>
        <time>2017-11-19T14:01:18Z</time>
      </trkpt>
      <trkpt lat="48.67817" lon="1.81783">
        <ele>177</ele>
        <time>2017-11-19T14:01:26Z</time>
      </trkpt>
      <trkpt lat="48.67825" lon="1.81792">
        <ele>177</ele>
        <time>2017-11-19T14:01:37Z</time>
      </trkpt>
      <trkpt lat="48.67829" lon="1.81806">
        <ele>177</ele>
        <time>2017-11-19T14:01:49Z</time>
      </trkpt>
      <trkpt lat="48.67826" lon="1.81819">
        <ele>177</ele>
        <time>2017-11-19T14:01:58Z</time>
      </trkpt>
      <trkpt lat="48.67821" lon="1.81832">
        <ele>177</ele>
        <time>2017-11-19T14:02:06Z</time>
      </trkpt>
      <trkpt lat="48.67818" lon="1.81845">
        <ele>176</ele>
        <time>2017-11-19T14:02:15Z</time>
      </trkpt>
      <trkpt lat="48.67814" lon="1.81858">
        <ele>176</ele>
        <time>2017-11-19T14:02:24Z</time>
      </trkpt>
      <trkpt lat="48.6781" lon="1.81872">
        <ele>176</ele>
        <time>2017-11-19T14:02:33Z</time>
      </trkpt>
      <trkpt lat="48.67807" lon="1.81885">
        <ele>175</ele>
        <time>2017-11-19T14:02:42Z</time>
      </trkpt>
      <trkpt lat="48.67803" lon="1.819">
        <ele>175</ele>
        <time>2017-11-19T14:02:52Z</time>
      </trkpt>
      <trkpt lat="48.67799" lon="1.81912">
        <ele>175</ele>
        <time>2017-11-19T14:02:59Z</time>
      </trkpt>
      <trkpt lat="48.67794" lon="1.81926">
        <ele>174</ele>
        <time>2017-11-19T14:03:08Z</time>
      </trkpt>
      <trkpt lat="48.67789" lon="1.81938">
        <ele>174</ele>
        <time>2017-11-19T14:03:18Z</time>
      </trkpt>
      <trkpt lat="48.67785" lon="1.81953">
        <ele>174</ele>
        <time>2017-11-19T14:03:27Z</time>
      </trkpt>
      <trkpt lat="48.67787" lon="1.81967">
        <ele>174</ele>
        <time>2017-11-19T14:03:37Z</time>
      </trkpt>
      <trkpt lat="48.67788" lon="1.8198">
        <ele>173</ele>
        <time>2017-11-19T14:03:45Z</time>
      </trkpt>
      <trkpt lat="48.67792" lon="1.81995">
        <ele>173</ele>
        <time>2017-11-19T14:03:55Z</time>
      </trkpt>
      <trkpt lat="48.67797" lon="1.82007">
        <ele>173</ele>
        <time>2017-11-19T14:04:04Z</time>
      </trkpt>
      <trkpt lat="48.67804" lon="1.82018">
        <ele>173</ele>
        <time>2017-11-19T14:04:13Z</time>
      </trkpt>
      <trkpt lat="48.67811" lon="1.82026">
        <ele>173</ele>
        <time>2017-11-19T14:04:23Z</time>
      </trkpt>
      <trkpt lat="48.6782" lon="1.82033">
        <ele>173</ele>
        <time>2017-11-19T14:04:31Z</time>
      </trkpt>
      <trkpt lat="48.67827" lon="1.82041">
        <ele>173</ele>
        <time>2017-11-19T14:04:40Z</time>
      </trkpt>
      <trkpt lat="48.67836" lon="1.82047">
        <ele>173</ele>
        <time>2017-11-19T14:04:49Z</time>
      </trkpt>
      <trkpt lat="48.67843" lon="1.82056">
        <ele>173</ele>
        <time>2017-11-19T14:04:57Z</time>
      </trkpt>
      <trkpt lat="48.67851" lon="1.82063">
        <ele>173</ele>
        <time>2017-11-19T14:05:06Z</time>
      </trkpt>
      <trkpt lat="48.6786" lon="1.82062">
        <ele>173</ele>
        <time>2017-11-19T14:05:14Z</time>
      </trkpt>
      <trkpt lat="48.6787" lon="1.82061">
        <ele>173</ele>
        <time>2017-11-19T14:05:22Z</time>
      </trkpt>
      <trkpt lat="48.67879" lon="1.82058">
        <ele>173</ele>
        <time>2017-11-19T14:05:30Z</time>
      </trkpt>
      <trkpt lat="48.67888" lon="1.82054">
        <ele>173</ele>
        <time>2017-11-19T14:05:38Z</time>
      </trkpt>
      <trkpt lat="48.67896" lon="1.82048">
        <ele>174</ele>
        <time>2017-11-19T14:05:47Z</time>
      </trkpt>
      <trkpt lat="48.67906" lon="1.82045">
        <ele>174</ele>
        <time>2017-11-19T14:05:58Z</time>
      </trkpt>
      <trkpt lat="48.67915" lon="1.82041">
        <ele>174</ele>
        <time>2017-11-19T14:06:07Z</time>
      </trkpt>
      <trkpt lat="48.67925" lon="1.82039">
        <ele>174</ele>
        <time>2017-11-19T14:06:15Z</time>
      </trkpt>
      <trkpt lat="48.67935" lon="1.82036">
        <ele>174</ele>
        <time>2017-11-19T14:06:24Z</time>
      </trkpt>
      <trkpt lat="48.67941" lon="1.82046">
        <ele>173</ele>
        <time>2017-11-19T14:06:42Z</time>
      </trkpt>
      <trkpt lat="48.67946" lon="1.82058">
        <ele>173</ele>
        <time>2017-11-19T14:07:19Z</time>
      </trkpt>
      <trkpt lat="48.6795" lon="1.82072">
        <ele>173</ele>
        <time>2017-11-19T14:07:29Z</time>
      </trkpt>
      <trkpt lat="48.67949" lon="1.82087">
        <ele>173</ele>
        <time>2017-11-19T14:07:41Z</time>
      </trkpt>
      <trkpt lat="48.67947" lon="1.82101">
        <ele>173</ele>
        <time>2017-11-19T14:07:53Z</time>
      </trkpt>
      <trkpt lat="48.67943" lon="1.82115">
        <ele>173</ele>
        <time>2017-11-19T14:08:02Z</time>
      </trkpt>
      <trkpt lat="48.6794" lon="1.82129">
        <ele>174</ele>
        <time>2017-11-19T14:08:13Z</time>
      </trkpt>
      <trkpt lat="48.67937" lon="1.82142">
        <ele>174</ele>
        <time>2017-11-19T14:08:23Z</time>
      </trkpt>
      <trkpt lat="48.67931" lon="1.82158">
        <ele>175</ele>
        <time>2017-11-19T14:08:32Z</time>
      </trkpt>
      <trkpt lat="48.67929" lon="1.82172">
        <ele>176</ele>
        <time>2017-11-19T14:08:40Z</time>
      </trkpt>
      <trkpt lat="48.67924" lon="1.82184">
        <ele>176</ele>
        <time>2017-11-19T14:08:49Z</time>
      </trkpt>
      <trkpt lat="48.67921" lon="1.82198">
        <ele>177</ele>
        <time>2017-11-19T14:08:56Z</time>
      </trkpt>
      <trkpt lat="48.67917" lon="1.8221">
        <ele>178</ele>
        <time>2017-11-19T14:09:07Z</time>
      </trkpt>
      <trkpt lat="48.67912" lon="1.82222">
        <ele>179</ele>
        <time>2017-11-19T14:09:15Z</time>
      </trkpt>
      <trkpt lat="48.67908" lon="1.82235">
        <ele>179</ele>
        <time>2017-11-19T14:09:23Z</time>
      </trkpt>
      <trkpt lat="48.67902" lon="1.82245">
        <ele>180</ele>
        <time>2017-11-19T14:09:36Z</time>
      </trkpt>
      <trkpt lat="48.67895" lon="1.82256">
        <ele>180</ele>
        <time>2017-11-19T14:10:06Z</time>
      </trkpt>
      <trkpt lat="48.67904" lon="1.82258">
        <ele>180</ele>
        <time>2017-11-19T14:10:43Z</time>
      </trkpt>
      <trkpt lat="48.67913" lon="1.82262">
        <ele>180</ele>
        <time>2017-11-19T14:10:55Z</time>
      </trkpt>
      <trkpt lat="48.67922" lon="1.82261">
        <ele>180</ele>
        <time>2017-11-19T14:11:03Z</time>
      </trkpt>
      <trkpt lat="48.67932" lon="1.82262">
        <ele>179</ele>
        <time>2017-11-19T14:11:16Z</time>
      </trkpt>
      <trkpt lat="48.67941" lon="1.82264">
        <ele>179</ele>
        <time>2017-11-19T14:11:30Z</time>
      </trkpt>
      <trkpt lat="48.67951" lon="1.82265">
        <ele>178</ele>
        <time>2017-11-19T14:11:42Z</time>
      </trkpt>
      <trkpt lat="48.6796" lon="1.82266">
        <ele>178</ele>
        <time>2017-11-19T14:11:53Z</time>
      </trkpt>
      <trkpt lat="48.6797" lon="1.82264">
        <ele>177</ele>
        <time>2017-11-19T14:12:03Z</time>
      </trkpt>
      <trkpt lat="48.67978" lon="1.8227">
        <ele>177</ele>
        <time>2017-11-19T14:12:15Z</time>
      </trkpt>
      <trkpt lat="48.67988" lon="1.8227">
        <ele>176</ele>
        <time>2017-11-19T14:12:25Z</time>
      </trkpt>
      <trkpt lat="48.67997" lon="1.82269">
        <ele>176</ele>
        <time>2017-11-19T14:12:34Z</time>
      </trkpt>
      <trkpt lat="48.68007" lon="1.82271">
        <ele>176</ele>
        <time>2017-11-19T14:12:43Z</time>
      </trkpt>
      <trkpt lat="48.68016" lon="1.82274">
        <ele>176</ele>
        <time>2017-11-19T14:12:51Z</time>
      </trkpt>
      <trkpt lat="48.68025" lon="1.82278">
        <ele>176</ele>
        <time>2017-11-19T14:12:58Z</time>
      </trkpt>
      <trkpt lat="48.68035" lon="1.82282">
        <ele>177</ele>
        <time>2017-11-19T14:13:11Z</time>
      </trkpt>
      <trkpt lat="48.68042" lon="1.82291">
        <ele>177</ele>
        <time>2017-11-19T14:13:17Z</time>
      </trkpt>
      <trkpt lat="48.68049" lon="1.82303">
        <ele>178</ele>
        <time>2017-11-19T14:13:29Z</time>
      </trkpt>
      <trkpt lat="48.68057" lon="1.82315">
        <ele>179</ele>
        <time>2017-11-19T14:13:40Z</time>
      </trkpt>
      <trkpt lat="48.68061" lon="1.82327">
        <ele>180</ele>
        <time>2017-11-19T14:13:50Z</time>
      </trkpt>
      <trkpt lat="48.68064" lon="1.82341">
        <ele>181</ele>
        <time>2017-11-19T14:13:57Z</time>
      </trkpt>
      <trkpt lat="48.68069" lon="1.82353">
        <ele>180</ele>
        <time>2017-11-19T14:14:08Z</time>
      </trkpt>
      <trkpt lat="48.68072" lon="1.82367">
        <ele>180</ele>
        <time>2017-11-19T14:14:15Z</time>
      </trkpt>
      <trkpt lat="48.68077" lon="1.82379">
        <ele>179</ele>
        <time>2017-11-19T14:14:24Z</time>
      </trkpt>
      <trkpt lat="48.68082" lon="1.82391">
        <ele>179</ele>
        <time>2017-11-19T14:14:31Z</time>
      </trkpt>
      <trkpt lat="48.68088" lon="1.82401">
        <ele>179</ele>
        <time>2017-11-19T14:14:40Z</time>
      </trkpt>
      <trkpt lat="48.68092" lon="1.82415">
        <ele>178</ele>
        <time>2017-11-19T14:14:48Z</time>
      </trkpt>
      <trkpt lat="48.68098" lon="1.82427">
        <ele>178</ele>
        <time>2017-11-19T14:14:56Z</time>
      </trkpt>
      <trkpt lat="48.68099" lon="1.82441">
        <ele>179</ele>
        <time>2017-11-19T14:15:03Z</time>
      </trkpt>
      <trkpt lat="48.68102" lon="1.82455">
        <ele>179</ele>
        <time>2017-11-19T14:15:12Z</time>
      </trkpt>
      <trkpt lat="48.68107" lon="1.82467">
        <ele>179</ele>
        <time>2017-11-19T14:15:21Z</time>
      </trkpt>
      <trkpt lat="48.68112" lon="1.82482">
        <ele>179</ele>
        <time>2017-11-19T14:15:28Z</time>
      </trkpt>
      <trkpt lat="48.68115" lon="1.82495">
        <ele>180</ele>
        <time>2017-11-19T14:15:36Z</time>
      </trkpt>
      <trkpt lat="48.68118" lon="1.82509">
        <ele>180</ele>
        <time>2017-11-19T14:15:46Z</time>
      </trkpt>
      <trkpt lat="48.68123" lon="1.82521">
        <ele>180</ele>
        <time>2017-11-19T14:15:53Z</time>
      </trkpt>
      <trkpt lat="48.68129" lon="1.82533">
        <ele>180</ele>
        <time>2017-11-19T14:16:02Z</time>
      </trkpt>
      <trkpt lat="48.68132" lon="1.82548">
        <ele>180</ele>
        <time>2017-11-19T14:16:10Z</time>
      </trkpt>
      <trkpt lat="48.68133" lon="1.82562">
        <ele>181</ele>
        <time>2017-11-19T14:16:19Z</time>
      </trkpt>
      <trkpt lat="48.68137" lon="1.82576">
        <ele>181</ele>
        <time>2017-11-19T14:16:26Z</time>
      </trkpt>
      <trkpt lat="48.6814" lon="1.8259">
        <ele>181</ele>
        <time>2017-11-19T14:16:33Z</time>
      </trkpt>
      <trkpt lat="48.68139" lon="1.82604">
        <ele>181</ele>
        <time>2017-11-19T14:16:38Z</time>
      </trkpt>
      <trkpt lat="48.68142" lon="1.82617">
        <ele>181</ele>
        <time>2017-11-19T14:16:48Z</time>
      </trkpt>
      <trkpt lat="48.68146" lon="1.8263">
        <ele>181</ele>
        <time>2017-11-19T14:16:57Z</time>
      </trkpt>
      <trkpt lat="48.68148" lon="1.82643">
        <ele>181</ele>
        <time>2017-11-19T14:17:13Z</time>
      </trkpt>
      <trkpt lat="48.68155" lon="1.82652">
        <ele>182</ele>
        <time>2017-11-19T14:18:00Z</time>
      </trkpt>
      <trkpt lat="48.6816" lon="1.82665">
        <ele>182</ele>
        <time>2017-11-19T14:18:09Z</time>
      </trkpt>
      <trkpt lat="48.68167" lon="1.82675">
        <ele>182</ele>
        <time>2017-11-19T14:18:17Z</time>
      </trkpt>
      <trkpt lat="48.68173" lon="1.82686">
        <ele>182</ele>
        <time>2017-11-19T14:18:42Z</time>
      </trkpt>
      <trkpt lat="48.6818" lon="1.82696">
        <ele>181</ele>
        <time>2017-11-19T14:18:51Z</time>
      </trkpt>
      <trkpt lat="48.68186" lon="1.82706">
        <ele>181</ele>
        <time>2017-11-19T14:18:59Z</time>
      </trkpt>
      <trkpt lat="48.68191" lon="1.82719">
        <ele>181</ele>
        <time>2017-11-19T14:19:08Z</time>
      </trkpt>
      <trkpt lat="48.68196" lon="1.82731">
        <ele>181</ele>
        <time>2017-11-19T14:19:16Z</time>
      </trkpt>
      <trkpt lat="48.68202" lon="1.82741">
        <ele>181</ele>
        <time>2017-11-19T14:19:25Z</time>
      </trkpt>
      <trkpt lat="48.68209" lon="1.8275">
        <ele>180</ele>
        <time>2017-11-19T14:19:34Z</time>
      </trkpt>
      <trkpt lat="48.68216" lon="1.82761">
        <ele>180</ele>
        <time>2017-11-19T14:19:43Z</time>
      </trkpt>
      <trkpt lat="48.68221" lon="1.82773">
        <ele>180</ele>
        <time>2017-11-19T14:19:52Z</time>
      </trkpt>
      <trkpt lat="48.68227" lon="1.82785">
        <ele>180</ele>
        <time>2017-11-19T14:20:02Z</time>
      </trkpt>
      <trkpt lat="48.68232" lon="1.82796">
        <ele>180</ele>
        <time>2017-11-19T14:20:10Z</time>
      </trkpt>
      <trkpt lat="48.6824" lon="1.82806">
        <ele>180</ele>
        <time>2017-11-19T14:20:19Z</time>
      </trkpt>
      <trkpt lat="48.68244" lon="1.82819">
        <ele>180</ele>
        <time>2017-11-19T14:20:27Z</time>
      </trkpt>
      <trkpt lat="48.68248" lon="1.82832">
        <ele>180</ele>
        <time>2017-11-19T14:20:35Z</time>
      </trkpt>
      <trkpt lat="48.68253" lon="1.82845">
        <ele>180</ele>
        <time>2017-11-19T14:20:43Z</time>
      </trkpt>
      <trkpt lat="48.6826" lon="1.82854">
        <ele>180</ele>
        <time>2017-11-19T14:20:52Z</time>
      </trkpt>
      <trkpt lat="48.68262" lon="1.82868">
        <ele>180</ele>
        <time>2017-11-19T14:21:00Z</time>
      </trkpt>
      <trkpt lat="48.68268" lon="1.82878">
        <ele>180</ele>
        <time>2017-11-19T14:21:08Z</time>
      </trkpt>
      <trkpt lat="48.68272" lon="1.82892">
        <ele>181</ele>
        <time>2017-11-19T14:21:17Z</time>
      </trkpt>
      <trkpt lat="48.68278" lon="1.82902">
        <ele>181</ele>
        <time>2017-11-19T14:21:25Z</time>
      </trkpt>
      <trkpt lat="48.68287" lon="1.8291">
        <ele>181</ele>
        <time>2017-11-19T14:21:35Z</time>
      </trkpt>
      <trkpt lat="48.6829" lon="1.82922">
        <ele>181</ele>
        <time>2017-11-19T14:21:44Z</time>
      </trkpt>
      <trkpt lat="48.68299" lon="1.8293">
        <ele>181</ele>
        <time>2017-11-19T14:21:52Z</time>
      </trkpt>
      <trkpt lat="48.68306" lon="1.82938">
        <ele>182</ele>
        <time>2017-11-19T14:21:59Z</time>
      </trkpt>
      <trkpt lat="48.6831" lon="1.82951">
        <ele>182</ele>
        <time>2017-11-19T14:22:05Z</time>
      </trkpt>
      <trkpt lat="48.68315" lon="1.82963">
        <ele>182</ele>
        <time>2017-11-19T14:22:14Z</time>
      </trkpt>
      <trkpt lat="48.68318" lon="1.82976">
        <ele>182</ele>
        <time>2017-11-19T14:22:21Z</time>
      </trkpt>
      <trkpt lat="48.68323" lon="1.82989">
        <ele>183</ele>
        <time>2017-11-19T14:22:31Z</time>
      </trkpt>
      <trkpt lat="48.6833" lon="1.82996">
        <ele>183</ele>
        <time>2017-11-19T14:22:39Z</time>
      </trkpt>
      <trkpt lat="48.68335" lon="1.83009">
        <ele>183</ele>
        <time>2017-11-19T14:22:47Z</time>
      </trkpt>
      <trkpt lat="48.68342" lon="1.83">
        <ele>184</ele>
        <time>2017-11-19T14:23:05Z</time>
      </trkpt>
      <trkpt lat="48.68344" lon="1.83014">
        <ele>184</ele>
        <time>2017-11-19T14:24:23Z</time>
      </trkpt>
      <trkpt lat="48.68348" lon="1.83028">
        <ele>184</ele>
        <time>2017-11-19T14:24:35Z</time>
      </trkpt>
      <trkpt lat="48.68353" lon="1.83039">
        <ele>185</ele>
        <time>2017-11-19T14:24:44Z</time>
      </trkpt>
      <trkpt lat="48.68359" lon="1.83049">
        <ele>185</ele>
        <time>2017-11-19T14:24:51Z</time>
      </trkpt>
      <trkpt lat="48.68365" lon="1.8306">
        <ele>186</ele>
        <time>2017-11-19T14:24:59Z</time>
      </trkpt>
      <trkpt lat="48.68372" lon="1.8307">
        <ele>186</ele>
        <time>2017-11-19T14:25:08Z</time>
      </trkpt>
      <trkpt lat="48.68378" lon="1.83081">
        <ele>186</ele>
        <time>2017-11-19T14:25:17Z</time>
      </trkpt>
      <trkpt lat="48.68384" lon="1.83092">
        <ele>186</ele>
        <time>2017-11-19T14:25:25Z</time>
      </trkpt>
      <trkpt lat="48.68389" lon="1.83104">
        <ele>186</ele>
        <time>2017-11-19T14:25:33Z</time>
      </trkpt>
      <trkpt lat="48.68395" lon="1.83116">
        <ele>185</ele>
        <time>2017-11-19T14:25:42Z</time>
      </trkpt>
      <trkpt lat="48.684" lon="1.83128">
        <ele>185</ele>
        <time>2017-11-19T14:25:51Z</time>
      </trkpt>
      <trkpt lat="48.68406" lon="1.83138">
        <ele>185</ele>
        <time>2017-11-19T14:26:01Z</time>
      </trkpt>
      <trkpt lat="48.68411" lon="1.8315">
        <ele>184</ele>
        <time>2017-11-19T14:26:10Z</time>
      </trkpt>
      <trkpt lat="48.68417" lon="1.83161">
        <ele>183</ele>
        <time>2017-11-19T14:26:19Z</time>
      </trkpt>
      <trkpt lat="48.68422" lon="1.83173">
        <ele>182</ele>
        <time>2017-11-19T14:26:29Z</time>
      </trkpt>
      <trkpt lat="48.68429" lon="1.83183">
        <ele>182</ele>
        <time>2017-11-19T14:26:39Z</time>
      </trkpt>
      <trkpt lat="48.68434" lon="1.83195">
        <ele>181</ele>
        <time>2017-11-19T14:26:47Z</time>
      </trkpt>
      <trkpt lat="48.6844" lon="1.83207">
        <ele>181</ele>
        <time>2017-11-19T14:26:54Z</time>
      </trkpt>
      <trkpt lat="48.68444" lon="1.83218">
        <ele>180</ele>
        <time>2017-11-19T14:27:01Z</time>
      </trkpt>
      <trkpt lat="48.6845" lon="1.83231">
        <ele>180</ele>
        <time>2017-11-19T14:27:10Z</time>
      </trkpt>
      <trkpt lat="48.68457" lon="1.83242">
        <ele>179</ele>
        <time>2017-11-19T14:27:18Z</time>
      </trkpt>
      <trkpt lat="48.68461" lon="1.83254">
        <ele>179</ele>
        <time>2017-11-19T14:27:26Z</time>
      </trkpt>
      <trkpt lat="48.68467" lon="1.83266">
        <ele>179</ele>
        <time>2017-11-19T14:27:34Z</time>
      </trkpt>
      <trkpt lat="48.68472" lon="1.83277">
        <ele>179</ele>
        <time>2017-11-19T14:27:42Z</time>
      </trkpt>
      <trkpt lat="48.68479" lon="1.83288">
        <ele>179</ele>
        <time>2017-11-19T14:27:51Z</time>
      </trkpt>
      <trkpt lat="48.68485" lon="1.83298">
        <ele>179</ele>
        <time>2017-11-19T14:27:59Z</time>
      </trkpt>
      <trkpt lat="48.68492" lon="1.83309">
        <ele>179</ele>
        <time>2017-11-19T14:28:08Z</time>
      </trkpt>
      <trkpt lat="48.68499" lon="1.83319">
        <ele>179</ele>
        <time>2017-11-19T14:28:16Z</time>
      </trkpt>
      <trkpt lat="48.68504" lon="1.83331">
        <ele>179</ele>
        <time>2017-11-19T14:28:25Z</time>
      </trkpt>
      <trkpt lat="48.6851" lon="1.83343">
        <ele>179</ele>
        <time>2017-11-19T14:28:33Z</time>
      </trkpt>
      <trkpt lat="48.68514" lon="1.83356">
        <ele>180</ele>
        <time>2017-11-19T14:28:42Z</time>
      </trkpt>
      <trkpt lat="48.6852" lon="1.83368">
        <ele>180</ele>
        <time>2017-11-19T14:28:52Z</time>
      </trkpt>
      <trkpt lat="48.68526" lon="1.83381">
        <ele>180</ele>
        <time>2017-11-19T14:29:01Z</time>
      </trkpt>
      <trkpt lat="48.68532" lon="1.83393">
        <ele>180</ele>
        <time>2017-11-19T14:29:09Z</time>
      </trkpt>
      <trkpt lat="48.68537" lon="1.83405">
        <ele>181</ele>
        <time>2017-11-19T14:29:17Z</time>
      </trkpt>
      <trkpt lat="48.68542" lon="1.83417">
        <ele>181</ele>
        <time>2017-11-19T14:29:25Z</time>
      </trkpt>
      <trkpt lat="48.68547" lon="1.83429">
        <ele>181</ele>
        <time>2017-11-19T14:29:32Z</time>
      </trkpt>
      <trkpt lat="48.68552" lon="1.83441">
        <ele>180</ele>
        <time>2017-11-19T14:29:39Z</time>
      </trkpt>
      <trkpt lat="48.68557" lon="1.83453">
        <ele>180</ele>
        <time>2017-11-19T14:29:47Z</time>
      </trkpt>
      <trkpt lat="48.68562" lon="1.83465">
        <ele>180</ele>
        <time>2017-11-19T14:29:54Z</time>
      </trkpt>
      <trkpt lat="48.68568" lon="1.83478">
        <ele>180</ele>
        <time>2017-11-19T14:30:03Z</time>
      </trkpt>
      <trkpt lat="48.68574" lon="1.83489">
        <ele>179</ele>
        <time>2017-11-19T14:30:11Z</time>
      </trkpt>
      <trkpt lat="48.68579" lon="1.83501">
        <ele>179</ele>
        <time>2017-11-19T14:30:19Z</time>
      </trkpt>
      <trkpt lat="48.68585" lon="1.83512">
        <ele>179</ele>
        <time>2017-11-19T14:30:27Z</time>
      </trkpt>
      <trkpt lat="48.68592" lon="1.83522">
        <ele>179</ele>
        <time>2017-11-19T14:30:34Z</time>
      </trkpt>
      <trkpt lat="48.68598" lon="1.83533">
        <ele>179</ele>
        <time>2017-11-19T14:30:43Z</time>
      </trkpt>
      <trkpt lat="48.68605" lon="1.83543">
        <ele>180</ele>
        <time>2017-11-19T14:30:52Z</time>
      </trkpt>
      <trkpt lat="48.68611" lon="1.83555">
        <ele>180</ele>
        <time>2017-11-19T14:31:00Z</time>
      </trkpt>
      <trkpt lat="48.68618" lon="1.83565">
        <ele>180</ele>
        <time>2017-11-19T14:31:08Z</time>
      </trkpt>
      <trkpt lat="48.68625" lon="1.83576">
        <ele>180</ele>
        <time>2017-11-19T14:31:16Z</time>
      </trkpt>
      <trkpt lat="48.68631" lon="1.83587">
        <ele>180</ele>
        <time>2017-11-19T14:31:24Z</time>
      </trkpt>
      <trkpt lat="48.68638" lon="1.83597">
        <ele>180</ele>
        <time>2017-11-19T14:31:31Z</time>
      </trkpt>
      <trkpt lat="48.68646" lon="1.83606">
        <ele>181</ele>
        <time>2017-11-19T14:31:39Z</time>
      </trkpt>
      <trkpt lat="48.68652" lon="1.83615">
        <ele>181</ele>
        <time>2017-11-19T14:31:47Z</time>
      </trkpt>
      <trkpt lat="48.68659" lon="1.83625">
        <ele>181</ele>
        <time>2017-11-19T14:31:55Z</time>
      </trkpt>
      <trkpt lat="48.68665" lon="1.83636">
        <ele>182</ele>
        <time>2017-11-19T14:32:04Z</time>
      </trkpt>
      <trkpt lat="48.68673" lon="1.83646">
        <ele>182</ele>
        <time>2017-11-19T14:32:13Z</time>
      </trkpt>
      <trkpt lat="48.68679" lon="1.83657">
        <ele>182</ele>
        <time>2017-11-19T14:32:22Z</time>
      </trkpt>
      <trkpt lat="48.68686" lon="1.83665">
        <ele>182</ele>
        <time>2017-11-19T14:32:30Z</time>
      </trkpt>
      <trkpt lat="48.68692" lon="1.83678">
        <ele>182</ele>
        <time>2017-11-19T14:32:40Z</time>
      </trkpt>
      <trkpt lat="48.68698" lon="1.83689">
        <ele>182</ele>
        <time>2017-11-19T14:32:48Z</time>
      </trkpt>
      <trkpt lat="48.68704" lon="1.83699">
        <ele>182</ele>
        <time>2017-11-19T14:32:55Z</time>
      </trkpt>
      <trkpt lat="48.68711" lon="1.83709">
        <ele>182</ele>
        <time>2017-11-19T14:33:03Z</time>
      </trkpt>
      <trkpt lat="48.68719" lon="1.83717">
        <ele>182</ele>
        <time>2017-11-19T14:33:12Z</time>
      </trkpt>
      <trkpt lat="48.68725" lon="1.83728">
        <ele>181</ele>
        <time>2017-11-19T14:33:21Z</time>
      </trkpt>
      <trkpt lat="48.68731" lon="1.83739">
        <ele>181</ele>
        <time>2017-11-19T14:33:30Z</time>
      </trkpt>
      <trkpt lat="48.68737" lon="1.83752">
        <ele>181</ele>
        <time>2017-11-19T14:33:39Z</time>
      </trkpt>
      <trkpt lat="48.68745" lon="1.83761">
        <ele>181</ele>
        <time>2017-11-19T14:33:46Z</time>
      </trkpt>
      <trkpt lat="48.68751" lon="1.83772">
        <ele>181</ele>
        <time>2017-11-19T14:33:54Z</time>
      </trkpt>
      <trkpt lat="48.68757" lon="1.83782">
        <ele>181</ele>
        <time>2017-11-19T14:34:01Z</time>
      </trkpt>
      <trkpt lat="48.68763" lon="1.83795">
        <ele>180</ele>
        <time>2017-11-19T14:34:10Z</time>
      </trkpt>
      <trkpt lat="48.68769" lon="1.83805">
        <ele>180</ele>
        <time>2017-11-19T14:34:17Z</time>
      </trkpt>
      <trkpt lat="48.68777" lon="1.83815">
        <ele>180</ele>
        <time>2017-11-19T14:34:24Z</time>
      </trkpt>
      <trkpt lat="48.68783" lon="1.83826">
        <ele>180</ele>
        <time>2017-11-19T14:34:31Z</time>
      </trkpt>
      <trkpt lat="48.6879" lon="1.83837">
        <ele>180</ele>
        <time>2017-11-19T14:34:39Z</time>
      </trkpt>
      <trkpt lat="48.68796" lon="1.83848">
        <ele>180</ele>
        <time>2017-11-19T14:34:48Z</time>
      </trkpt>
      <trkpt lat="48.68801" lon="1.8386">
        <ele>180</ele>
        <time>2017-11-19T14:34:56Z</time>
      </trkpt>
      <trkpt lat="48.68808" lon="1.83871">
        <ele>180</ele>
        <time>2017-11-19T14:35:05Z</time>
      </trkpt>
      <trkpt lat="48.68814" lon="1.83882">
        <ele>180</ele>
        <time>2017-11-19T14:35:14Z</time>
      </trkpt>
      <trkpt lat="48.68819" lon="1.83895">
        <ele>180</ele>
        <time>2017-11-19T14:35:22Z</time>
      </trkpt>
      <trkpt lat="48.68825" lon="1.83904">
        <ele>180</ele>
        <time>2017-11-19T14:35:29Z</time>
      </trkpt>
      <trkpt lat="48.6883" lon="1.83917">
        <ele>180</ele>
        <time>2017-11-19T14:35:37Z</time>
      </trkpt>
      <trkpt lat="48.68837" lon="1.83927">
        <ele>180</ele>
        <time>2017-11-19T14:35:44Z</time>
      </trkpt>
      <trkpt lat="48.68842" lon="1.8394">
        <ele>180</ele>
        <time>2017-11-19T14:35:52Z</time>
      </trkpt>
      <trkpt lat="48.68848" lon="1.83951">
        <ele>180</ele>
        <time>2017-11-19T14:36:01Z</time>
      </trkpt>
      <trkpt lat="48.68852" lon="1.83964">
        <ele>179</ele>
        <time>2017-11-19T14:36:09Z</time>
      </trkpt>
      <trkpt lat="48.68856" lon="1.83978">
        <ele>179</ele>
        <time>2017-11-19T14:36:17Z</time>
      </trkpt>
      <trkpt lat="48.68861" lon="1.8399">
        <ele>179</ele>
        <time>2017-11-19T14:36:25Z</time>
      </trkpt>
      <trkpt lat="48.68864" lon="1.84002">
        <ele>179</ele>
        <time>2017-11-19T14:36:34Z</time>
      </trkpt>
      <trkpt lat="48.68867" lon="1.84011">
        <ele>179</ele>
        <time>2017-11-19T14:37:55Z</time>
      </trkpt>
      <trkpt lat="48.68872" lon="1.84026">
        <ele>179</ele>
        <time>2017-11-19T14:38:06Z</time>
      </trkpt>
      <trkpt lat="48.68876" lon="1.84039">
        <ele>179</ele>
        <time>2017-11-19T14:38:17Z</time>
      </trkpt>
      <trkpt lat="48.68882" lon="1.8405">
        <ele>179</ele>
        <time>2017-11-19T14:38:25Z</time>
      </trkpt>
      <trkpt lat="48.68887" lon="1.84062">
        <ele>179</ele>
        <time>2017-11-19T14:38:33Z</time>
      </trkpt>
      <trkpt lat="48.68891" lon="1.84076">
        <ele>179</ele>
        <time>2017-11-19T14:38:41Z</time>
      </trkpt>
      <trkpt lat="48.68897" lon="1.84088">
        <ele>179</ele>
        <time>2017-11-19T14:38:49Z</time>
      </trkpt>
      <trkpt lat="48.68905" lon="1.84096">
        <ele>179</ele>
        <time>2017-11-19T14:39:00Z</time>
      </trkpt>
      <trkpt lat="48.6891" lon="1.84108">
        <ele>179</ele>
        <time>2017-11-19T14:39:11Z</time>
      </trkpt>
      <trkpt lat="48.6891" lon="1.84123">
        <ele>179</ele>
        <time>2017-11-19T14:39:20Z</time>
      </trkpt>
      <trkpt lat="48.68916" lon="1.84135">
        <ele>178</ele>
        <time>2017-11-19T14:39:27Z</time>
      </trkpt>
      <trkpt lat="48.68923" lon="1.84146">
        <ele>178</ele>
        <time>2017-11-19T14:39:34Z</time>
      </trkpt>
      <trkpt lat="48.68926" lon="1.84159">
        <ele>178</ele>
        <time>2017-11-19T14:39:43Z</time>
      </trkpt>
      <trkpt lat="48.6893" lon="1.84172">
        <ele>178</ele>
        <time>2017-11-19T14:39:51Z</time>
      </trkpt>
      <trkpt lat="48.68936" lon="1.84184">
        <ele>178</ele>
        <time>2017-11-19T14:40:00Z</time>
      </trkpt>
      <trkpt lat="48.68939" lon="1.84198">
        <ele>178</ele>
        <time>2017-11-19T14:40:09Z</time>
      </trkpt>
      <trkpt lat="48.68944" lon="1.8421">
        <ele>179</ele>
        <time>2017-11-19T14:40:17Z</time>
      </trkpt>
      <trkpt lat="48.68948" lon="1.84222">
        <ele>179</ele>
        <time>2017-11-19T14:40:23Z</time>
      </trkpt>
      <trkpt lat="48.68954" lon="1.84235">
        <ele>179</ele>
        <time>2017-11-19T14:40:31Z</time>
      </trkpt>
      <trkpt lat="48.68959" lon="1.84248">
        <ele>179</ele>
        <time>2017-11-19T14:40:39Z</time>
      </trkpt>
      <trkpt lat="48.68965" lon="1.84259">
        <ele>179</ele>
        <time>2017-11-19T14:40:46Z</time>
      </trkpt>
      <trkpt lat="48.68971" lon="1.84271">
        <ele>179</ele>
        <time>2017-11-19T14:40:53Z</time>
      </trkpt>
      <trkpt lat="48.68976" lon="1.84285">
        <ele>179</ele>
        <time>2017-11-19T14:41:02Z</time>
      </trkpt>
      <trkpt lat="48.68982" lon="1.84298">
        <ele>179</ele>
        <time>2017-11-19T14:41:11Z</time>
      </trkpt>
      <trkpt lat="48.68985" lon="1.84312">
        <ele>179</ele>
        <time>2017-11-19T14:41:19Z</time>
      </trkpt>
      <trkpt lat="48.68988" lon="1.84325">
        <ele>179</ele>
        <time>2017-11-19T14:41:26Z</time>
      </trkpt>
      <trkpt lat="48.68994" lon="1.84336">
        <ele>179</ele>
        <time>2017-11-19T14:41:34Z</time>
      </trkpt>
      <trkpt lat="48.69" lon="1.84347">
        <ele>179</ele>
        <time>2017-11-19T14:41:41Z</time>
      </trkpt>
      <trkpt lat="48.69007" lon="1.84358">
        <ele>178</ele>
        <time>2017-11-19T14:41:50Z</time>
      </trkpt>
      <trkpt lat="48.69013" lon="1.8437">
        <ele>178</ele>
        <time>2017-11-19T14:42:00Z</time>
      </trkpt>
      <trkpt lat="48.69016" lon="1.84384">
        <ele>178</ele>
        <time>2017-11-19T14:42:09Z</time>
      </trkpt>
      <trkpt lat="48.69022" lon="1.84396">
        <ele>178</ele>
        <time>2017-11-19T14:42:17Z</time>
      </trkpt>
      <trkpt lat="48.69025" lon="1.8441">
        <ele>177</ele>
        <time>2017-11-19T14:42:25Z</time>
      </trkpt>
      <trkpt lat="48.6903" lon="1.84422">
        <ele>177</ele>
        <time>2017-11-19T14:42:31Z</time>
      </trkpt>
      <trkpt lat="48.69035" lon="1.84436">
        <ele>177</ele>
        <time>2017-11-19T14:42:39Z</time>
      </trkpt>
      <trkpt lat="48.69037" lon="1.84449">
        <ele>177</ele>
        <time>2017-11-19T14:42:46Z</time>
      </trkpt>
      <trkpt lat="48.69042" lon="1.84462">
        <ele>177</ele>
        <time>2017-11-19T14:42:54Z</time>
      </trkpt>
      <trkpt lat="48.69048" lon="1.84474">
        <ele>177</ele>
        <time>2017-11-19T14:43:02Z</time>
      </trkpt>
      <trkpt lat="48.69052" lon="1.84486">
        <ele>177</ele>
        <time>2017-11-19T14:43:10Z</time>
      </trkpt>
      <trkpt lat="48.69055" lon="1.845">
        <ele>177</ele>
        <time>2017-11-19T14:43:19Z</time>
      </trkpt>
      <trkpt lat="48.69061" lon="1.84512">
        <ele>177</ele>
        <time>2017-11-19T14:43:27Z</time>
      </trkpt>
      <trkpt lat="48.69068" lon="1.84524">
        <ele>177</ele>
        <time>2017-11-19T14:43:35Z</time>
      </trkpt>
      <trkpt lat="48.69074" lon="1.84534">
        <ele>177</ele>
        <time>2017-11-19T14:43:49Z</time>
      </trkpt>
      <trkpt lat="48.69081" lon="1.84545">
        <ele>176</ele>
        <time>2017-11-19T14:44:30Z</time>
      </trkpt>
      <trkpt lat="48.69086" lon="1.84556">
        <ele>176</ele>
        <time>2017-11-19T14:44:40Z</time>
      </trkpt>
      <trkpt lat="48.69092" lon="1.84568">
        <ele>176</ele>
        <time>2017-11-19T14:44:49Z</time>
      </trkpt>
      <trkpt lat="48.69098" lon="1.84579">
        <ele>176</ele>
        <time>2017-11-19T14:44:57Z</time>
      </trkpt>
      <trkpt lat="48.69104" lon="1.84591">
        <ele>176</ele>
        <time>2017-11-19T14:45:06Z</time>
      </trkpt>
      <trkpt lat="48.69111" lon="1.846">
        <ele>176</ele>
        <time>2017-11-19T14:45:15Z</time>
      </trkpt>
      <trkpt lat="48.69118" lon="1.84612">
        <ele>176</ele>
        <time>2017-11-19T14:45:24Z</time>
      </trkpt>
      <trkpt lat="48.69123" lon="1.84623">
        <ele>176</ele>
        <time>2017-11-19T14:45:32Z</time>
      </trkpt>
      <trkpt lat="48.6913" lon="1.84633">
        <ele>176</ele>
        <time>2017-11-19T14:45:40Z</time>
      </trkpt>
      <trkpt lat="48.69137" lon="1.84645">
        <ele>176</ele>
        <time>2017-11-19T14:45:48Z</time>
      </trkpt>
      <trkpt lat="48.69145" lon="1.84652">
        <ele>176</ele>
        <time>2017-11-19T14:45:55Z</time>
      </trkpt>
      <trkpt lat="48.69152" lon="1.84661">
        <ele>176</ele>
        <time>2017-11-19T14:46:04Z</time>
      </trkpt>
      <trkpt lat="48.69159" lon="1.84672">
        <ele>176</ele>
        <time>2017-11-19T14:46:13Z</time>
      </trkpt>
      <trkpt lat="48.69167" lon="1.84682">
        <ele>176</ele>
        <time>2017-11-19T14:46:21Z</time>
      </trkpt>
      <trkpt lat="48.69175" lon="1.84688">
        <ele>176</ele>
        <time>2017-11-19T14:46:28Z</time>
      </trkpt>
      <trkpt lat="48.69183" lon="1.84697">
        <ele>176</ele>
        <time>2017-11-19T14:46:38Z</time>
      </trkpt>
      <trkpt lat="48.69191" lon="1.84705">
        <ele>176</ele>
        <time>2017-11-19T14:46:45Z</time>
      </trkpt>
      <trkpt lat="48.69199" lon="1.84714">
        <ele>176</ele>
        <time>2017-11-19T14:46:53Z</time>
      </trkpt>
      <trkpt lat="48.69206" lon="1.84723">
        <ele>177</ele>
        <time>2017-11-19T14:47:02Z</time>
      </trkpt>
      <trkpt lat="48.69214" lon="1.84729">
        <ele>177</ele>
        <time>2017-11-19T14:47:08Z</time>
      </trkpt>
      <trkpt lat="48.69223" lon="1.84734">
        <ele>177</ele>
        <time>2017-11-19T14:47:16Z</time>
      </trkpt>
      <trkpt lat="48.69231" lon="1.84742">
        <ele>177</ele>
        <time>2017-11-19T14:47:25Z</time>
      </trkpt>
      <trkpt lat="48.69239" lon="1.84751">
        <ele>178</ele>
        <time>2017-11-19T14:47:34Z</time>
      </trkpt>
      <trkpt lat="48.6925" lon="1.84759">
        <ele>178</ele>
        <time>2017-11-19T14:47:41Z</time>
      </trkpt>
      <trkpt lat="48.69256" lon="1.84771">
        <ele>178</ele>
        <time>2017-11-19T14:47:49Z</time>
      </trkpt>
      <trkpt lat="48.69265" lon="1.84775">
        <ele>178</ele>
        <time>2017-11-19T14:47:57Z</time>
      </trkpt>
      <trkpt lat="48.69274" lon="1.84783">
        <ele>178</ele>
        <time>2017-11-19T14:48:06Z</time>
      </trkpt>
      <trkpt lat="48.69282" lon="1.84791">
        <ele>178</ele>
        <time>2017-11-19T14:48:14Z</time>
      </trkpt>
      <trkpt lat="48.69291" lon="1.84796">
        <ele>177</ele>
        <time>2017-11-19T14:48:24Z</time>
      </trkpt>
      <trkpt lat="48.69298" lon="1.84806">
        <ele>177</ele>
        <time>2017-11-19T14:48:35Z</time>
      </trkpt>
      <trkpt lat="48.69303" lon="1.84812">
        <ele>177</ele>
        <time>2017-11-19T14:49:00Z</time>
      </trkpt>
      <trkpt lat="48.69306" lon="1.84815">
        <ele>177</ele>
        <time>2017-11-19T14:49:33Z</time>
      </trkpt>
      <trkpt lat="48.69312" lon="1.84819">
        <ele>177</ele>
        <time>2017-11-19T14:49:42Z</time>
      </trkpt>
      <trkpt lat="48.69319" lon="1.8483">
        <ele>177</ele>
        <time>2017-11-19T14:49:46Z</time>
      </trkpt>
      <trkpt lat="48.69324" lon="1.84842">
        <ele>177</ele>
        <time>2017-11-19T14:49:50Z</time>
      </trkpt>
      <trkpt lat="48.69329" lon="1.84854">
        <ele>177</ele>
        <time>2017-11-19T14:49:55Z</time>
      </trkpt>
      <trkpt lat="48.69335" lon="1.84864">
        <ele>178</ele>
        <time>2017-11-19T14:50:05Z</time>
      </trkpt>
      <trkpt lat="48.69338" lon="1.84878">
        <ele>178</ele>
        <time>2017-11-19T14:50:15Z</time>
      </trkpt>
      <trkpt lat="48.69343" lon="1.8489">
        <ele>178</ele>
        <time>2017-11-19T14:50:22Z</time>
      </trkpt>
      <trkpt lat="48.69347" lon="1.84903">
        <ele>179</ele>
        <time>2017-11-19T14:50:30Z</time>
      </trkpt>
      <trkpt lat="48.69352" lon="1.84915">
        <ele>179</ele>
        <time>2017-11-19T14:50:38Z</time>
      </trkpt>
      <trkpt lat="48.69358" lon="1.84927">
        <ele>179</ele>
        <time>2017-11-19T14:50:46Z</time>
      </trkpt>
      <trkpt lat="48.69363" lon="1.8494">
        <ele>178</ele>
        <time>2017-11-19T14:50:54Z</time>
      </trkpt>
      <trkpt lat="48.69368" lon="1.84952">
        <ele>178</ele>
        <time>2017-11-19T14:51:01Z</time>
      </trkpt>
      <trkpt lat="48.69374" lon="1.84965">
        <ele>178</ele>
        <time>2017-11-19T14:51:09Z</time>
      </trkpt>
      <trkpt lat="48.69379" lon="1.84976">
        <ele>178</ele>
        <time>2017-11-19T14:51:16Z</time>
      </trkpt>
      <trkpt lat="48.69385" lon="1.84987">
        <ele>178</ele>
        <time>2017-11-19T14:51:23Z</time>
      </trkpt>
      <trkpt lat="48.6939" lon="1.84999">
        <ele>177</ele>
        <time>2017-11-19T14:51:32Z</time>
      </trkpt>
      <trkpt lat="48.69396" lon="1.8501">
        <ele>177</ele>
        <time>2017-11-19T14:51:40Z</time>
      </trkpt>
      <trkpt lat="48.69401" lon="1.85022">
        <ele>177</ele>
        <time>2017-11-19T14:51:47Z</time>
      </trkpt>
      <trkpt lat="48.69407" lon="1.85034">
        <ele>177</ele>
        <time>2017-11-19T14:51:56Z</time>
      </trkpt>
      <trkpt lat="48.69411" lon="1.85047">
        <ele>177</ele>
        <time>2017-11-19T14:52:05Z</time>
      </trkpt>
      <trkpt lat="48.69416" lon="1.85059">
        <ele>177</ele>
        <time>2017-11-19T14:52:12Z</time>
      </trkpt>
      <trkpt lat="48.69423" lon="1.85068">
        <ele>177</ele>
        <time>2017-11-19T14:52:18Z</time>
      </trkpt>
      <trkpt lat="48.69426" lon="1.85081">
        <ele>177</ele>
        <time>2017-11-19T14:52:25Z</time>
      </trkpt>
      <trkpt lat="48.6943" lon="1.85094">
        <ele>177</ele>
        <time>2017-11-19T14:52:34Z</time>
      </trkpt>
      <trkpt lat="48.69435" lon="1.85106">
        <ele>177</ele>
        <time>2017-11-19T14:52:42Z</time>
      </trkpt>
      <trkpt lat="48.6944" lon="1.85118">
        <ele>177</ele>
        <time>2017-11-19T14:52:50Z</time>
      </trkpt>
      <trkpt lat="48.69445" lon="1.8513">
        <ele>177</ele>
        <time>2017-11-19T14:52:58Z</time>
      </trkpt>
      <trkpt lat="48.6945" lon="1.85142">
        <ele>177</ele>
        <time>2017-11-19T14:53:07Z</time>
      </trkpt>
      <trkpt lat="48.69454" lon="1.85155">
        <ele>177</ele>
        <time>2017-11-19T14:53:15Z</time>
      </trkpt>
      <trkpt lat="48.69458" lon="1.85168">
        <ele>177</ele>
        <time>2017-11-19T14:53:23Z</time>
      </trkpt>
      <trkpt lat="48.69464" lon="1.8518">
        <ele>177</ele>
        <time>2017-11-19T14:53:30Z</time>
      </trkpt>
      <trkpt lat="48.69469" lon="1.85193">
        <ele>177</ele>
        <time>2017-11-19T14:53:39Z</time>
      </trkpt>
      <trkpt lat="48.69472" lon="1.85207">
        <ele>177</ele>
        <time>2017-11-19T14:53:49Z</time>
      </trkpt>
      <trkpt lat="48.69474" lon="1.85221">
        <ele>177</ele>
        <time>2017-11-19T14:53:56Z</time>
      </trkpt>
      <trkpt lat="48.69477" lon="1.85234">
        <ele>177</ele>
        <time>2017-11-19T14:54:03Z</time>
      </trkpt>
      <trkpt lat="48.69482" lon="1.85246">
        <ele>177</ele>
        <time>2017-11-19T14:54:11Z</time>
      </trkpt>
      <trkpt lat="48.69484" lon="1.8526">
        <ele>177</ele>
        <time>2017-11-19T14:54:21Z</time>
      </trkpt>
      <trkpt lat="48.6948" lon="1.85274">
        <ele>177</ele>
        <time>2017-11-19T14:54:29Z</time>
      </trkpt>
      <trkpt lat="48.69479" lon="1.85287">
        <ele>177</ele>
        <time>2017-11-19T14:54:41Z</time>
      </trkpt>
      <trkpt lat="48.69473" lon="1.85298">
        <ele>178</ele>
        <time>2017-11-19T14:54:48Z</time>
      </trkpt>
      <trkpt lat="48.69466" lon="1.85308">
        <ele>178</ele>
        <time>2017-11-19T14:54:57Z</time>
      </trkpt>
      <trkpt lat="48.69461" lon="1.85321">
        <ele>178</ele>
        <time>2017-11-19T14:55:05Z</time>
      </trkpt>
      <trkpt lat="48.69456" lon="1.85334">
        <ele>178</ele>
        <time>2017-11-19T14:55:13Z</time>
      </trkpt>
      <trkpt lat="48.69452" lon="1.85348">
        <ele>178</ele>
        <time>2017-11-19T14:55:21Z</time>
      </trkpt>
      <trkpt lat="48.69447" lon="1.85362">
        <ele>178</ele>
        <time>2017-11-19T14:55:30Z</time>
      </trkpt>
      <trkpt lat="48.69446" lon="1.85376">
        <ele>178</ele>
        <time>2017-11-19T14:55:38Z</time>
      </trkpt>
      <trkpt lat="48.69439" lon="1.85384">
        <ele>178</ele>
        <time>2017-11-19T14:55:46Z</time>
      </trkpt>
      <trkpt lat="48.69429" lon="1.85383">
        <ele>178</ele>
        <time>2017-11-19T14:55:53Z</time>
      </trkpt>
      <trkpt lat="48.69419" lon="1.85382">
        <ele>178</ele>
        <time>2017-11-19T14:56:01Z</time>
      </trkpt>
      <trkpt lat="48.69411" lon="1.85389">
        <ele>178</ele>
        <time>2017-11-19T14:56:20Z</time>
      </trkpt>
      <trkpt lat="48.69415" lon="1.85402">
        <ele>178</ele>
        <time>2017-11-19T14:58:01Z</time>
      </trkpt>
      <trkpt lat="48.69413" lon="1.85417">
        <ele>178</ele>
        <time>2017-11-19T14:58:16Z</time>
      </trkpt>
      <trkpt lat="48.6941" lon="1.85431">
        <ele>178</ele>
        <time>2017-11-19T14:58:28Z</time>
      </trkpt>
      <trkpt lat="48.69406" lon="1.85444">
        <ele>177</ele>
        <time>2017-11-19T14:58:39Z</time>
      </trkpt>
      <trkpt lat="48.694" lon="1.85455">
        <ele>177</ele>
        <time>2017-11-19T14:58:48Z</time>
      </trkpt>
      <trkpt lat="48.69394" lon="1.85467">
        <ele>177</ele>
        <time>2017-11-19T14:58:54Z</time>
      </trkpt>
      <trkpt lat="48.6939" lon="1.85479">
        <ele>177</ele>
        <time>2017-11-19T14:59:01Z</time>
      </trkpt>
      <trkpt lat="48.69388" lon="1.85494">
        <ele>176</ele>
        <time>2017-11-19T14:59:09Z</time>
      </trkpt>
      <trkpt lat="48.69383" lon="1.85505">
        <ele>176</ele>
        <time>2017-11-19T14:59:15Z</time>
      </trkpt>
      <trkpt lat="48.69377" lon="1.85519">
        <ele>176</ele>
        <time>2017-11-19T14:59:23Z</time>
      </trkpt>
      <trkpt lat="48.69376" lon="1.85532">
        <ele>176</ele>
        <time>2017-11-19T14:59:32Z</time>
      </trkpt>
      <trkpt lat="48.69368" lon="1.85544">
        <ele>176</ele>
        <time>2017-11-19T14:59:40Z</time>
      </trkpt>
      <trkpt lat="48.69362" lon="1.85555">
        <ele>176</ele>
        <time>2017-11-19T14:59:46Z</time>
      </trkpt>
      <trkpt lat="48.69356" lon="1.85568">
        <ele>175</ele>
        <time>2017-11-19T14:59:55Z</time>
      </trkpt>
      <trkpt lat="48.69351" lon="1.8558">
        <ele>175</ele>
        <time>2017-11-19T15:00:03Z</time>
      </trkpt>
      <trkpt lat="48.69347" lon="1.85593">
        <ele>175</ele>
        <time>2017-11-19T15:00:11Z</time>
      </trkpt>
      <trkpt lat="48.69343" lon="1.85607">
        <ele>175</ele>
        <time>2017-11-19T15:00:22Z</time>
      </trkpt>
      <trkpt lat="48.69336" lon="1.85616">
        <ele>175</ele>
        <time>2017-11-19T15:00:47Z</time>
      </trkpt>
      <trkpt lat="48.69331" lon="1.85628">
        <ele>175</ele>
        <time>2017-11-19T15:01:15Z</time>
      </trkpt>
      <trkpt lat="48.6933" lon="1.85634">
        <ele>175</ele>
        <time>2017-11-19T15:04:13Z</time>
      </trkpt>
    </trkseg>
  </trk>
</gpx>